Wetterdaten: Donnerstag, 03.10.2024
Datum Zeit Temp. I. Temp. A. Feuchte I. Feuchte A. Luftdruck Regen Wind Richtung Richtung Sonnenschein Solar Taupunkt Windchill Windböen
03.10.2024 00:00 18,2 °C 9,8 °C 57 % 95 % 1013,2 hPa 0,0 l/m² 0,0 km/h (0 Bft) W-NW 292 ° 0 min 0 W/m² 9,0 °C 9,8 °C 0,0 km/h (0 Bft)
03.10.2024 00:02 18,2 °C 9,8 °C 57 % 95 % 1013,2 hPa 0,0 l/m² 0,0 km/h (0 Bft) W-NW 292 ° 0 min 0 W/m² 9,0 °C 9,8 °C 0,0 km/h (0 Bft)
03.10.2024 00:03 18,2 °C 9,8 °C 57 % 95 % 1013,2 hPa 0,0 l/m² 0,0 km/h (0 Bft) W-NW 292 ° 0 min 0 W/m² 9,0 °C 9,8 °C 0,0 km/h (0 Bft)
03.10.2024 00:05 18,2 °C 9,8 °C 57 % 95 % 1013,2 hPa 0,0 l/m² 0,7 km/h (0 Bft) W-NW 292 ° 0 min 0 W/m² 9,0 °C 9,8 °C 3,2 km/h (1 Bft)
03.10.2024 00:07 18,2 °C 9,8 °C 57 % 95 % 1013,2 hPa 0,0 l/m² 0,5 km/h (0 Bft) W-NW 292 ° 0 min 0 W/m² 9,0 °C 9,8 °C 3,2 km/h (1 Bft)
03.10.2024 00:08 18,2 °C 9,8 °C 57 % 95 % 1013,2 hPa 0,0 l/m² 0,0 km/h (0 Bft) W-NW 292 ° 0 min 0 W/m² 9,0 °C 9,8 °C 0,0 km/h (0 Bft)
03.10.2024 00:10 18,2 °C 9,8 °C 57 % 95 % 1013,3 hPa 0,0 l/m² 1,7 km/h (1 Bft) W-NW 296 ° 0 min 0 W/m² 9,0 °C 9,8 °C 8,0 km/h (2 Bft)
03.10.2024 00:11 18,2 °C 9,8 °C 57 % 95 % 1013,2 hPa 0,2 l/m² 0,2 km/h (0 Bft) W-NW 296 ° 0 min 0 W/m² 9,0 °C 9,8 °C 3,2 km/h (1 Bft)
03.10.2024 00:13 18,2 °C 9,8 °C 57 % 95 % 1013,3 hPa 0,0 l/m² 1,6 km/h (1 Bft) W-NW 302 ° 0 min 0 W/m² 9,0 °C 9,8 °C 8,0 km/h (2 Bft)
03.10.2024 00:15 18,2 °C 9,8 °C 57 % 95 % 1013,3 hPa 0,0 l/m² 2,5 km/h (1 Bft) NW 312 ° 0 min 0 W/m² 9,0 °C 9,8 °C 8,0 km/h (2 Bft)
03.10.2024 00:17 18,2 °C 9,8 °C 57 % 95 % 1013,4 hPa 0,0 l/m² 1,8 km/h (1 Bft) N-NW 329 ° 0 min 0 W/m² 9,0 °C 9,8 °C 8,0 km/h (2 Bft)
03.10.2024 00:19 18,2 °C 9,8 °C 57 % 95 % 1013,3 hPa 0,0 l/m² 3,7 km/h (1 Bft) N-NW 330 ° 0 min 0 W/m² 9,0 °C 9,8 °C 6,4 km/h (2 Bft)
03.10.2024 00:21 18,2 °C 9,8 °C 57 % 95 % 1013,3 hPa 0,0 l/m² 3,1 km/h (1 Bft) N-NW 329 ° 0 min 0 W/m² 9,0 °C 9,8 °C 6,4 km/h (2 Bft)
03.10.2024 00:23 18,2 °C 9,8 °C 57 % 95 % 1013,3 hPa 0,0 l/m² 3,3 km/h (1 Bft) NW 316 ° 0 min 0 W/m² 9,0 °C 9,8 °C 8,0 km/h (2 Bft)
03.10.2024 00:25 18,2 °C 9,8 °C 57 % 95 % 1013,3 hPa 0,0 l/m² 3,9 km/h (1 Bft) N-NW 327 ° 0 min 0 W/m² 9,0 °C 9,8 °C 8,0 km/h (2 Bft)
03.10.2024 00:27 18,2 °C 9,8 °C 57 % 95 % 1013,3 hPa 0,0 l/m² 2,6 km/h (1 Bft) NW 322 ° 0 min 0 W/m² 9,0 °C 9,8 °C 6,4 km/h (2 Bft)
03.10.2024 00:29 18,2 °C 9,8 °C 57 % 95 % 1013,3 hPa 0,0 l/m² 3,9 km/h (1 Bft) NW 326 ° 0 min 0 W/m² 9,0 °C 9,8 °C 6,4 km/h (2 Bft)
03.10.2024 00:31 18,2 °C 9,9 °C 57 % 95 % 1013,3 hPa 0,0 l/m² 3,9 km/h (1 Bft) N-NW 330 ° 0 min 0 W/m² 9,1 °C 9,9 °C 8,0 km/h (2 Bft)
03.10.2024 00:33 18,2 °C 9,8 °C 57 % 95 % 1013,4 hPa 0,0 l/m² 3,7 km/h (1 Bft) N-NW 329 ° 0 min 0 W/m² 9,0 °C 9,8 °C 8,0 km/h (2 Bft)
03.10.2024 00:35 18,2 °C 9,8 °C 57 % 95 % 1013,3 hPa 0,0 l/m² 2,7 km/h (1 Bft) N-NW 327 ° 0 min 0 W/m² 9,0 °C 9,8 °C 6,4 km/h (2 Bft)
03.10.2024 00:37 18,2 °C 9,9 °C 57 % 95 % 1013,3 hPa 0,0 l/m² 3,2 km/h (1 Bft) N-NW 329 ° 0 min 0 W/m² 9,1 °C 9,9 °C 6,4 km/h (2 Bft)
03.10.2024 00:39 18,2 °C 9,8 °C 57 % 95 % 1013,3 hPa 0,0 l/m² 1,4 km/h (1 Bft) N-NW 333 ° 0 min 0 W/m² 9,0 °C 9,8 °C 4,8 km/h (1 Bft)
03.10.2024 00:41 18,2 °C 9,9 °C 57 % 95 % 1013,4 hPa 0,0 l/m² 2,5 km/h (1 Bft) NW 312 ° 0 min 0 W/m² 9,1 °C 9,9 °C 6,4 km/h (2 Bft)
03.10.2024 00:43 18,2 °C 9,9 °C 57 % 95 % 1013,3 hPa 0,2 l/m² 1,9 km/h (1 Bft) N-NW 331 ° 0 min 0 W/m² 9,1 °C 9,9 °C 6,4 km/h (2 Bft)
03.10.2024 00:44 18,2 °C 9,9 °C 57 % 95 % 1013,3 hPa 0,0 l/m² 0,0 km/h (0 Bft) N-NW 333 ° 0 min 0 W/m² 9,1 °C 9,9 °C 4,8 km/h (1 Bft)
03.10.2024 00:45 18,2 °C 9,9 °C 57 % 95 % 1013,3 hPa 0,0 l/m² 3,3 km/h (1 Bft) N-NW 336 ° 0 min 0 W/m² 9,1 °C 9,9 °C 8,0 km/h (2 Bft)
03.10.2024 00:46 18,2 °C 9,9 °C 57 % 95 % 1013,3 hPa 0,0 l/m² 3,5 km/h (1 Bft) N-NW 332 ° 0 min 0 W/m² 9,1 °C 9,9 °C 6,4 km/h (2 Bft)
03.10.2024 00:47 18,2 °C 9,9 °C 57 % 95 % 1013,3 hPa 0,0 l/m² 0,7 km/h (0 Bft) N-NW 327 ° 0 min 0 W/m² 9,1 °C 9,9 °C 3,2 km/h (1 Bft)
03.10.2024 00:49 18,2 °C 9,9 °C 57 % 95 % 1013,3 hPa 0,0 l/m² 3,5 km/h (1 Bft) N-NW 346 ° 0 min 0 W/m² 9,1 °C 9,9 °C 6,4 km/h (2 Bft)
03.10.2024 00:51 18,2 °C 9,9 °C 57 % 95 % 1013,3 hPa 0,0 l/m² 5,3 km/h (1 Bft) NW 321 ° 0 min 0 W/m² 9,1 °C 9,9 °C 9,7 km/h (2 Bft)
03.10.2024 00:53 18,2 °C 9,9 °C 57 % 95 % 1013,3 hPa 0,0 l/m² 4,7 km/h (1 Bft) NW 316 ° 0 min 0 W/m² 9,1 °C 9,9 °C 8,0 km/h (2 Bft)
03.10.2024 00:55 18,2 °C 9,9 °C 57 % 95 % 1013,3 hPa 0,0 l/m² 7,6 km/h (2 Bft) NW 325 ° 0 min 0 W/m² 9,1 °C 9,0 °C 12,9 km/h (3 Bft)
03.10.2024 00:57 18,2 °C 9,9 °C 57 % 95 % 1013,4 hPa 0,0 l/m² 4,3 km/h (1 Bft) N-NW 338 ° 0 min 0 W/m² 9,1 °C 9,9 °C 8,0 km/h (2 Bft)
03.10.2024 00:59 18,2 °C 9,9 °C 57 % 95 % 1013,3 hPa 0,0 l/m² 4,1 km/h (1 Bft) N-NW 342 ° 0 min 0 W/m² 9,1 °C 9,9 °C 9,7 km/h (2 Bft)
03.10.2024 01:01 18,1 °C 9,9 °C 57 % 95 % 1013,3 hPa 0,0 l/m² 4,2 km/h (1 Bft) NW 319 ° 0 min 0 W/m² 9,1 °C 9,9 °C 6,4 km/h (2 Bft)
03.10.2024 01:03 18,2 °C 9,9 °C 57 % 95 % 1013,3 hPa 0,0 l/m² 1,9 km/h (1 Bft) N-NW 336 ° 0 min 0 W/m² 9,1 °C 9,9 °C 4,8 km/h (1 Bft)
03.10.2024 01:05 18,2 °C 9,9 °C 57 % 95 % 1013,4 hPa 0,0 l/m² 2,8 km/h (1 Bft) N 355 ° 0 min 0 W/m² 9,1 °C 9,9 °C 6,4 km/h (2 Bft)
03.10.2024 01:06 18,2 °C 9,9 °C 57 % 95 % 1013,3 hPa 0,0 l/m² 4,2 km/h (1 Bft) NW 311 ° 0 min 0 W/m² 9,1 °C 9,9 °C 6,4 km/h (2 Bft)
03.10.2024 01:08 18,2 °C 10,0 °C 57 % 95 % 1013,4 hPa 0,2 l/m² 4,8 km/h (1 Bft) N-NW 333 ° 0 min 0 W/m² 9,2 °C 10,0 °C 8,0 km/h (2 Bft)
03.10.2024 01:10 18,2 °C 9,9 °C 57 % 95 % 1013,4 hPa 0,0 l/m² 4,1 km/h (1 Bft) N-NW 328 ° 0 min 0 W/m² 9,1 °C 9,9 °C 9,7 km/h (2 Bft)
03.10.2024 01:12 18,2 °C 9,9 °C 57 % 95 % 1013,3 hPa 0,0 l/m² 5,9 km/h (2 Bft) N-NW 329 ° 0 min 0 W/m² 9,1 °C 9,9 °C 11,3 km/h (2 Bft)
03.10.2024 01:14 18,2 °C 10,0 °C 57 % 95 % 1013,4 hPa 0,0 l/m² 7,5 km/h (2 Bft) N 355 ° 0 min 0 W/m² 9,2 °C 9,2 °C 16,1 km/h (3 Bft)
03.10.2024 01:16 18,2 °C 9,9 °C 57 % 95 % 1013,5 hPa 0,0 l/m² 8,3 km/h (2 Bft) N-NW 340 ° 0 min 0 W/m² 9,1 °C 8,5 °C 12,9 km/h (3 Bft)
03.10.2024 01:18 18,2 °C 9,9 °C 57 % 95 % 1013,4 hPa 0,0 l/m² 6,6 km/h (2 Bft) N-NW 342 ° 0 min 0 W/m² 9,1 °C 9,8 °C 12,9 km/h (3 Bft)
03.10.2024 01:20 18,1 °C 9,9 °C 57 % 95 % 1013,4 hPa 0,0 l/m² 5,2 km/h (1 Bft) N 355 ° 0 min 0 W/m² 9,1 °C 9,9 °C 9,7 km/h (2 Bft)
03.10.2024 01:22 18,1 °C 10,0 °C 57 % 95 % 1013,5 hPa 0,0 l/m² 5,6 km/h (2 Bft) N-NO 27 ° 0 min 0 W/m² 9,2 °C 10,0 °C 12,9 km/h (3 Bft)
03.10.2024 01:24 18,1 °C 10,0 °C 57 % 95 % 1013,4 hPa 0,0 l/m² 2,4 km/h (1 Bft) N 5 ° 0 min 0 W/m² 9,2 °C 10,0 °C 8,0 km/h (2 Bft)
03.10.2024 01:26 18,2 °C 10,0 °C 57 % 95 % 1013,5 hPa 0,0 l/m² 6,5 km/h (2 Bft) N 351 ° 0 min 0 W/m² 9,2 °C 10,0 °C 12,9 km/h (3 Bft)
03.10.2024 01:28 18,2 °C 10,0 °C 57 % 95 % 1013,5 hPa 0,0 l/m² 4,8 km/h (1 Bft) N 350 ° 0 min 0 W/m² 9,2 °C 10,0 °C 9,7 km/h (2 Bft)
03.10.2024 01:30 18,2 °C 10,0 °C 57 % 95 % 1013,5 hPa 0,0 l/m² 8,6 km/h (2 Bft) N-NO 15 ° 0 min 0 W/m² 9,2 °C 8,5 °C 14,5 km/h (3 Bft)
03.10.2024 01:32 18,2 °C 10,0 °C 57 % 95 % 1013,5 hPa 0,0 l/m² 7,0 km/h (2 Bft) N 355 ° 0 min 0 W/m² 9,2 °C 9,6 °C 12,9 km/h (3 Bft)
03.10.2024 01:34 18,2 °C 10,0 °C 57 % 95 % 1013,6 hPa 0,0 l/m² 5,7 km/h (2 Bft) N 355 ° 0 min 0 W/m² 9,2 °C 10,0 °C 14,5 km/h (3 Bft)
03.10.2024 01:36 18,1 °C 10,0 °C 57 % 95 % 1013,5 hPa 0,0 l/m² 3,7 km/h (1 Bft) N-NO 21 ° 0 min 0 W/m² 9,2 °C 10,0 °C 8,0 km/h (2 Bft)
03.10.2024 01:38 18,2 °C 10,0 °C 57 % 95 % 1013,6 hPa 0,0 l/m² 1,6 km/h (1 Bft) N-NW 346 ° 0 min 0 W/m² 9,2 °C 10,0 °C 4,8 km/h (1 Bft)
03.10.2024 01:40 18,2 °C 10,0 °C 57 % 95 % 1013,5 hPa 0,0 l/m² 3,8 km/h (1 Bft) N 5 ° 0 min 0 W/m² 9,2 °C 10,0 °C 9,7 km/h (2 Bft)
03.10.2024 01:42 18,1 °C 10,0 °C 57 % 95 % 1013,5 hPa 0,0 l/m² 7,9 km/h (2 Bft) N 5 ° 0 min 0 W/m² 9,2 °C 8,9 °C 12,9 km/h (3 Bft)
03.10.2024 01:44 18,1 °C 10,0 °C 57 % 95 % 1013,6 hPa 0,0 l/m² 5,6 km/h (2 Bft) N 5 ° 0 min 0 W/m² 9,2 °C 10,0 °C 8,0 km/h (2 Bft)
03.10.2024 01:46 18,1 °C 10,0 °C 57 % 95 % 1013,6 hPa 0,0 l/m² 2,8 km/h (1 Bft) N 355 ° 0 min 0 W/m² 9,2 °C 10,0 °C 8,0 km/h (2 Bft)
03.10.2024 01:48 18,2 °C 10,0 °C 57 % 95 % 1013,6 hPa 0,0 l/m² 1,9 km/h (1 Bft) N 5 ° 0 min 0 W/m² 9,2 °C 10,0 °C 6,4 km/h (2 Bft)
03.10.2024 01:50 18,1 °C 10,0 °C 57 % 95 % 1013,6 hPa 0,0 l/m² 2,4 km/h (1 Bft) N 360 ° 0 min 0 W/m² 9,2 °C 10,0 °C 8,0 km/h (2 Bft)
03.10.2024 01:52 18,2 °C 10,0 °C 57 % 95 % 1013,6 hPa 0,0 l/m² 2,1 km/h (1 Bft) N 5 ° 0 min 0 W/m² 9,2 °C 10,0 °C 8,0 km/h (2 Bft)
03.10.2024 01:54 18,1 °C 10,0 °C 57 % 95 % 1013,7 hPa 0,0 l/m² 2,2 km/h (1 Bft) N 355 ° 0 min 0 W/m² 9,2 °C 10,0 °C 6,4 km/h (2 Bft)
03.10.2024 01:56 18,1 °C 10,1 °C 57 % 95 % 1013,7 hPa 0,0 l/m² 5,0 km/h (1 Bft) N-NW 341 ° 0 min 0 W/m² 9,3 °C 10,1 °C 8,0 km/h (2 Bft)
03.10.2024 01:58 18,1 °C 10,0 °C 57 % 95 % 1013,6 hPa 0,0 l/m² 4,7 km/h (1 Bft) N 360 ° 0 min 0 W/m² 9,2 °C 10,0 °C 8,0 km/h (2 Bft)
03.10.2024 02:00 18,1 °C 10,0 °C 57 % 95 % 1013,7 hPa 0,0 l/m² 2,1 km/h (1 Bft) N-NW 333 ° 0 min 0 W/m² 9,2 °C 10,0 °C 6,4 km/h (2 Bft)
03.10.2024 02:02 18,1 °C 10,1 °C 57 % 95 % 1013,7 hPa 0,0 l/m² 3,3 km/h (1 Bft) N-NO 28 ° 0 min 0 W/m² 9,3 °C 10,1 °C 6,4 km/h (2 Bft)
03.10.2024 02:04 18,1 °C 10,1 °C 57 % 95 % 1013,7 hPa 0,0 l/m² 4,3 km/h (1 Bft) N-NO 13 ° 0 min 0 W/m² 9,3 °C 10,1 °C 11,3 km/h (2 Bft)
03.10.2024 02:06 18,1 °C 10,1 °C 57 % 95 % 1013,6 hPa 0,0 l/m² 5,8 km/h (2 Bft) N-NW 343 ° 0 min 0 W/m² 9,3 °C 10,1 °C 9,7 km/h (2 Bft)
03.10.2024 02:08 18,1 °C 10,0 °C 57 % 95 % 1013,6 hPa 0,0 l/m² 6,7 km/h (2 Bft) N-NW 346 ° 0 min 0 W/m² 9,2 °C 9,8 °C 12,9 km/h (3 Bft)
03.10.2024 02:10 18,1 °C 10,0 °C 57 % 95 % 1013,6 hPa 0,0 l/m² 3,9 km/h (1 Bft) N-NO 15 ° 0 min 0 W/m² 9,2 °C 10,0 °C 8,0 km/h (2 Bft)
03.10.2024 02:12 18,1 °C 10,1 °C 57 % 95 % 1013,7 hPa 0,0 l/m² 3,9 km/h (1 Bft) N 355 ° 0 min 0 W/m² 9,3 °C 10,1 °C 9,7 km/h (2 Bft)
03.10.2024 02:14 18,1 °C 10,0 °C 57 % 95 % 1013,6 hPa 0,0 l/m² 4,1 km/h (1 Bft) N-NW 342 ° 0 min 0 W/m² 9,2 °C 10,0 °C 8,0 km/h (2 Bft)
03.10.2024 02:16 18,1 °C 10,0 °C 57 % 95 % 1013,6 hPa 0,0 l/m² 5,0 km/h (1 Bft) N-NW 340 ° 0 min 0 W/m² 9,2 °C 10,0 °C 8,0 km/h (2 Bft)
03.10.2024 02:18 18,1 °C 10,1 °C 57 % 95 % 1013,6 hPa 0,0 l/m² 5,0 km/h (1 Bft) N 360 ° 0 min 0 W/m² 9,3 °C 10,1 °C 9,7 km/h (2 Bft)
03.10.2024 02:20 18,1 °C 10,1 °C 57 % 95 % 1013,7 hPa 0,0 l/m² 4,9 km/h (1 Bft) N-NO 22 ° 0 min 0 W/m² 9,3 °C 10,1 °C 8,0 km/h (2 Bft)
03.10.2024 02:22 18,1 °C 10,1 °C 57 % 95 % 1013,7 hPa 0,0 l/m² 5,9 km/h (2 Bft) N-NW 346 ° 0 min 0 W/m² 9,3 °C 10,1 °C 12,9 km/h (3 Bft)
03.10.2024 02:24 18,1 °C 10,1 °C 57 % 95 % 1013,6 hPa 0,0 l/m² 3,4 km/h (1 Bft) N-NO 18 ° 0 min 0 W/m² 9,3 °C 10,1 °C 6,4 km/h (2 Bft)
03.10.2024 02:26 18,1 °C 10,1 °C 57 % 95 % 1013,7 hPa 0,0 l/m² 4,3 km/h (1 Bft) N 355 ° 0 min 0 W/m² 9,3 °C 10,1 °C 8,0 km/h (2 Bft)
03.10.2024 02:28 18,1 °C 10,1 °C 57 % 95 % 1013,7 hPa 0,0 l/m² 5,7 km/h (2 Bft) N 355 ° 0 min 0 W/m² 9,3 °C 10,1 °C 8,0 km/h (2 Bft)
03.10.2024 02:30 18,1 °C 10,1 °C 57 % 95 % 1013,7 hPa 0,0 l/m² 4,8 km/h (1 Bft) N 9 ° 0 min 0 W/m² 9,3 °C 10,1 °C 8,0 km/h (2 Bft)
03.10.2024 02:32 18,1 °C 10,1 °C 57 % 95 % 1013,7 hPa 0,0 l/m² 4,2 km/h (1 Bft) N 351 ° 0 min 0 W/m² 9,3 °C 10,1 °C 8,0 km/h (2 Bft)
03.10.2024 02:34 18,1 °C 10,1 °C 57 % 95 % 1013,6 hPa 0,0 l/m² 4,0 km/h (1 Bft) N 5 ° 0 min 0 W/m² 9,3 °C 10,1 °C 12,9 km/h (3 Bft)
03.10.2024 02:36 18,1 °C 10,1 °C 57 % 95 % 1013,7 hPa 0,0 l/m² 4,3 km/h (1 Bft) N 5 ° 0 min 0 W/m² 9,3 °C 10,1 °C 11,3 km/h (2 Bft)
03.10.2024 02:38 18,1 °C 10,1 °C 57 % 95 % 1013,7 hPa 0,0 l/m² 0,6 km/h (0 Bft) W 273 ° 0 min 0 W/m² 9,3 °C 10,1 °C 3,2 km/h (1 Bft)
03.10.2024 02:40 18,1 °C 10,1 °C 57 % 95 % 1013,7 hPa 0,0 l/m² 1,9 km/h (1 Bft) W-NW 303 ° 0 min 0 W/m² 9,3 °C 10,1 °C 4,8 km/h (1 Bft)
03.10.2024 02:42 18,1 °C 10,1 °C 57 % 95 % 1013,8 hPa 0,0 l/m² 3,4 km/h (1 Bft) N-NW 339 ° 0 min 0 W/m² 9,3 °C 10,1 °C 8,0 km/h (2 Bft)
03.10.2024 02:44 18,1 °C 10,1 °C 57 % 95 % 1013,7 hPa 0,0 l/m² 3,3 km/h (1 Bft) NW 322 ° 0 min 0 W/m² 9,3 °C 10,1 °C 8,0 km/h (2 Bft)
03.10.2024 02:46 18,1 °C 10,1 °C 57 % 95 % 1013,8 hPa 0,0 l/m² 6,3 km/h (2 Bft) N-NW 334 ° 0 min 0 W/m² 9,3 °C 10,1 °C 14,5 km/h (3 Bft)
03.10.2024 02:48 18,1 °C 10,1 °C 57 % 95 % 1013,8 hPa 0,0 l/m² 1,3 km/h (1 Bft) NW 319 ° 0 min 0 W/m² 9,3 °C 10,1 °C 6,4 km/h (2 Bft)
03.10.2024 02:50 18,1 °C 10,1 °C 57 % 95 % 1013,8 hPa 0,0 l/m² 4,8 km/h (1 Bft) N-NW 335 ° 0 min 0 W/m² 9,3 °C 10,1 °C 12,9 km/h (3 Bft)
03.10.2024 02:52 18,1 °C 10,0 °C 57 % 95 % 1013,8 hPa 0,0 l/m² 5,9 km/h (2 Bft) N-NW 347 ° 0 min 0 W/m² 9,2 °C 10,0 °C 9,7 km/h (2 Bft)
03.10.2024 02:54 18,1 °C 10,1 °C 57 % 95 % 1013,8 hPa 0,0 l/m² 4,6 km/h (1 Bft) N 355 ° 0 min 0 W/m² 9,3 °C 10,1 °C 9,7 km/h (2 Bft)
03.10.2024 02:56 18,1 °C 10,0 °C 57 % 95 % 1013,8 hPa 0,0 l/m² 4,9 km/h (1 Bft) W-NW 296 ° 0 min 0 W/m² 9,2 °C 10,0 °C 9,7 km/h (2 Bft)
03.10.2024 02:58 18,1 °C 10,0 °C 57 % 95 % 1013,8 hPa 0,0 l/m² 3,8 km/h (1 Bft) N-NW 343 ° 0 min 0 W/m² 9,2 °C 10,0 °C 9,7 km/h (2 Bft)
03.10.2024 03:00 18,1 °C 10,0 °C 57 % 95 % 1013,8 hPa 0,0 l/m² 3,6 km/h (1 Bft) N-NW 338 ° 0 min 0 W/m² 9,2 °C 10,0 °C 6,4 km/h (2 Bft)
03.10.2024 03:01 18,1 °C 10,0 °C 57 % 95 % 1013,7 hPa 0,0 l/m² 4,8 km/h (1 Bft) N-NW 337 ° 0 min 0 W/m² 9,2 °C 10,0 °C 6,4 km/h (2 Bft)
03.10.2024 03:07 18,1 °C 9,9 °C 57 % 95 % 1013,8 hPa 0,0 l/m² 3,1 km/h (1 Bft) N-NW 340 ° 0 min 0 W/m² 9,1 °C 9,9 °C 4,8 km/h (1 Bft)
03.10.2024 03:09 18,1 °C 10,0 °C 57 % 95 % 1013,7 hPa 0,0 l/m² 1,6 km/h (1 Bft) N-NW 338 ° 0 min 0 W/m² 9,2 °C 10,0 °C 4,8 km/h (1 Bft)
03.10.2024 03:10 18,1 °C 10,0 °C 57 % 95 % 1013,7 hPa 0,0 l/m² 3,5 km/h (1 Bft) N-NW 341 ° 0 min 0 W/m² 9,2 °C 10,0 °C 6,4 km/h (2 Bft)
03.10.2024 03:12 18,1 °C 9,9 °C 57 % 95 % 1013,7 hPa 0,0 l/m² 1,8 km/h (1 Bft) N-NW 329 ° 0 min 0 W/m² 9,1 °C 9,9 °C 4,8 km/h (1 Bft)
03.10.2024 03:13 18,1 °C 9,9 °C 57 % 95 % 1013,7 hPa 0,0 l/m² 1,9 km/h (1 Bft) N-NW 340 ° 0 min 0 W/m² 9,1 °C 9,9 °C 4,8 km/h (1 Bft)
03.10.2024 03:14 18,1 °C 10,0 °C 57 % 95 % 1013,7 hPa 0,0 l/m² 1,8 km/h (1 Bft) N-NW 327 ° 0 min 0 W/m² 9,2 °C 10,0 °C 4,8 km/h (1 Bft)
03.10.2024 03:16 18,1 °C 10,0 °C 57 % 95 % 1013,8 hPa 0,0 l/m² 2,7 km/h (1 Bft) NW 323 ° 0 min 0 W/m² 9,2 °C 10,0 °C 6,4 km/h (2 Bft)
03.10.2024 03:17 18,1 °C 9,9 °C 57 % 95 % 1013,8 hPa 0,0 l/m² 0,2 km/h (0 Bft) W 277 ° 0 min 0 W/m² 9,1 °C 9,9 °C 1,6 km/h (1 Bft)
03.10.2024 03:18 18,1 °C 9,9 °C 57 % 95 % 1013,8 hPa 0,0 l/m² 5,0 km/h (1 Bft) N-NW 342 ° 0 min 0 W/m² 9,1 °C 9,9 °C 8,0 km/h (2 Bft)
03.10.2024 03:19 18,1 °C 10,0 °C 57 % 95 % 1013,8 hPa 0,0 l/m² 4,4 km/h (1 Bft) NW 316 ° 0 min 0 W/m² 9,2 °C 10,0 °C 6,4 km/h (2 Bft)
03.10.2024 03:21 18,1 °C 10,0 °C 57 % 95 % 1013,7 hPa 0,0 l/m² 5,7 km/h (2 Bft) NW 321 ° 0 min 0 W/m² 9,2 °C 10,0 °C 8,0 km/h (2 Bft)
03.10.2024 03:23 18,1 °C 9,9 °C 57 % 95 % 1013,8 hPa 0,0 l/m² 2,5 km/h (1 Bft) N-NW 331 ° 0 min 0 W/m² 9,1 °C 9,9 °C 6,4 km/h (2 Bft)
03.10.2024 03:24 18,1 °C 9,9 °C 57 % 95 % 1013,8 hPa 0,0 l/m² 3,6 km/h (1 Bft) N-NW 333 ° 0 min 0 W/m² 9,1 °C 9,9 °C 6,4 km/h (2 Bft)
03.10.2024 03:25 18,1 °C 9,9 °C 57 % 95 % 1013,8 hPa 0,0 l/m² 2,5 km/h (1 Bft) N-NW 337 ° 0 min 0 W/m² 9,1 °C 9,9 °C 6,4 km/h (2 Bft)
03.10.2024 03:26 18,1 °C 9,9 °C 57 % 95 % 1013,7 hPa 0,0 l/m² 5,0 km/h (1 Bft) NW 304 ° 0 min 0 W/m² 9,1 °C 9,9 °C 11,3 km/h (2 Bft)
03.10.2024 03:27 18,1 °C 9,9 °C 57 % 95 % 1013,7 hPa 0,0 l/m² 4,6 km/h (1 Bft) W-NW 292 ° 0 min 0 W/m² 9,1 °C 9,9 °C 8,0 km/h (2 Bft)
03.10.2024 03:28 18,1 °C 9,9 °C 57 % 95 % 1013,7 hPa 0,0 l/m² 3,4 km/h (1 Bft) NW 320 ° 0 min 0 W/m² 9,1 °C 9,9 °C 6,4 km/h (2 Bft)
03.10.2024 03:29 18,1 °C 9,9 °C 57 % 95 % 1013,7 hPa 0,0 l/m² 6,6 km/h (2 Bft) N-NW 339 ° 0 min 0 W/m² 9,1 °C 9,8 °C 9,7 km/h (2 Bft)
03.10.2024 03:31 18,1 °C 9,9 °C 57 % 95 % 1013,8 hPa 0,0 l/m² 6,1 km/h (2 Bft) NW 323 ° 0 min 0 W/m² 9,1 °C 9,9 °C 11,3 km/h (2 Bft)
03.10.2024 03:32 18,1 °C 9,9 °C 57 % 95 % 1013,8 hPa 0,0 l/m² 8,3 km/h (2 Bft) N-NW 338 ° 0 min 0 W/m² 9,1 °C 8,5 °C 12,9 km/h (3 Bft)
03.10.2024 03:33 18,1 °C 9,9 °C 57 % 95 % 1013,8 hPa 0,0 l/m² 5,4 km/h (2 Bft) N-NW 339 ° 0 min 0 W/m² 9,1 °C 9,9 °C 8,0 km/h (2 Bft)
03.10.2024 03:34 18,1 °C 9,9 °C 57 % 95 % 1013,8 hPa 0,0 l/m² 8,6 km/h (2 Bft) NW 323 ° 0 min 0 W/m² 9,1 °C 8,3 °C 12,9 km/h (3 Bft)
03.10.2024 03:35 18,1 °C 9,9 °C 57 % 95 % 1013,9 hPa 0,0 l/m² 5,6 km/h (2 Bft) N-NW 347 ° 0 min 0 W/m² 9,1 °C 9,9 °C 8,0 km/h (2 Bft)
03.10.2024 03:36 18,1 °C 9,9 °C 57 % 95 % 1013,9 hPa 0,0 l/m² 7,3 km/h (2 Bft) N-NW 344 ° 0 min 0 W/m² 9,1 °C 9,2 °C 14,5 km/h (3 Bft)
03.10.2024 03:37 18,1 °C 9,8 °C 57 % 95 % 1013,9 hPa 0,0 l/m² 8,8 km/h (2 Bft) N-NW 347 ° 0 min 0 W/m² 9,0 °C 8,1 °C 12,9 km/h (3 Bft)
03.10.2024 03:38 18,1 °C 9,9 °C 57 % 95 % 1013,9 hPa 0,0 l/m² 2,7 km/h (1 Bft) N 11 ° 0 min 0 W/m² 9,1 °C 9,9 °C 6,4 km/h (2 Bft)
03.10.2024 03:39 18,1 °C 9,8 °C 57 % 95 % 1013,8 hPa 0,0 l/m² 7,2 km/h (2 Bft) N-NW 346 ° 0 min 0 W/m² 9,0 °C 9,2 °C 12,9 km/h (3 Bft)
03.10.2024 03:41 18,1 °C 9,8 °C 57 % 95 % 1013,9 hPa 0,0 l/m² 6,5 km/h (2 Bft) N-NW 346 ° 0 min 0 W/m² 9,0 °C 9,8 °C 12,9 km/h (3 Bft)
03.10.2024 03:43 18,1 °C 9,8 °C 57 % 95 % 1013,8 hPa 0,0 l/m² 7,4 km/h (2 Bft) N-NW 332 ° 0 min 0 W/m² 9,0 °C 9,1 °C 12,9 km/h (3 Bft)
03.10.2024 03:44 18,1 °C 9,8 °C 57 % 95 % 1013,8 hPa 0,0 l/m² 1,7 km/h (1 Bft) N-NW 327 ° 0 min 0 W/m² 9,0 °C 9,8 °C 3,2 km/h (1 Bft)
03.10.2024 03:46 18,1 °C 9,8 °C 57 % 95 % 1013,9 hPa 0,0 l/m² 4,3 km/h (1 Bft) N-NW 329 ° 0 min 0 W/m² 9,0 °C 9,8 °C 8,0 km/h (2 Bft)
03.10.2024 03:47 18,1 °C 9,8 °C 57 % 95 % 1013,9 hPa 0,0 l/m² 5,4 km/h (2 Bft) N-NW 346 ° 0 min 0 W/m² 9,0 °C 9,8 °C 8,0 km/h (2 Bft)
03.10.2024 03:48 18,1 °C 9,8 °C 57 % 95 % 1013,9 hPa 0,0 l/m² 5,9 km/h (2 Bft) N-NW 336 ° 0 min 0 W/m² 9,0 °C 9,8 °C 8,0 km/h (2 Bft)
03.10.2024 03:49 18,1 °C 9,8 °C 57 % 95 % 1013,9 hPa 0,0 l/m² 4,8 km/h (1 Bft) N-NW 341 ° 0 min 0 W/m² 9,0 °C 9,8 °C 6,4 km/h (2 Bft)
03.10.2024 03:50 18,1 °C 9,8 °C 57 % 95 % 1013,9 hPa 0,0 l/m² 3,6 km/h (1 Bft) N-NW 337 ° 0 min 0 W/m² 9,0 °C 9,8 °C 6,4 km/h (2 Bft)
03.10.2024 03:52 18,1 °C 9,8 °C 57 % 95 % 1013,9 hPa 0,0 l/m² 1,8 km/h (1 Bft) N-NW 327 ° 0 min 0 W/m² 9,0 °C 9,8 °C 6,4 km/h (2 Bft)
03.10.2024 03:53 18,1 °C 9,8 °C 57 % 95 % 1013,9 hPa 0,0 l/m² 1,7 km/h (1 Bft) NW 323 ° 0 min 0 W/m² 9,0 °C 9,8 °C 4,8 km/h (1 Bft)
03.10.2024 03:54 18,1 °C 9,8 °C 57 % 95 % 1013,9 hPa 0,0 l/m² 0,6 km/h (0 Bft) N-NW 329 ° 0 min 0 W/m² 9,0 °C 9,8 °C 3,2 km/h (1 Bft)
03.10.2024 03:55 18,1 °C 9,8 °C 57 % 95 % 1013,9 hPa 0,0 l/m² 1,9 km/h (1 Bft) N-NW 334 ° 0 min 0 W/m² 9,0 °C 9,8 °C 6,4 km/h (2 Bft)
03.10.2024 03:56 18,1 °C 9,8 °C 57 % 95 % 1013,9 hPa 0,0 l/m² 2,5 km/h (1 Bft) NW 323 ° 0 min 0 W/m² 9,0 °C 9,8 °C 6,4 km/h (2 Bft)
03.10.2024 03:57 18,1 °C 9,8 °C 57 % 95 % 1014,0 hPa 0,0 l/m² 0,9 km/h (0 Bft) N-NW 336 ° 0 min 0 W/m² 9,0 °C 9,8 °C 3,2 km/h (1 Bft)
03.10.2024 03:58 18,1 °C 9,8 °C 57 % 95 % 1013,9 hPa 0,0 l/m² 4,2 km/h (1 Bft) N-NW 340 ° 0 min 0 W/m² 9,0 °C 9,8 °C 8,0 km/h (2 Bft)
03.10.2024 03:59 18,1 °C 9,8 °C 57 % 95 % 1013,9 hPa 0,0 l/m² 4,3 km/h (1 Bft) NW 325 ° 0 min 0 W/m² 9,0 °C 9,8 °C 6,4 km/h (2 Bft)
03.10.2024 04:01 18,1 °C 9,8 °C 57 % 95 % 1013,9 hPa 0,0 l/m² 3,5 km/h (1 Bft) W-NW 303 ° 0 min 0 W/m² 9,0 °C 9,8 °C 8,0 km/h (2 Bft)
03.10.2024 04:03 18,1 °C 9,8 °C 57 % 95 % 1013,9 hPa 0,0 l/m² 2,7 km/h (1 Bft) N-NW 335 ° 0 min 0 W/m² 9,0 °C 9,8 °C 11,3 km/h (2 Bft)
03.10.2024 04:04 18,1 °C 9,8 °C 57 % 95 % 1014,0 hPa 0,0 l/m² 1,3 km/h (1 Bft) N 355 ° 0 min 0 W/m² 9,0 °C 9,8 °C 6,4 km/h (2 Bft)
03.10.2024 04:05 18,1 °C 9,8 °C 57 % 95 % 1014,0 hPa 0,0 l/m² 1,2 km/h (1 Bft) N-NW 338 ° 0 min 0 W/m² 9,0 °C 9,8 °C 6,4 km/h (2 Bft)
03.10.2024 04:06 18,1 °C 9,8 °C 57 % 95 % 1013,9 hPa 0,0 l/m² 5,6 km/h (2 Bft) NW 325 ° 0 min 0 W/m² 9,0 °C 9,8 °C 8,0 km/h (2 Bft)
03.10.2024 04:07 18,1 °C 9,8 °C 57 % 95 % 1014,0 hPa 0,0 l/m² 1,3 km/h (1 Bft) N-NW 341 ° 0 min 0 W/m² 9,0 °C 9,8 °C 3,2 km/h (1 Bft)
03.10.2024 04:08 18,1 °C 9,8 °C 57 % 95 % 1013,9 hPa 0,0 l/m² 4,4 km/h (1 Bft) N-NW 328 ° 0 min 0 W/m² 9,0 °C 9,8 °C 6,4 km/h (2 Bft)
03.10.2024 04:09 18,1 °C 9,8 °C 57 % 95 % 1013,9 hPa 0,0 l/m² 2,0 km/h (1 Bft) N-NW 341 ° 0 min 0 W/m² 9,0 °C 9,8 °C 6,4 km/h (2 Bft)
03.10.2024 04:11 18,0 °C 9,8 °C 57 % 95 % 1013,9 hPa 0,0 l/m² 1,0 km/h (0 Bft) N-NW 334 ° 0 min 0 W/m² 9,0 °C 9,8 °C 6,4 km/h (2 Bft)
03.10.2024 04:12 18,1 °C 9,8 °C 57 % 95 % 1013,9 hPa 0,0 l/m² 3,8 km/h (1 Bft) N-NW 344 ° 0 min 0 W/m² 9,0 °C 9,8 °C 8,0 km/h (2 Bft)
03.10.2024 04:13 18,1 °C 9,8 °C 57 % 95 % 1013,9 hPa 0,0 l/m² 1,1 km/h (1 Bft) N-NW 327 ° 0 min 0 W/m² 9,0 °C 9,8 °C 6,4 km/h (2 Bft)
03.10.2024 04:14 18,1 °C 9,8 °C 57 % 95 % 1014,0 hPa 0,0 l/m² 3,8 km/h (1 Bft) NW 326 ° 0 min 0 W/m² 9,0 °C 9,8 °C 8,0 km/h (2 Bft)
03.10.2024 04:15 18,1 °C 9,8 °C 57 % 95 % 1014,0 hPa 0,0 l/m² 2,5 km/h (1 Bft) N-NW 328 ° 0 min 0 W/m² 9,0 °C 9,8 °C 9,7 km/h (2 Bft)
03.10.2024 04:16 18,1 °C 9,8 °C 57 % 95 % 1013,9 hPa 0,0 l/m² 7,6 km/h (2 Bft) N 355 ° 0 min 0 W/m² 9,0 °C 8,9 °C 9,7 km/h (2 Bft)
03.10.2024 04:17 18,1 °C 9,8 °C 57 % 95 % 1014,0 hPa 0,0 l/m² 3,5 km/h (1 Bft) N-NW 343 ° 0 min 0 W/m² 9,0 °C 9,8 °C 6,4 km/h (2 Bft)
03.10.2024 04:18 18,1 °C 9,8 °C 57 % 95 % 1014,0 hPa 0,0 l/m² 2,6 km/h (1 Bft) N-NW 342 ° 0 min 0 W/m² 9,0 °C 9,8 °C 4,8 km/h (1 Bft)
03.10.2024 04:19 18,1 °C 9,8 °C 57 % 95 % 1014,0 hPa 0,0 l/m² 1,5 km/h (1 Bft) N-NW 347 ° 0 min 0 W/m² 9,0 °C 9,8 °C 4,8 km/h (1 Bft)
03.10.2024 04:20 18,1 °C 9,8 °C 57 % 95 % 1014,0 hPa 0,0 l/m² 2,6 km/h (1 Bft) N-NO 15 ° 0 min 0 W/m² 9,0 °C 9,8 °C 4,8 km/h (1 Bft)
03.10.2024 04:22 18,1 °C 9,8 °C 57 % 95 % 1013,9 hPa 0,0 l/m² 4,9 km/h (1 Bft) NW 324 ° 0 min 0 W/m² 9,0 °C 9,8 °C 6,4 km/h (2 Bft)
03.10.2024 04:23 18,1 °C 9,8 °C 57 % 95 % 1013,9 hPa 0,0 l/m² 3,1 km/h (1 Bft) N-NW 338 ° 0 min 0 W/m² 9,0 °C 9,8 °C 6,4 km/h (2 Bft)
03.10.2024 04:24 18,1 °C 9,8 °C 57 % 95 % 1013,9 hPa 0,0 l/m² 4,0 km/h (1 Bft) N-NW 342 ° 0 min 0 W/m² 9,0 °C 9,8 °C 8,0 km/h (2 Bft)
03.10.2024 04:25 18,1 °C 9,8 °C 57 % 95 % 1013,9 hPa 0,0 l/m² 4,4 km/h (1 Bft) NW 308 ° 0 min 0 W/m² 9,0 °C 9,8 °C 8,0 km/h (2 Bft)
03.10.2024 04:26 18,1 °C 9,8 °C 57 % 95 % 1013,9 hPa 0,0 l/m² 4,5 km/h (1 Bft) N-NW 342 ° 0 min 0 W/m² 9,0 °C 9,8 °C 8,0 km/h (2 Bft)
03.10.2024 04:27 18,1 °C 9,8 °C 57 % 95 % 1013,9 hPa 0,0 l/m² 2,2 km/h (1 Bft) N-NW 336 ° 0 min 0 W/m² 9,0 °C 9,8 °C 4,8 km/h (1 Bft)
03.10.2024 04:28 18,1 °C 9,8 °C 57 % 95 % 1013,9 hPa 0,0 l/m² 3,9 km/h (1 Bft) N-NW 347 ° 0 min 0 W/m² 9,0 °C 9,8 °C 8,0 km/h (2 Bft)
03.10.2024 04:29 18,1 °C 9,8 °C 57 % 95 % 1013,9 hPa 0,0 l/m² 6,4 km/h (2 Bft) N-NW 340 ° 0 min 0 W/m² 9,0 °C 9,8 °C 8,0 km/h (2 Bft)
03.10.2024 04:30 18,1 °C 9,8 °C 57 % 95 % 1013,9 hPa 0,0 l/m² 7,0 km/h (2 Bft) N-NW 348 ° 0 min 0 W/m² 9,0 °C 9,4 °C 9,7 km/h (2 Bft)
03.10.2024 04:32 18,0 °C 9,8 °C 57 % 95 % 1013,9 hPa 0,0 l/m² 6,1 km/h (2 Bft) N 355 ° 0 min 0 W/m² 9,0 °C 9,8 °C 12,9 km/h (3 Bft)
03.10.2024 04:34 18,1 °C 9,8 °C 57 % 95 % 1013,8 hPa 0,0 l/m² 4,5 km/h (1 Bft) W-NW 287 ° 0 min 0 W/m² 9,0 °C 9,8 °C 8,0 km/h (2 Bft)
03.10.2024 04:35 18,1 °C 9,8 °C 57 % 95 % 1013,8 hPa 0,0 l/m² 6,7 km/h (2 Bft) N 355 ° 0 min 0 W/m² 9,0 °C 9,6 °C 9,7 km/h (2 Bft)
03.10.2024 04:36 18,1 °C 9,8 °C 57 % 95 % 1013,9 hPa 0,0 l/m² 2,6 km/h (1 Bft) NW 304 ° 0 min 0 W/m² 9,0 °C 9,8 °C 6,4 km/h (2 Bft)
03.10.2024 04:37 18,1 °C 9,9 °C 57 % 95 % 1013,9 hPa 0,0 l/m² 0,6 km/h (0 Bft) NW 313 ° 0 min 0 W/m² 9,1 °C 9,9 °C 3,2 km/h (1 Bft)
03.10.2024 04:38 18,1 °C 9,8 °C 57 % 95 % 1013,8 hPa 0,0 l/m² 3,6 km/h (1 Bft) N-NW 333 ° 0 min 0 W/m² 9,0 °C 9,8 °C 6,4 km/h (2 Bft)
03.10.2024 04:39 18,1 °C 9,9 °C 57 % 95 % 1013,9 hPa 0,0 l/m² 3,2 km/h (1 Bft) NW 306 ° 0 min 0 W/m² 9,1 °C 9,9 °C 6,4 km/h (2 Bft)
03.10.2024 04:40 18,1 °C 9,9 °C 57 % 95 % 1013,9 hPa 0,0 l/m² 1,1 km/h (1 Bft) N-NW 341 ° 0 min 0 W/m² 9,1 °C 9,9 °C 4,8 km/h (1 Bft)
03.10.2024 04:42 18,1 °C 9,9 °C 57 % 95 % 1013,9 hPa 0,0 l/m² 0,7 km/h (0 Bft) N-NW 327 ° 0 min 0 W/m² 9,1 °C 9,9 °C 3,2 km/h (1 Bft)
03.10.2024 04:43 18,0 °C 9,9 °C 57 % 95 % 1013,9 hPa 0,0 l/m² 0,0 km/h (0 Bft) NW 312 ° 0 min 0 W/m² 9,1 °C 9,9 °C 0,0 km/h (0 Bft)
03.10.2024 04:44 18,1 °C 9,9 °C 57 % 94 % 1013,9 hPa 0,0 l/m² 2,6 km/h (1 Bft) NW 326 ° 0 min 0 W/m² 9,0 °C 9,9 °C 6,4 km/h (2 Bft)
03.10.2024 04:45 18,1 °C 9,9 °C 57 % 95 % 1013,9 hPa 0,0 l/m² 1,7 km/h (1 Bft) NW 307 ° 0 min 0 W/m² 9,1 °C 9,9 °C 4,8 km/h (1 Bft)
03.10.2024 04:46 18,1 °C 9,9 °C 57 % 95 % 1013,9 hPa 0,0 l/m² 1,5 km/h (1 Bft) N-NW 340 ° 0 min 0 W/m² 9,1 °C 9,9 °C 8,0 km/h (2 Bft)
03.10.2024 04:47 18,1 °C 9,9 °C 57 % 95 % 1013,9 hPa 0,0 l/m² 0,5 km/h (0 Bft) W-NW 296 ° 0 min 0 W/m² 9,1 °C 9,9 °C 3,2 km/h (1 Bft)
03.10.2024 04:48 18,1 °C 9,9 °C 57 % 94 % 1013,9 hPa 0,0 l/m² 1,2 km/h (1 Bft) W-NW 302 ° 0 min 0 W/m² 9,0 °C 9,9 °C 4,8 km/h (1 Bft)
03.10.2024 04:49 18,0 °C 9,9 °C 57 % 94 % 1013,8 hPa 0,0 l/m² 3,3 km/h (1 Bft) NW 317 ° 0 min 0 W/m² 9,0 °C 9,9 °C 6,4 km/h (2 Bft)
03.10.2024 04:50 18,1 °C 9,9 °C 57 % 94 % 1013,9 hPa 0,0 l/m² 5,8 km/h (2 Bft) NW 321 ° 0 min 0 W/m² 9,0 °C 9,9 °C 9,7 km/h (2 Bft)
03.10.2024 04:52 18,1 °C 9,9 °C 57 % 94 % 1013,9 hPa 0,0 l/m² 2,6 km/h (1 Bft) NW 307 ° 0 min 0 W/m² 9,0 °C 9,9 °C 8,0 km/h (2 Bft)
03.10.2024 04:54 18,0 °C 9,9 °C 57 % 95 % 1013,9 hPa 0,0 l/m² 1,5 km/h (1 Bft) NW 322 ° 0 min 0 W/m² 9,1 °C 9,9 °C 8,0 km/h (2 Bft)
03.10.2024 04:55 18,0 °C 9,9 °C 57 % 94 % 1013,9 hPa 0,0 l/m² 0,3 km/h (0 Bft) NW 310 ° 0 min 0 W/m² 9,0 °C 9,9 °C 3,2 km/h (1 Bft)
03.10.2024 04:56 18,0 °C 9,9 °C 57 % 94 % 1013,9 hPa 0,0 l/m² 2,8 km/h (1 Bft) N-NW 335 ° 0 min 0 W/m² 9,0 °C 9,9 °C 4,8 km/h (1 Bft)
03.10.2024 04:57 18,0 °C 9,9 °C 57 % 94 % 1013,9 hPa 0,0 l/m² 1,9 km/h (1 Bft) W 280 ° 0 min 0 W/m² 9,0 °C 9,9 °C 6,4 km/h (2 Bft)
03.10.2024 04:58 18,0 °C 9,9 °C 57 % 94 % 1013,9 hPa 0,0 l/m² 4,9 km/h (1 Bft) N 5 ° 0 min 0 W/m² 9,0 °C 9,9 °C 9,7 km/h (2 Bft)
03.10.2024 04:59 18,0 °C 9,9 °C 57 % 94 % 1013,9 hPa 0,0 l/m² 4,4 km/h (1 Bft) NW 321 ° 0 min 0 W/m² 9,0 °C 9,9 °C 8,0 km/h (2 Bft)
03.10.2024 05:00 18,0 °C 9,9 °C 57 % 94 % 1013,8 hPa 0,0 l/m² 6,3 km/h (2 Bft) N-NW 342 ° 0 min 0 W/m² 9,0 °C 9,9 °C 9,7 km/h (2 Bft)
03.10.2024 05:01 18,0 °C 9,9 °C 57 % 94 % 1013,9 hPa 0,0 l/m² 5,1 km/h (1 Bft) N 355 ° 0 min 0 W/m² 9,0 °C 9,9 °C 8,0 km/h (2 Bft)
03.10.2024 05:02 18,0 °C 9,9 °C 57 % 95 % 1013,9 hPa 0,0 l/m² 4,7 km/h (1 Bft) N-NW 327 ° 0 min 0 W/m² 9,1 °C 9,9 °C 8,0 km/h (2 Bft)
03.10.2024 05:03 18,0 °C 9,9 °C 57 % 94 % 1013,8 hPa 0,0 l/m² 5,1 km/h (1 Bft) N-NW 328 ° 0 min 0 W/m² 9,0 °C 9,9 °C 8,0 km/h (2 Bft)
03.10.2024 05:04 18,0 °C 9,9 °C 57 % 94 % 1013,7 hPa 0,0 l/m² 5,4 km/h (2 Bft) N-NW 346 ° 0 min 0 W/m² 9,0 °C 9,9 °C 8,0 km/h (2 Bft)
03.10.2024 05:05 18,0 °C 9,9 °C 57 % 95 % 1013,7 hPa 0,0 l/m² 5,7 km/h (2 Bft) N-NW 338 ° 0 min 0 W/m² 9,1 °C 9,9 °C 9,7 km/h (2 Bft)
03.10.2024 05:06 18,1 °C 9,9 °C 57 % 94 % 1013,9 hPa 0,0 l/m² 4,6 km/h (1 Bft) NW 326 ° 0 min 0 W/m² 9,0 °C 9,9 °C 8,0 km/h (2 Bft)
03.10.2024 05:07 18,0 °C 9,9 °C 57 % 95 % 1013,9 hPa 0,0 l/m² 6,6 km/h (2 Bft) N-NW 330 ° 0 min 0 W/m² 9,1 °C 9,8 °C 8,0 km/h (2 Bft)
03.10.2024 05:08 18,0 °C 9,9 °C 57 % 95 % 1013,8 hPa 0,0 l/m² 1,9 km/h (1 Bft) N 355 ° 0 min 0 W/m² 9,1 °C 9,9 °C 4,8 km/h (1 Bft)
03.10.2024 05:09 18,1 °C 9,9 °C 57 % 95 % 1013,9 hPa 0,0 l/m² 5,4 km/h (2 Bft) N-NW 333 ° 0 min 0 W/m² 9,1 °C 9,9 °C 9,7 km/h (2 Bft)
03.10.2024 05:10 18,0 °C 9,9 °C 57 % 95 % 1014,0 hPa 0,0 l/m² 6,6 km/h (2 Bft) N-NW 338 ° 0 min 0 W/m² 9,1 °C 9,8 °C 12,9 km/h (3 Bft)
03.10.2024 05:11 18,0 °C 9,9 °C 57 % 95 % 1013,9 hPa 0,0 l/m² 5,7 km/h (2 Bft) N-NW 332 ° 0 min 0 W/m² 9,1 °C 9,9 °C 8,0 km/h (2 Bft)
03.10.2024 05:12 18,0 °C 9,9 °C 57 % 95 % 1013,9 hPa 0,0 l/m² 4,6 km/h (1 Bft) N-NW 328 ° 0 min 0 W/m² 9,1 °C 9,9 °C 8,0 km/h (2 Bft)
03.10.2024 05:13 18,0 °C 9,9 °C 57 % 95 % 1013,9 hPa 0,0 l/m² 2,5 km/h (1 Bft) NW 317 ° 0 min 0 W/m² 9,1 °C 9,9 °C 4,8 km/h (1 Bft)
03.10.2024 05:14 18,0 °C 9,9 °C 57 % 95 % 1014,0 hPa 0,0 l/m² 0,7 km/h (0 Bft) N-NW 339 ° 0 min 0 W/m² 9,1 °C 9,9 °C 3,2 km/h (1 Bft)
03.10.2024 05:15 18,0 °C 9,9 °C 57 % 95 % 1014,0 hPa 0,0 l/m² 1,2 km/h (1 Bft) NW 316 ° 0 min 0 W/m² 9,1 °C 9,9 °C 3,2 km/h (1 Bft)
03.10.2024 05:16 18,0 °C 9,9 °C 57 % 95 % 1013,9 hPa 0,0 l/m² 0,4 km/h (0 Bft) W-NW 292 ° 0 min 0 W/m² 9,1 °C 9,9 °C 1,6 km/h (1 Bft)
03.10.2024 05:17 18,1 °C 9,9 °C 57 % 95 % 1013,9 hPa 0,0 l/m² 4,4 km/h (1 Bft) N-NW 336 ° 0 min 0 W/m² 9,1 °C 9,9 °C 9,7 km/h (2 Bft)
03.10.2024 05:18 18,0 °C 9,9 °C 57 % 95 % 1014,0 hPa 0,0 l/m² 6,5 km/h (2 Bft) N-NW 345 ° 0 min 0 W/m² 9,1 °C 9,9 °C 12,9 km/h (3 Bft)
03.10.2024 05:19 18,0 °C 9,9 °C 57 % 95 % 1013,9 hPa 0,0 l/m² 8,9 km/h (2 Bft) N-NW 335 ° 0 min 0 W/m² 9,1 °C 8,2 °C 12,9 km/h (3 Bft)
03.10.2024 05:20 18,0 °C 9,9 °C 57 % 95 % 1013,9 hPa 0,0 l/m² 4,3 km/h (1 Bft) NW 317 ° 0 min 0 W/m² 9,1 °C 9,9 °C 8,0 km/h (2 Bft)
03.10.2024 05:21 18,0 °C 9,9 °C 57 % 95 % 1013,9 hPa 0,0 l/m² 3,8 km/h (1 Bft) N-NW 340 ° 0 min 0 W/m² 9,1 °C 9,9 °C 8,0 km/h (2 Bft)
03.10.2024 05:22 18,0 °C 9,9 °C 57 % 95 % 1013,9 hPa 0,0 l/m² 8,0 km/h (2 Bft) N-NW 329 ° 0 min 0 W/m² 9,1 °C 8,7 °C 14,5 km/h (3 Bft)
03.10.2024 05:23 18,0 °C 9,9 °C 57 % 95 % 1013,9 hPa 0,0 l/m² 6,6 km/h (2 Bft) N-NW 346 ° 0 min 0 W/m² 9,1 °C 9,8 °C 9,7 km/h (2 Bft)
03.10.2024 05:24 18,0 °C 9,9 °C 57 % 95 % 1014,0 hPa 0,0 l/m² 6,7 km/h (2 Bft) N-NW 336 ° 0 min 0 W/m² 9,1 °C 9,7 °C 9,7 km/h (2 Bft)
03.10.2024 05:25 18,0 °C 9,9 °C 57 % 94 % 1013,9 hPa 0,0 l/m² 7,2 km/h (2 Bft) N-NW 331 ° 0 min 0 W/m² 9,0 °C 9,3 °C 11,3 km/h (2 Bft)
03.10.2024 05:26 18,0 °C 9,9 °C 57 % 95 % 1013,9 hPa 0,0 l/m² 4,5 km/h (1 Bft) N-NW 331 ° 0 min 0 W/m² 9,1 °C 9,9 °C 6,4 km/h (2 Bft)
03.10.2024 05:27 18,0 °C 9,9 °C 57 % 94 % 1013,9 hPa 0,0 l/m² 7,0 km/h (2 Bft) NW 318 ° 0 min 0 W/m² 9,0 °C 9,5 °C 9,7 km/h (2 Bft)
03.10.2024 05:28 18,0 °C 9,9 °C 57 % 94 % 1013,9 hPa 0,0 l/m² 5,8 km/h (2 Bft) NW 321 ° 0 min 0 W/m² 9,0 °C 9,9 °C 8,0 km/h (2 Bft)
03.10.2024 05:29 18,0 °C 9,9 °C 57 % 95 % 1013,9 hPa 0,0 l/m² 4,3 km/h (1 Bft) N-NW 333 ° 0 min 0 W/m² 9,1 °C 9,9 °C 6,4 km/h (2 Bft)
03.10.2024 05:30 18,0 °C 9,9 °C 57 % 94 % 1013,9 hPa 0,0 l/m² 6,4 km/h (2 Bft) N-NW 336 ° 0 min 0 W/m² 9,0 °C 9,9 °C 9,7 km/h (2 Bft)
03.10.2024 05:31 18,0 °C 9,9 °C 57 % 95 % 1014,0 hPa 0,0 l/m² 4,8 km/h (1 Bft) N-NW 335 ° 0 min 0 W/m² 9,1 °C 9,9 °C 8,0 km/h (2 Bft)
03.10.2024 05:32 18,1 °C 9,9 °C 57 % 94 % 1013,9 hPa 0,0 l/m² 5,0 km/h (1 Bft) N-NW 330 ° 0 min 0 W/m² 9,0 °C 9,9 °C 8,0 km/h (2 Bft)
03.10.2024 05:33 18,0 °C 9,9 °C 57 % 94 % 1014,0 hPa 0,0 l/m² 2,4 km/h (1 Bft) NW 320 ° 0 min 0 W/m² 9,0 °C 9,9 °C 4,8 km/h (1 Bft)
03.10.2024 05:34 18,0 °C 9,9 °C 57 % 94 % 1014,0 hPa 0,0 l/m² 0,2 km/h (0 Bft) N-NW 333 ° 0 min 0 W/m² 9,0 °C 9,9 °C 1,6 km/h (1 Bft)
03.10.2024 05:35 18,0 °C 10,0 °C 57 % 94 % 1013,9 hPa 0,0 l/m² 2,2 km/h (1 Bft) N-NW 334 ° 0 min 0 W/m² 9,1 °C 10,0 °C 6,4 km/h (2 Bft)
03.10.2024 05:36 18,0 °C 9,9 °C 57 % 94 % 1014,0 hPa 0,0 l/m² 6,2 km/h (2 Bft) N-NW 328 ° 0 min 0 W/m² 9,0 °C 9,9 °C 9,7 km/h (2 Bft)
03.10.2024 05:37 18,0 °C 10,0 °C 57 % 94 % 1014,0 hPa 0,0 l/m² 5,5 km/h (2 Bft) N-NW 335 ° 0 min 0 W/m² 9,1 °C 10,0 °C 8,0 km/h (2 Bft)
03.10.2024 05:38 18,0 °C 9,9 °C 57 % 94 % 1013,9 hPa 0,0 l/m² 5,7 km/h (2 Bft) N-NW 344 ° 0 min 0 W/m² 9,0 °C 9,9 °C 12,9 km/h (3 Bft)
03.10.2024 05:39 18,0 °C 9,9 °C 57 % 94 % 1013,9 hPa 0,0 l/m² 8,6 km/h (2 Bft) N-NW 335 ° 0 min 0 W/m² 9,0 °C 8,3 °C 14,5 km/h (3 Bft)
03.10.2024 05:40 18,0 °C 9,9 °C 57 % 94 % 1014,0 hPa 0,0 l/m² 6,2 km/h (2 Bft) W-NW 292 ° 0 min 0 W/m² 9,0 °C 9,9 °C 9,7 km/h (2 Bft)
03.10.2024 05:41 18,0 °C 9,9 °C 57 % 94 % 1014,0 hPa 0,2 l/m² 7,4 km/h (2 Bft) N-NW 340 ° 0 min 0 W/m² 9,0 °C 9,2 °C 12,9 km/h (3 Bft)
03.10.2024 05:42 18,0 °C 9,9 °C 57 % 94 % 1014,0 hPa 0,0 l/m² 5,5 km/h (2 Bft) N-NW 331 ° 0 min 0 W/m² 9,0 °C 9,9 °C 8,0 km/h (2 Bft)
03.10.2024 05:43 18,0 °C 9,9 °C 57 % 94 % 1014,0 hPa 0,0 l/m² 5,4 km/h (2 Bft) NW 316 ° 0 min 0 W/m² 9,0 °C 9,9 °C 8,0 km/h (2 Bft)
03.10.2024 05:44 18,0 °C 9,9 °C 57 % 94 % 1014,0 hPa 0,0 l/m² 4,6 km/h (1 Bft) NW 326 ° 0 min 0 W/m² 9,0 °C 9,9 °C 8,0 km/h (2 Bft)
03.10.2024 05:45 18,0 °C 9,9 °C 57 % 94 % 1014,0 hPa 0,0 l/m² 7,6 km/h (2 Bft) N 349 ° 0 min 0 W/m² 9,0 °C 9,0 °C 14,5 km/h (3 Bft)
03.10.2024 05:46 18,0 °C 9,9 °C 57 % 94 % 1014,0 hPa 0,0 l/m² 6,3 km/h (2 Bft) N-NW 340 ° 0 min 0 W/m² 9,0 °C 9,9 °C 8,0 km/h (2 Bft)
03.10.2024 05:47 18,0 °C 9,9 °C 57 % 94 % 1014,0 hPa 0,0 l/m² 7,6 km/h (2 Bft) N-NW 334 ° 0 min 0 W/m² 9,0 °C 9,0 °C 9,7 km/h (2 Bft)
03.10.2024 05:48 18,0 °C 9,9 °C 57 % 94 % 1014,0 hPa 0,0 l/m² 6,8 km/h (2 Bft) N-NW 342 ° 0 min 0 W/m² 9,0 °C 9,6 °C 12,9 km/h (3 Bft)
03.10.2024 05:49 18,0 °C 9,9 °C 57 % 94 % 1014,0 hPa 0,0 l/m² 7,7 km/h (2 Bft) W-NW 302 ° 0 min 0 W/m² 9,0 °C 9,0 °C 11,3 km/h (2 Bft)
03.10.2024 05:50 18,0 °C 9,9 °C 57 % 94 % 1014,0 hPa 0,0 l/m² 5,1 km/h (1 Bft) N-NW 339 ° 0 min 0 W/m² 9,0 °C 9,9 °C 8,0 km/h (2 Bft)
03.10.2024 05:51 18,0 °C 9,9 °C 57 % 94 % 1014,0 hPa 0,0 l/m² 3,6 km/h (1 Bft) NW 309 ° 0 min 0 W/m² 9,0 °C 9,9 °C 6,4 km/h (2 Bft)
03.10.2024 05:52 17,9 °C 9,9 °C 57 % 94 % 1014,0 hPa 0,0 l/m² 5,0 km/h (1 Bft) N-NW 341 ° 0 min 0 W/m² 9,0 °C 9,9 °C 8,0 km/h (2 Bft)
03.10.2024 05:53 18,0 °C 9,9 °C 57 % 94 % 1014,0 hPa 0,0 l/m² 3,2 km/h (1 Bft) N-NW 335 ° 0 min 0 W/m² 9,0 °C 9,9 °C 6,4 km/h (2 Bft)
03.10.2024 05:54 18,0 °C 9,9 °C 57 % 94 % 1014,0 hPa 0,0 l/m² 3,3 km/h (1 Bft) N-NW 331 ° 0 min 0 W/m² 9,0 °C 9,9 °C 8,0 km/h (2 Bft)
03.10.2024 05:55 18,0 °C 9,9 °C 57 % 94 % 1014,1 hPa 0,0 l/m² 5,7 km/h (2 Bft) N-NW 344 ° 0 min 0 W/m² 9,0 °C 9,9 °C 8,0 km/h (2 Bft)
03.10.2024 05:56 18,0 °C 9,9 °C 57 % 94 % 1014,0 hPa 0,0 l/m² 4,4 km/h (1 Bft) N-NW 333 ° 0 min 0 W/m² 9,0 °C 9,9 °C 8,0 km/h (2 Bft)
03.10.2024 05:57 18,0 °C 9,9 °C 57 % 94 % 1014,0 hPa 0,0 l/m² 1,7 km/h (1 Bft) NW 311 ° 0 min 0 W/m² 9,0 °C 9,9 °C 6,4 km/h (2 Bft)
03.10.2024 05:58 18,0 °C 9,9 °C 57 % 94 % 1014,0 hPa 0,0 l/m² 4,2 km/h (1 Bft) NW 323 ° 0 min 0 W/m² 9,0 °C 9,9 °C 8,0 km/h (2 Bft)
03.10.2024 05:59 18,0 °C 9,9 °C 57 % 94 % 1014,0 hPa 0,0 l/m² 4,6 km/h (1 Bft) N 350 ° 0 min 0 W/m² 9,0 °C 9,9 °C 9,7 km/h (2 Bft)
03.10.2024 06:00 18,0 °C 9,9 °C 57 % 94 % 1014,1 hPa 0,0 l/m² 7,3 km/h (2 Bft) NW 314 ° 0 min 0 W/m² 9,0 °C 9,2 °C 9,7 km/h (2 Bft)
03.10.2024 06:01 18,0 °C 9,9 °C 57 % 94 % 1014,1 hPa 0,0 l/m² 4,8 km/h (1 Bft) NW 311 ° 0 min 0 W/m² 9,0 °C 9,9 °C 9,7 km/h (2 Bft)
03.10.2024 06:02 18,0 °C 9,9 °C 57 % 94 % 1014,1 hPa 0,0 l/m² 6,7 km/h (2 Bft) NW 313 ° 0 min 0 W/m² 9,0 °C 9,7 °C 9,7 km/h (2 Bft)
03.10.2024 06:03 18,0 °C 9,9 °C 57 % 94 % 1014,0 hPa 0,0 l/m² 6,1 km/h (2 Bft) NW 320 ° 0 min 0 W/m² 9,0 °C 9,9 °C 8,0 km/h (2 Bft)
03.10.2024 06:04 18,0 °C 9,9 °C 57 % 94 % 1014,0 hPa 0,0 l/m² 5,7 km/h (2 Bft) NW 325 ° 0 min 0 W/m² 9,0 °C 9,9 °C 6,4 km/h (2 Bft)
03.10.2024 06:05 18,0 °C 9,9 °C 57 % 94 % 1014,1 hPa 0,0 l/m² 7,8 km/h (2 Bft) N 349 ° 0 min 0 W/m² 9,0 °C 8,9 °C 16,1 km/h (3 Bft)
03.10.2024 06:06 18,0 °C 9,9 °C 57 % 94 % 1014,1 hPa 0,0 l/m² 10,8 km/h (2 Bft) N-NW 336 ° 0 min 0 W/m² 9,0 °C 7,0 °C 16,1 km/h (3 Bft)
03.10.2024 06:07 18,0 °C 9,9 °C 57 % 94 % 1014,0 hPa 0,0 l/m² 9,7 km/h (2 Bft) N-NW 327 ° 0 min 0 W/m² 9,0 °C 7,7 °C 14,5 km/h (3 Bft)
03.10.2024 06:08 18,0 °C 9,9 °C 57 % 94 % 1014,1 hPa 0,0 l/m² 6,6 km/h (2 Bft) N 355 ° 0 min 0 W/m² 9,0 °C 9,8 °C 12,9 km/h (3 Bft)
03.10.2024 06:09 18,0 °C 9,9 °C 57 % 94 % 1014,0 hPa 0,0 l/m² 7,4 km/h (2 Bft) N-NW 338 ° 0 min 0 W/m² 9,0 °C 9,2 °C 14,5 km/h (3 Bft)
03.10.2024 06:10 18,0 °C 9,9 °C 57 % 94 % 1014,1 hPa 0,0 l/m² 5,2 km/h (1 Bft) N-NW 343 ° 0 min 0 W/m² 9,0 °C 9,9 °C 11,3 km/h (2 Bft)
03.10.2024 06:11 17,9 °C 9,9 °C 57 % 94 % 1014,1 hPa 0,0 l/m² 5,0 km/h (1 Bft) N-NW 334 ° 0 min 0 W/m² 9,0 °C 9,9 °C 8,0 km/h (2 Bft)
03.10.2024 06:12 18,0 °C 9,9 °C 57 % 94 % 1014,2 hPa 0,0 l/m² 3,9 km/h (1 Bft) N-NW 346 ° 0 min 0 W/m² 9,0 °C 9,9 °C 9,7 km/h (2 Bft)
03.10.2024 06:13 18,0 °C 9,9 °C 57 % 94 % 1014,1 hPa 0,0 l/m² 7,5 km/h (2 Bft) NW 313 ° 0 min 0 W/m² 9,0 °C 9,1 °C 14,5 km/h (3 Bft)
03.10.2024 06:14 18,0 °C 9,9 °C 57 % 94 % 1014,1 hPa 0,0 l/m² 5,8 km/h (2 Bft) NW 311 ° 0 min 0 W/m² 9,0 °C 9,9 °C 12,9 km/h (3 Bft)
03.10.2024 06:15 18,0 °C 9,9 °C 57 % 94 % 1014,1 hPa 0,0 l/m² 3,8 km/h (1 Bft) N-NW 341 ° 0 min 0 W/m² 9,0 °C 9,9 °C 6,4 km/h (2 Bft)
03.10.2024 06:16 18,0 °C 9,9 °C 57 % 94 % 1014,1 hPa 0,0 l/m² 6,4 km/h (2 Bft) NW 319 ° 0 min 0 W/m² 9,0 °C 9,9 °C 9,7 km/h (2 Bft)
03.10.2024 06:17 17,9 °C 9,9 °C 57 % 94 % 1014,1 hPa 0,0 l/m² 4,1 km/h (1 Bft) NW 321 ° 0 min 0 W/m² 9,0 °C 9,9 °C 9,7 km/h (2 Bft)
03.10.2024 06:18 18,0 °C 9,9 °C 57 % 94 % 1014,1 hPa 0,0 l/m² 6,6 km/h (2 Bft) NW 325 ° 0 min 0 W/m² 9,0 °C 9,8 °C 9,7 km/h (2 Bft)
03.10.2024 06:19 18,0 °C 9,9 °C 57 % 94 % 1014,1 hPa 0,0 l/m² 9,4 km/h (2 Bft) N-NW 327 ° 0 min 0 W/m² 9,0 °C 7,8 °C 16,1 km/h (3 Bft)
03.10.2024 06:20 18,0 °C 9,9 °C 57 % 94 % 1014,1 hPa 0,0 l/m² 7,5 km/h (2 Bft) N 355 ° 0 min 0 W/m² 9,0 °C 9,1 °C 12,9 km/h (3 Bft)
03.10.2024 06:21 17,9 °C 9,9 °C 57 % 94 % 1014,1 hPa 0,0 l/m² 10,8 km/h (2 Bft) NW 324 ° 0 min 0 W/m² 9,0 °C 7,0 °C 17,7 km/h (3 Bft)
03.10.2024 06:22 17,9 °C 9,9 °C 57 % 94 % 1014,2 hPa 0,0 l/m² 12,1 km/h (2 Bft) NW 318 ° 0 min 0 W/m² 9,0 °C 6,3 °C 17,7 km/h (3 Bft)
03.10.2024 06:23 18,0 °C 9,9 °C 57 % 94 % 1014,2 hPa 0,0 l/m² 6,5 km/h (2 Bft) N-NW 339 ° 0 min 0 W/m² 9,0 °C 9,9 °C 12,9 km/h (3 Bft)
03.10.2024 06:24 18,0 °C 9,9 °C 57 % 94 % 1014,2 hPa 0,0 l/m² 9,7 km/h (2 Bft) NW 323 ° 0 min 0 W/m² 9,0 °C 7,7 °C 14,5 km/h (3 Bft)
03.10.2024 06:25 17,9 °C 9,9 °C 57 % 94 % 1014,1 hPa 0,0 l/m² 8,4 km/h (2 Bft) N-NW 337 ° 0 min 0 W/m² 9,0 °C 8,5 °C 12,9 km/h (3 Bft)
03.10.2024 06:26 17,9 °C 9,9 °C 57 % 94 % 1014,1 hPa 0,0 l/m² 11,7 km/h (2 Bft) N-NW 331 ° 0 min 0 W/m² 9,0 °C 6,6 °C 17,7 km/h (3 Bft)
03.10.2024 06:27 18,0 °C 9,9 °C 57 % 94 % 1014,1 hPa 0,0 l/m² 11,9 km/h (2 Bft) N-NW 342 ° 0 min 0 W/m² 9,0 °C 6,4 °C 16,1 km/h (3 Bft)
03.10.2024 06:28 18,0 °C 9,9 °C 57 % 94 % 1014,1 hPa 0,0 l/m² 13,8 km/h (3 Bft) N-NW 346 ° 0 min 0 W/m² 9,0 °C 5,5 °C 19,3 km/h (3 Bft)
03.10.2024 06:29 17,9 °C 9,9 °C 57 % 94 % 1014,1 hPa 0,0 l/m² 12,1 km/h (2 Bft) N 351 ° 0 min 0 W/m² 9,0 °C 6,3 °C 16,1 km/h (3 Bft)
03.10.2024 06:30 17,9 °C 9,9 °C 57 % 94 % 1014,1 hPa 0,0 l/m² 7,4 km/h (2 Bft) NW 321 ° 0 min 0 W/m² 9,0 °C 9,2 °C 12,9 km/h (3 Bft)
03.10.2024 06:31 17,9 °C 9,9 °C 57 % 94 % 1014,1 hPa 0,0 l/m² 4,3 km/h (1 Bft) N-NW 344 ° 0 min 0 W/m² 9,0 °C 9,9 °C 6,4 km/h (2 Bft)
03.10.2024 06:32 18,0 °C 9,9 °C 57 % 94 % 1014,2 hPa 0,0 l/m² 3,6 km/h (1 Bft) N 349 ° 0 min 0 W/m² 9,0 °C 9,9 °C 6,4 km/h (2 Bft)
03.10.2024 06:33 17,9 °C 9,9 °C 57 % 94 % 1014,1 hPa 0,0 l/m² 12,9 km/h (3 Bft) N-NW 328 ° 0 min 0 W/m² 9,0 °C 6,0 °C 17,7 km/h (3 Bft)
03.10.2024 06:34 17,9 °C 9,9 °C 57 % 94 % 1014,1 hPa 0,0 l/m² 8,3 km/h (2 Bft) N 5 ° 0 min 0 W/m² 9,0 °C 8,5 °C 12,9 km/h (3 Bft)
03.10.2024 06:35 17,9 °C 9,9 °C 57 % 94 % 1014,2 hPa 0,0 l/m² 9,2 km/h (2 Bft) N-NW 331 ° 0 min 0 W/m² 9,0 °C 8,0 °C 16,1 km/h (3 Bft)
03.10.2024 06:36 18,0 °C 9,9 °C 57 % 94 % 1014,2 hPa 0,0 l/m² 5,5 km/h (2 Bft) NW 313 ° 0 min 0 W/m² 9,0 °C 9,9 °C 12,9 km/h (3 Bft)
03.10.2024 06:37 17,9 °C 9,9 °C 57 % 94 % 1014,1 hPa 0,0 l/m² 7,4 km/h (2 Bft) N-NW 343 ° 0 min 0 W/m² 9,0 °C 9,2 °C 12,9 km/h (3 Bft)
03.10.2024 06:38 17,9 °C 9,9 °C 57 % 94 % 1014,2 hPa 0,0 l/m² 9,7 km/h (2 Bft) NW 312 ° 0 min 0 W/m² 9,0 °C 7,7 °C 16,1 km/h (3 Bft)
03.10.2024 06:39 18,0 °C 9,9 °C 57 % 94 % 1014,2 hPa 0,0 l/m² 14,9 km/h (3 Bft) N-NO 22 ° 0 min 0 W/m² 9,0 °C 5,1 °C 17,7 km/h (3 Bft)
03.10.2024 06:40 17,9 °C 9,9 °C 57 % 94 % 1014,2 hPa 0,0 l/m² 10,3 km/h (2 Bft) N 355 ° 0 min 0 W/m² 9,0 °C 7,3 °C 17,7 km/h (3 Bft)
03.10.2024 06:41 17,9 °C 9,9 °C 57 % 94 % 1014,2 hPa 0,0 l/m² 9,9 km/h (2 Bft) W-NW 298 ° 0 min 0 W/m² 9,0 °C 7,5 °C 14,5 km/h (3 Bft)
03.10.2024 06:42 18,0 °C 9,9 °C 57 % 94 % 1014,2 hPa 0,0 l/m² 11,1 km/h (2 Bft) N-NW 329 ° 0 min 0 W/m² 9,0 °C 6,9 °C 17,7 km/h (3 Bft)
03.10.2024 06:43 17,9 °C 9,9 °C 57 % 94 % 1014,2 hPa 0,0 l/m² 11,2 km/h (2 Bft) N-NW 336 ° 0 min 0 W/m² 9,0 °C 6,8 °C 16,1 km/h (3 Bft)
03.10.2024 06:44 17,9 °C 9,9 °C 57 % 94 % 1014,2 hPa 0,0 l/m² 8,5 km/h (2 Bft) N-NW 328 ° 0 min 0 W/m² 9,0 °C 8,4 °C 12,9 km/h (3 Bft)
03.10.2024 06:45 18,0 °C 9,9 °C 57 % 94 % 1014,3 hPa 0,0 l/m² 8,0 km/h (2 Bft) N-NW 332 ° 0 min 0 W/m² 9,0 °C 8,7 °C 9,7 km/h (2 Bft)
03.10.2024 06:46 18,0 °C 9,9 °C 57 % 94 % 1014,3 hPa 0,0 l/m² 9,4 km/h (2 Bft) N-NW 327 ° 0 min 0 W/m² 9,0 °C 7,8 °C 16,1 km/h (3 Bft)
03.10.2024 06:47 17,9 °C 9,9 °C 57 % 94 % 1014,3 hPa 0,0 l/m² 10,1 km/h (2 Bft) N-NW 331 ° 0 min 0 W/m² 9,0 °C 7,4 °C 19,3 km/h (3 Bft)
03.10.2024 06:48 17,9 °C 9,9 °C 57 % 94 % 1014,3 hPa 0,0 l/m² 10,5 km/h (2 Bft) N-NW 339 ° 0 min 0 W/m² 9,0 °C 7,2 °C 17,7 km/h (3 Bft)
03.10.2024 06:49 17,9 °C 9,9 °C 57 % 94 % 1014,2 hPa 0,0 l/m² 8,9 km/h (2 Bft) N-NW 335 ° 0 min 0 W/m² 9,0 °C 8,2 °C 17,7 km/h (3 Bft)
03.10.2024 06:50 17,9 °C 9,9 °C 57 % 94 % 1014,1 hPa 0,0 l/m² 6,9 km/h (2 Bft) N-NW 348 ° 0 min 0 W/m² 9,0 °C 9,5 °C 12,9 km/h (3 Bft)
03.10.2024 06:51 17,9 °C 9,9 °C 57 % 94 % 1014,3 hPa 0,0 l/m² 7,9 km/h (2 Bft) N-NW 329 ° 0 min 0 W/m² 9,0 °C 8,8 °C 14,5 km/h (3 Bft)
03.10.2024 06:52 17,9 °C 9,9 °C 57 % 94 % 1014,3 hPa 0,0 l/m² 4,0 km/h (1 Bft) N 349 ° 0 min 0 W/m² 9,0 °C 9,9 °C 9,7 km/h (2 Bft)
03.10.2024 06:53 17,9 °C 9,9 °C 57 % 94 % 1014,3 hPa 0,0 l/m² 8,8 km/h (2 Bft) N-NW 342 ° 0 min 0 W/m² 9,0 °C 8,2 °C 14,5 km/h (3 Bft)
03.10.2024 06:54 17,9 °C 9,9 °C 57 % 94 % 1014,3 hPa 0,0 l/m² 11,1 km/h (2 Bft) N-NW 344 ° 0 min 0 W/m² 9,0 °C 6,9 °C 19,3 km/h (3 Bft)
03.10.2024 06:55 17,9 °C 9,9 °C 57 % 94 % 1014,3 hPa 0,0 l/m² 7,8 km/h (2 Bft) NW 317 ° 0 min 0 W/m² 9,0 °C 8,9 °C 14,5 km/h (3 Bft)
03.10.2024 06:56 17,9 °C 9,9 °C 57 % 94 % 1014,3 hPa 0,0 l/m² 12,7 km/h (3 Bft) N-NW 344 ° 0 min 0 W/m² 9,0 °C 6,1 °C 20,9 km/h (4 Bft)
03.10.2024 06:57 17,9 °C 9,9 °C 57 % 94 % 1014,2 hPa 0,0 l/m² 12,1 km/h (2 Bft) N-NW 341 ° 0 min 0 W/m² 9,0 °C 6,3 °C 14,5 km/h (3 Bft)
03.10.2024 06:58 18,0 °C 9,9 °C 57 % 94 % 1014,3 hPa 0,0 l/m² 13,5 km/h (3 Bft) N 349 ° 0 min 0 W/m² 9,0 °C 5,7 °C 20,9 km/h (4 Bft)
03.10.2024 06:59 17,9 °C 9,9 °C 57 % 94 % 1014,3 hPa 0,0 l/m² 13,1 km/h (3 Bft) N-NW 343 ° 0 min 0 W/m² 9,0 °C 5,9 °C 16,1 km/h (3 Bft)
03.10.2024 07:00 17,9 °C 9,9 °C 57 % 94 % 1014,3 hPa 0,0 l/m² 11,9 km/h (2 Bft) N-NW 329 ° 0 min 0 W/m² 9,0 °C 6,4 °C 16,1 km/h (3 Bft)
03.10.2024 07:01 17,9 °C 9,9 °C 57 % 94 % 1014,3 hPa 0,0 l/m² 11,4 km/h (2 Bft) NW 321 ° 0 min 0 W/m² 9,0 °C 6,7 °C 16,1 km/h (3 Bft)
03.10.2024 07:02 17,9 °C 9,9 °C 57 % 94 % 1014,3 hPa 0,0 l/m² 12,7 km/h (3 Bft) N-NW 339 ° 0 min 0 W/m² 9,0 °C 6,1 °C 19,3 km/h (3 Bft)
03.10.2024 07:03 17,9 °C 9,9 °C 57 % 94 % 1014,3 hPa 0,0 l/m² 13,1 km/h (3 Bft) NW 322 ° 0 min 0 W/m² 9,0 °C 5,9 °C 19,3 km/h (3 Bft)
03.10.2024 07:04 17,9 °C 9,9 °C 57 % 94 % 1014,3 hPa 0,0 l/m² 7,6 km/h (2 Bft) N-NW 335 ° 0 min 0 W/m² 9,0 °C 9,0 °C 12,9 km/h (3 Bft)
03.10.2024 07:05 17,9 °C 9,9 °C 57 % 94 % 1014,3 hPa 0,0 l/m² 4,7 km/h (1 Bft) N-NO 22 ° 0 min 0 W/m² 9,0 °C 9,9 °C 9,7 km/h (2 Bft)
03.10.2024 07:06 17,9 °C 9,9 °C 57 % 94 % 1014,4 hPa 0,0 l/m² 8,4 km/h (2 Bft) N 351 ° 0 min 0 W/m² 9,0 °C 8,5 °C 14,5 km/h (3 Bft)
03.10.2024 07:07 17,9 °C 9,9 °C 57 % 94 % 1014,4 hPa 0,0 l/m² 6,6 km/h (2 Bft) N 360 ° 0 min 0 W/m² 9,0 °C 9,8 °C 9,7 km/h (2 Bft)
03.10.2024 07:08 17,9 °C 9,9 °C 57 % 94 % 1014,4 hPa 0,0 l/m² 7,6 km/h (2 Bft) N-NW 345 ° 0 min 0 W/m² 9,0 °C 9,0 °C 12,9 km/h (3 Bft)
03.10.2024 07:09 17,9 °C 9,9 °C 57 % 94 % 1014,4 hPa 0,0 l/m² 8,2 km/h (2 Bft) N 9 ° 0 min 0 W/m² 9,0 °C 8,6 °C 16,1 km/h (3 Bft)
03.10.2024 07:10 17,9 °C 9,9 °C 57 % 94 % 1014,4 hPa 0,0 l/m² 11,0 km/h (2 Bft) N-NW 329 ° 0 min 0 W/m² 9,0 °C 6,9 °C 14,5 km/h (3 Bft)
03.10.2024 07:11 17,9 °C 9,9 °C 57 % 94 % 1014,4 hPa 0,0 l/m² 11,9 km/h (2 Bft) N-NW 331 ° 0 min 0 W/m² 9,0 °C 6,4 °C 16,1 km/h (3 Bft)
03.10.2024 07:12 17,9 °C 9,9 °C 57 % 94 % 1014,4 hPa 0,0 l/m² 11,3 km/h (2 Bft) N 355 ° 0 min 0 W/m² 9,0 °C 6,8 °C 14,5 km/h (3 Bft)
03.10.2024 07:13 17,9 °C 9,8 °C 57 % 94 % 1014,4 hPa 0,0 l/m² 9,3 km/h (2 Bft) N-NW 333 ° 0 min 0 W/m² 8,9 °C 7,8 °C 17,7 km/h (3 Bft)
03.10.2024 07:14 17,9 °C 9,9 °C 57 % 94 % 1014,4 hPa 0,0 l/m² 6,9 km/h (2 Bft) N-NW 327 ° 0 min 0 W/m² 9,0 °C 9,5 °C 9,7 km/h (2 Bft)
03.10.2024 07:15 17,9 °C 9,9 °C 57 % 94 % 1014,5 hPa 0,0 l/m² 4,7 km/h (1 Bft) N-NW 329 ° 0 min 0 W/m² 9,0 °C 9,9 °C 9,7 km/h (2 Bft)
03.10.2024 07:16 17,9 °C 9,8 °C 57 % 94 % 1014,4 hPa 0,0 l/m² 6,2 km/h (2 Bft) NW 315 ° 0 min 0 W/m² 8,9 °C 9,8 °C 12,9 km/h (3 Bft)
03.10.2024 07:17 17,9 °C 9,9 °C 57 % 94 % 1014,4 hPa 0,0 l/m² 5,7 km/h (2 Bft) N-NW 331 ° 0 min 0 W/m² 9,0 °C 9,9 °C 9,7 km/h (2 Bft)
03.10.2024 07:18 17,9 °C 9,9 °C 57 % 94 % 1014,5 hPa 0,0 l/m² 6,0 km/h (2 Bft) N-NW 333 ° 0 min 0 W/m² 9,0 °C 9,9 °C 11,3 km/h (2 Bft)
03.10.2024 07:19 17,9 °C 9,9 °C 57 % 94 % 1014,4 hPa 0,0 l/m² 7,7 km/h (2 Bft) N 351 ° 0 min 0 W/m² 9,0 °C 9,0 °C 14,5 km/h (3 Bft)
03.10.2024 07:20 17,9 °C 9,8 °C 57 % 94 % 1014,4 hPa 0,0 l/m² 8,7 km/h (2 Bft) N-NW 328 ° 0 min 0 W/m² 8,9 °C 8,2 °C 14,5 km/h (3 Bft)
03.10.2024 07:21 17,9 °C 9,9 °C 57 % 94 % 1014,4 hPa 0,0 l/m² 11,2 km/h (2 Bft) N-NW 348 ° 0 min 0 W/m² 9,0 °C 6,8 °C 16,1 km/h (3 Bft)
03.10.2024 07:22 17,9 °C 9,9 °C 57 % 94 % 1014,5 hPa 0,0 l/m² 6,8 km/h (2 Bft) N 351 ° 0 min 0 W/m² 9,0 °C 9,6 °C 11,3 km/h (2 Bft)
03.10.2024 07:23 17,9 °C 9,9 °C 57 % 94 % 1014,5 hPa 0,0 l/m² 5,5 km/h (2 Bft) N-NW 345 ° 0 min 0 W/m² 9,0 °C 9,9 °C 12,9 km/h (3 Bft)
03.10.2024 07:24 17,9 °C 9,8 °C 57 % 94 % 1014,4 hPa 0,0 l/m² 8,3 km/h (2 Bft) N 355 ° 0 min 0 W/m² 8,9 °C 8,4 °C 14,5 km/h (3 Bft)
03.10.2024 07:25 17,9 °C 9,8 °C 57 % 94 % 1014,5 hPa 0,0 l/m² 5,4 km/h (2 Bft) W-NW 303 ° 0 min 0 W/m² 8,9 °C 9,8 °C 14,5 km/h (3 Bft)
03.10.2024 07:26 17,9 °C 9,9 °C 57 % 94 % 1014,5 hPa 0,0 l/m² 3,3 km/h (1 Bft) NW 324 ° 0 min 0 W/m² 9,0 °C 9,9 °C 8,0 km/h (2 Bft)
03.10.2024 07:27 17,9 °C 9,9 °C 57 % 94 % 1014,5 hPa 0,0 l/m² 7,3 km/h (2 Bft) N-NW 333 ° 0 min 0 W/m² 9,0 °C 9,2 °C 12,9 km/h (3 Bft)
03.10.2024 07:28 17,9 °C 9,9 °C 57 % 94 % 1014,5 hPa 0,0 l/m² 8,0 km/h (2 Bft) N-NO 15 ° 0 min 0 W/m² 9,0 °C 8,7 °C 14,5 km/h (3 Bft)
03.10.2024 07:29 17,9 °C 9,8 °C 57 % 94 % 1014,5 hPa 0,0 l/m² 10,2 km/h (2 Bft) N-NW 327 ° 0 min 0 W/m² 8,9 °C 7,3 °C 17,7 km/h (3 Bft)
03.10.2024 07:30 17,9 °C 9,8 °C 57 % 94 % 1014,5 hPa 0,0 l/m² 9,5 km/h (2 Bft) N-NW 341 ° 0 min 0 W/m² 8,9 °C 7,7 °C 14,5 km/h (3 Bft)
03.10.2024 07:31 17,9 °C 9,9 °C 57 % 94 % 1014,5 hPa 0,0 l/m² 6,1 km/h (2 Bft) NW 309 ° 0 min 0 W/m² 9,0 °C 9,9 °C 12,9 km/h (3 Bft)
03.10.2024 07:32 17,9 °C 9,8 °C 57 % 94 % 1014,5 hPa 0,0 l/m² 10,3 km/h (2 Bft) N-NW 335 ° 0 min 0 W/m² 8,9 °C 7,2 °C 14,5 km/h (3 Bft)
03.10.2024 07:33 17,9 °C 9,9 °C 57 % 94 % 1014,5 hPa 0,0 l/m² 14,8 km/h (3 Bft) N 5 ° 0 min 0 W/m² 9,0 °C 5,1 °C 19,3 km/h (3 Bft)
03.10.2024 07:34 17,9 °C 9,8 °C 57 % 94 % 1014,4 hPa 0,0 l/m² 12,5 km/h (2 Bft) N 349 ° 0 min 0 W/m² 8,9 °C 6,0 °C 17,7 km/h (3 Bft)
03.10.2024 07:35 17,9 °C 9,8 °C 57 % 94 % 1014,5 hPa 0,0 l/m² 7,6 km/h (2 Bft) NW 315 ° 0 min 0 W/m² 8,9 °C 8,9 °C 14,5 km/h (3 Bft)
03.10.2024 07:36 17,9 °C 9,8 °C 57 % 94 % 1014,6 hPa 0,0 l/m² 10,0 km/h (2 Bft) N-NW 347 ° 0 min 0 W/m² 8,9 °C 7,4 °C 16,1 km/h (3 Bft)
03.10.2024 07:37 17,9 °C 9,8 °C 57 % 94 % 1014,4 hPa 0,0 l/m² 8,9 km/h (2 Bft) N-NW 333 ° 0 min 5 W/m² 8,9 °C 8,0 °C 16,1 km/h (3 Bft)
03.10.2024 07:38 17,9 °C 9,8 °C 57 % 94 % 1014,5 hPa 0,0 l/m² 10,3 km/h (2 Bft) N-NW 337 ° 0 min 5 W/m² 8,9 °C 7,2 °C 14,5 km/h (3 Bft)
03.10.2024 07:39 17,9 °C 9,8 °C 57 % 94 % 1014,5 hPa 0,0 l/m² 10,1 km/h (2 Bft) NW 326 ° 0 min 5 W/m² 8,9 °C 7,3 °C 17,7 km/h (3 Bft)
03.10.2024 07:40 17,9 °C 9,8 °C 57 % 94 % 1014,5 hPa 0,0 l/m² 8,9 km/h (2 Bft) N-NW 344 ° 0 min 5 W/m² 8,9 °C 8,0 °C 12,9 km/h (3 Bft)
03.10.2024 07:41 17,9 °C 9,8 °C 57 % 94 % 1014,5 hPa 0,0 l/m² 13,2 km/h (3 Bft) N 360 ° 0 min 5 W/m² 8,9 °C 5,7 °C 17,7 km/h (3 Bft)
03.10.2024 07:42 17,9 °C 9,8 °C 57 % 94 % 1014,5 hPa 0,0 l/m² 11,0 km/h (2 Bft) NW 323 ° 0 min 5 W/m² 8,9 °C 6,8 °C 19,3 km/h (3 Bft)
03.10.2024 07:43 17,9 °C 9,8 °C 57 % 94 % 1014,5 hPa 0,0 l/m² 8,7 km/h (2 Bft) N-NW 329 ° 0 min 7 W/m² 8,9 °C 8,2 °C 16,1 km/h (3 Bft)
03.10.2024 07:44 17,9 °C 9,8 °C 57 % 94 % 1014,6 hPa 0,0 l/m² 14,1 km/h (3 Bft) N-NW 344 ° 0 min 7 W/m² 8,9 °C 5,3 °C 17,7 km/h (3 Bft)
03.10.2024 07:45 17,9 °C 9,8 °C 57 % 94 % 1014,5 hPa 0,0 l/m² 9,0 km/h (2 Bft) N-NW 337 ° 0 min 5 W/m² 8,9 °C 8,0 °C 14,5 km/h (3 Bft)
03.10.2024 07:46 17,9 °C 9,8 °C 57 % 94 % 1014,6 hPa 0,0 l/m² 8,0 km/h (2 Bft) NW 321 ° 0 min 5 W/m² 8,9 °C 8,6 °C 12,9 km/h (3 Bft)
03.10.2024 07:47 17,9 °C 9,8 °C 57 % 94 % 1014,6 hPa 0,0 l/m² 9,4 km/h (2 Bft) N 355 ° 0 min 5 W/m² 8,9 °C 7,7 °C 17,7 km/h (3 Bft)
03.10.2024 07:48 17,9 °C 9,8 °C 57 % 94 % 1014,5 hPa 0,0 l/m² 10,7 km/h (2 Bft) N 350 ° 0 min 7 W/m² 8,9 °C 7,0 °C 16,1 km/h (3 Bft)
03.10.2024 07:49 17,9 °C 9,8 °C 57 % 94 % 1014,5 hPa 0,0 l/m² 10,1 km/h (2 Bft) N-NW 336 ° 0 min 7 W/m² 8,9 °C 7,3 °C 17,7 km/h (3 Bft)
03.10.2024 07:50 17,9 °C 9,8 °C 57 % 94 % 1014,5 hPa 0,0 l/m² 10,7 km/h (2 Bft) N 360 ° 0 min 7 W/m² 8,9 °C 7,0 °C 16,1 km/h (3 Bft)
03.10.2024 07:51 17,9 °C 9,8 °C 57 % 94 % 1014,6 hPa 0,0 l/m² 10,7 km/h (2 Bft) N 5 ° 0 min 7 W/m² 8,9 °C 7,0 °C 19,3 km/h (3 Bft)
03.10.2024 07:52 17,9 °C 9,8 °C 57 % 94 % 1014,5 hPa 0,0 l/m² 5,3 km/h (1 Bft) N-NW 337 ° 0 min 7 W/m² 8,9 °C 9,8 °C 12,9 km/h (3 Bft)
03.10.2024 07:53 17,9 °C 9,8 °C 57 % 94 % 1014,5 hPa 0,0 l/m² 3,2 km/h (1 Bft) N 5 ° 0 min 7 W/m² 8,9 °C 9,8 °C 8,0 km/h (2 Bft)
03.10.2024 07:54 17,9 °C 9,8 °C 57 % 94 % 1014,6 hPa 0,0 l/m² 4,4 km/h (1 Bft) NW 321 ° 0 min 9 W/m² 8,9 °C 9,8 °C 6,4 km/h (2 Bft)
03.10.2024 07:55 17,9 °C 9,8 °C 57 % 94 % 1014,6 hPa 0,0 l/m² 5,5 km/h (2 Bft) N-NW 330 ° 0 min 11 W/m² 8,9 °C 9,8 °C 11,3 km/h (2 Bft)
03.10.2024 07:56 17,9 °C 9,8 °C 57 % 94 % 1014,6 hPa 0,0 l/m² 3,9 km/h (1 Bft) NW 314 ° 0 min 11 W/m² 8,9 °C 9,8 °C 6,4 km/h (2 Bft)
03.10.2024 07:57 17,9 °C 9,8 °C 57 % 94 % 1014,6 hPa 0,0 l/m² 4,2 km/h (1 Bft) N 351 ° 0 min 11 W/m² 8,9 °C 9,8 °C 6,4 km/h (2 Bft)
03.10.2024 07:58 17,9 °C 9,8 °C 57 % 94 % 1014,6 hPa 0,0 l/m² 2,3 km/h (1 Bft) N-NW 333 ° 0 min 11 W/m² 8,9 °C 9,8 °C 6,4 km/h (2 Bft)
03.10.2024 07:59 17,9 °C 9,8 °C 57 % 94 % 1014,7 hPa 0,0 l/m² 7,5 km/h (2 Bft) NW 306 ° 0 min 11 W/m² 8,9 °C 9,0 °C 12,9 km/h (3 Bft)
03.10.2024 08:00 17,9 °C 9,8 °C 57 % 94 % 1014,7 hPa 0,0 l/m² 13,5 km/h (3 Bft) N-NW 348 ° 0 min 11 W/m² 8,9 °C 5,6 °C 16,1 km/h (3 Bft)
03.10.2024 08:01 17,8 °C 9,8 °C 57 % 94 % 1014,6 hPa 0,0 l/m² 7,6 km/h (2 Bft) N-NW 339 ° 0 min 12 W/m² 8,9 °C 8,9 °C 14,5 km/h (3 Bft)
03.10.2024 08:02 17,9 °C 9,8 °C 57 % 94 % 1014,7 hPa 0,0 l/m² 7,6 km/h (2 Bft) N 355 ° 0 min 12 W/m² 8,9 °C 8,9 °C 12,9 km/h (3 Bft)
03.10.2024 08:03 17,9 °C 9,8 °C 57 % 94 % 1014,6 hPa 0,0 l/m² 8,6 km/h (2 Bft) N-NW 336 ° 0 min 14 W/m² 8,9 °C 8,2 °C 14,5 km/h (3 Bft)
03.10.2024 08:04 17,9 °C 9,8 °C 57 % 94 % 1014,6 hPa 0,0 l/m² 8,0 km/h (2 Bft) N-NW 329 ° 0 min 12 W/m² 8,9 °C 8,6 °C 14,5 km/h (3 Bft)
03.10.2024 08:05 17,9 °C 9,8 °C 57 % 94 % 1014,7 hPa 0,0 l/m² 11,5 km/h (2 Bft) N-NW 344 ° 0 min 12 W/m² 8,9 °C 6,5 °C 16,1 km/h (3 Bft)
03.10.2024 08:06 17,9 °C 9,8 °C 57 % 94 % 1014,6 hPa 0,0 l/m² 9,5 km/h (2 Bft) N 5 ° 0 min 12 W/m² 8,9 °C 7,7 °C 17,7 km/h (3 Bft)
03.10.2024 08:07 17,9 °C 9,8 °C 57 % 94 % 1014,7 hPa 0,0 l/m² 12,6 km/h (3 Bft) N-NW 336 ° 0 min 14 W/m² 8,9 °C 6,0 °C 17,7 km/h (3 Bft)
03.10.2024 08:08 17,9 °C 9,8 °C 57 % 94 % 1014,7 hPa 0,0 l/m² 10,3 km/h (2 Bft) N-NO 17 ° 0 min 14 W/m² 8,9 °C 7,2 °C 16,1 km/h (3 Bft)
03.10.2024 08:09 17,9 °C 9,8 °C 57 % 94 % 1014,7 hPa 0,0 l/m² 5,5 km/h (2 Bft) N-NW 331 ° 0 min 14 W/m² 8,9 °C 9,8 °C 9,7 km/h (2 Bft)
03.10.2024 08:10 17,9 °C 9,8 °C 57 % 94 % 1014,7 hPa 0,0 l/m² 7,5 km/h (2 Bft) N-NW 338 ° 0 min 16 W/m² 8,9 °C 9,0 °C 16,1 km/h (3 Bft)
03.10.2024 08:11 17,9 °C 9,8 °C 57 % 94 % 1014,7 hPa 0,0 l/m² 13,1 km/h (3 Bft) N 5 ° 0 min 16 W/m² 8,9 °C 5,7 °C 17,7 km/h (3 Bft)
03.10.2024 08:12 17,9 °C 9,8 °C 57 % 94 % 1014,7 hPa 0,0 l/m² 10,5 km/h (2 Bft) N-NW 347 ° 0 min 18 W/m² 8,9 °C 7,1 °C 14,5 km/h (3 Bft)
03.10.2024 08:13 17,9 °C 9,8 °C 57 % 94 % 1014,7 hPa 0,0 l/m² 10,0 km/h (2 Bft) W 280 ° 0 min 18 W/m² 8,9 °C 7,4 °C 14,5 km/h (3 Bft)
03.10.2024 08:14 17,8 °C 9,8 °C 57 % 94 % 1014,7 hPa 0,0 l/m² 8,0 km/h (2 Bft) NW 315 ° 0 min 18 W/m² 8,9 °C 8,6 °C 14,5 km/h (3 Bft)
03.10.2024 08:15 17,8 °C 9,8 °C 57 % 94 % 1014,7 hPa 0,0 l/m² 7,4 km/h (2 Bft) NW 326 ° 0 min 19 W/m² 8,9 °C 9,1 °C 14,5 km/h (3 Bft)
03.10.2024 08:16 17,9 °C 9,8 °C 57 % 94 % 1014,7 hPa 0,0 l/m² 15,2 km/h (3 Bft) NW 321 ° 0 min 19 W/m² 8,9 °C 4,8 °C 17,7 km/h (3 Bft)
03.10.2024 08:17 17,8 °C 9,8 °C 57 % 94 % 1014,7 hPa 0,0 l/m² 14,9 km/h (3 Bft) N-NW 337 ° 0 min 18 W/m² 8,9 °C 4,9 °C 19,3 km/h (3 Bft)
03.10.2024 08:18 17,9 °C 9,8 °C 57 % 94 % 1014,8 hPa 0,0 l/m² 10,8 km/h (2 Bft) N 360 ° 0 min 21 W/m² 8,9 °C 6,9 °C 17,7 km/h (3 Bft)
03.10.2024 08:19 17,9 °C 9,8 °C 57 % 93 % 1014,7 hPa 0,0 l/m² 6,9 km/h (2 Bft) N-NW 339 ° 0 min 23 W/m² 8,7 °C 9,4 °C 14,5 km/h (3 Bft)
03.10.2024 08:20 17,9 °C 9,8 °C 57 % 94 % 1014,7 hPa 0,0 l/m² 9,5 km/h (2 Bft) N-NW 348 ° 0 min 23 W/m² 8,9 °C 7,7 °C 14,5 km/h (3 Bft)
03.10.2024 08:21 17,9 °C 9,8 °C 57 % 93 % 1014,8 hPa 0,0 l/m² 12,0 km/h (2 Bft) NW 325 ° 0 min 21 W/m² 8,7 °C 6,3 °C 17,7 km/h (3 Bft)
03.10.2024 08:22 17,9 °C 9,8 °C 57 % 93 % 1014,8 hPa 0,0 l/m² 9,6 km/h (2 Bft) N-NW 328 ° 0 min 21 W/m² 8,7 °C 7,6 °C 14,5 km/h (3 Bft)
03.10.2024 08:23 17,9 °C 9,8 °C 57 % 93 % 1014,7 hPa 0,0 l/m² 7,4 km/h (2 Bft) N-NW 346 ° 0 min 21 W/m² 8,7 °C 9,1 °C 14,5 km/h (3 Bft)
03.10.2024 08:24 17,9 °C 9,8 °C 57 % 93 % 1014,8 hPa 0,0 l/m² 8,8 km/h (2 Bft) NW 323 ° 0 min 19 W/m² 8,7 °C 8,1 °C 16,1 km/h (3 Bft)
03.10.2024 08:25 17,9 °C 9,8 °C 57 % 93 % 1014,8 hPa 0,0 l/m² 11,8 km/h (2 Bft) W-NW 296 ° 0 min 19 W/m² 8,7 °C 6,4 °C 19,3 km/h (3 Bft)
03.10.2024 08:26 17,9 °C 9,8 °C 57 % 93 % 1014,8 hPa 0,0 l/m² 8,2 km/h (2 Bft) NW 311 ° 0 min 18 W/m² 8,7 °C 8,5 °C 14,5 km/h (3 Bft)
03.10.2024 08:27 17,8 °C 9,8 °C 57 % 93 % 1014,8 hPa 0,0 l/m² 15,3 km/h (3 Bft) NW 322 ° 0 min 18 W/m² 8,7 °C 4,8 °C 20,9 km/h (4 Bft)
03.10.2024 08:28 17,9 °C 9,8 °C 57 % 93 % 1014,8 hPa 0,0 l/m² 12,2 km/h (2 Bft) N-NW 338 ° 0 min 18 W/m² 8,7 °C 6,2 °C 19,3 km/h (3 Bft)
03.10.2024 08:29 17,9 °C 9,8 °C 57 % 93 % 1014,8 hPa 0,0 l/m² 11,1 km/h (2 Bft) N-NW 330 ° 0 min 16 W/m² 8,7 °C 6,8 °C 16,1 km/h (3 Bft)
03.10.2024 08:30 17,9 °C 9,8 °C 57 % 93 % 1014,8 hPa 0,0 l/m² 8,4 km/h (2 Bft) N-NW 338 ° 0 min 18 W/m² 8,7 °C 8,4 °C 14,5 km/h (3 Bft)
03.10.2024 08:31 17,9 °C 9,8 °C 57 % 93 % 1014,8 hPa 0,0 l/m² 8,6 km/h (2 Bft) N-NW 335 ° 0 min 18 W/m² 8,7 °C 8,2 °C 19,3 km/h (3 Bft)
03.10.2024 08:32 17,9 °C 9,8 °C 57 % 93 % 1014,8 hPa 0,0 l/m² 9,0 km/h (2 Bft) NW 309 ° 0 min 18 W/m² 8,7 °C 8,0 °C 19,3 km/h (3 Bft)
03.10.2024 08:33 17,8 °C 9,8 °C 57 % 93 % 1014,8 hPa 0,0 l/m² 8,4 km/h (2 Bft) NW 317 ° 0 min 18 W/m² 8,7 °C 8,4 °C 14,5 km/h (3 Bft)
03.10.2024 08:34 17,8 °C 9,8 °C 57 % 93 % 1014,8 hPa 0,0 l/m² 7,2 km/h (2 Bft) N-NW 331 ° 0 min 19 W/m² 8,7 °C 9,2 °C 9,7 km/h (2 Bft)
03.10.2024 08:35 17,9 °C 9,8 °C 57 % 93 % 1014,8 hPa 0,0 l/m² 10,5 km/h (2 Bft) N-NW 340 ° 0 min 19 W/m² 8,7 °C 7,1 °C 14,5 km/h (3 Bft)
03.10.2024 08:36 17,8 °C 9,8 °C 57 % 93 % 1014,8 hPa 0,0 l/m² 8,0 km/h (2 Bft) N 5 ° 0 min 21 W/m² 8,7 °C 8,6 °C 12,9 km/h (3 Bft)
03.10.2024 08:37 17,8 °C 9,8 °C 57 % 93 % 1014,9 hPa 0,0 l/m² 10,5 km/h (2 Bft) N 355 ° 0 min 23 W/m² 8,7 °C 7,1 °C 16,1 km/h (3 Bft)
03.10.2024 08:38 17,9 °C 9,8 °C 57 % 93 % 1014,7 hPa 0,0 l/m² 4,8 km/h (1 Bft) N-NW 331 ° 0 min 26 W/m² 8,7 °C 9,8 °C 9,7 km/h (2 Bft)
03.10.2024 08:39 17,9 °C 9,8 °C 57 % 93 % 1014,8 hPa 0,0 l/m² 8,8 km/h (2 Bft) N-NW 339 ° 0 min 26 W/m² 8,7 °C 8,1 °C 17,7 km/h (3 Bft)
03.10.2024 08:40 17,8 °C 9,8 °C 57 % 93 % 1014,8 hPa 0,0 l/m² 7,7 km/h (2 Bft) N-NW 337 ° 0 min 26 W/m² 8,7 °C 8,9 °C 12,9 km/h (3 Bft)
03.10.2024 08:41 17,9 °C 9,8 °C 57 % 93 % 1014,9 hPa 0,0 l/m² 9,5 km/h (2 Bft) N-NW 330 ° 0 min 30 W/m² 8,7 °C 7,7 °C 12,9 km/h (3 Bft)
03.10.2024 08:42 17,8 °C 9,8 °C 57 % 93 % 1014,8 hPa 0,0 l/m² 5,0 km/h (1 Bft) N-NW 336 ° 0 min 32 W/m² 8,7 °C 9,8 °C 12,9 km/h (3 Bft)
03.10.2024 08:43 17,8 °C 9,8 °C 57 % 93 % 1014,8 hPa 0,0 l/m² 4,9 km/h (1 Bft) N-NW 347 ° 0 min 32 W/m² 8,7 °C 9,8 °C 8,0 km/h (2 Bft)
03.10.2024 08:44 17,8 °C 9,8 °C 57 % 93 % 1014,9 hPa 0,0 l/m² 7,0 km/h (2 Bft) N-NW 340 ° 0 min 33 W/m² 8,7 °C 9,4 °C 12,9 km/h (3 Bft)
03.10.2024 08:45 17,8 °C 9,8 °C 57 % 93 % 1015,0 hPa 0,0 l/m² 4,6 km/h (1 Bft) N-NW 336 ° 0 min 33 W/m² 8,7 °C 9,8 °C 12,9 km/h (3 Bft)
03.10.2024 08:46 17,8 °C 9,8 °C 57 % 93 % 1014,9 hPa 0,0 l/m² 6,6 km/h (2 Bft) N-NW 332 ° 0 min 35 W/m² 8,7 °C 9,7 °C 14,5 km/h (3 Bft)
03.10.2024 08:47 17,9 °C 9,8 °C 57 % 93 % 1014,9 hPa 0,0 l/m² 8,9 km/h (2 Bft) N 355 ° 0 min 35 W/m² 8,7 °C 8,0 °C 16,1 km/h (3 Bft)
03.10.2024 08:48 17,9 °C 9,8 °C 57 % 93 % 1014,9 hPa 0,0 l/m² 7,8 km/h (2 Bft) N-NW 329 ° 0 min 37 W/m² 8,7 °C 8,8 °C 12,9 km/h (3 Bft)
03.10.2024 08:49 17,8 °C 9,8 °C 57 % 93 % 1015,0 hPa 0,0 l/m² 4,2 km/h (1 Bft) NW 311 ° 0 min 37 W/m² 8,7 °C 9,8 °C 9,7 km/h (2 Bft)
03.10.2024 08:50 17,8 °C 9,8 °C 57 % 93 % 1015,0 hPa 0,0 l/m² 2,7 km/h (1 Bft) N-NW 331 ° 0 min 39 W/m² 8,7 °C 9,8 °C 6,4 km/h (2 Bft)
03.10.2024 08:51 17,8 °C 9,8 °C 57 % 93 % 1015,0 hPa 0,0 l/m² 2,5 km/h (1 Bft) N 351 ° 0 min 40 W/m² 8,7 °C 9,8 °C 6,4 km/h (2 Bft)
03.10.2024 08:52 17,9 °C 9,8 °C 57 % 93 % 1015,0 hPa 0,0 l/m² 7,0 km/h (2 Bft) NW 323 ° 0 min 42 W/m² 8,7 °C 9,4 °C 9,7 km/h (2 Bft)
03.10.2024 08:53 17,8 °C 9,8 °C 57 % 93 % 1015,0 hPa 0,0 l/m² 5,9 km/h (2 Bft) N-NW 343 ° 0 min 46 W/m² 8,7 °C 9,8 °C 12,9 km/h (3 Bft)
03.10.2024 08:54 17,9 °C 9,8 °C 57 % 93 % 1015,0 hPa 0,0 l/m² 7,7 km/h (2 Bft) NW 326 ° 0 min 46 W/m² 8,7 °C 8,9 °C 16,1 km/h (3 Bft)
03.10.2024 08:55 17,8 °C 9,8 °C 57 % 93 % 1015,0 hPa 0,0 l/m² 6,4 km/h (2 Bft) W-NW 287 ° 0 min 46 W/m² 8,7 °C 9,8 °C 9,7 km/h (2 Bft)
03.10.2024 08:56 17,8 °C 9,8 °C 57 % 93 % 1015,0 hPa 0,0 l/m² 7,1 km/h (2 Bft) N-NW 336 ° 0 min 47 W/m² 8,7 °C 9,3 °C 12,9 km/h (3 Bft)
03.10.2024 08:57 17,8 °C 9,8 °C 57 % 93 % 1015,0 hPa 0,0 l/m² 6,1 km/h (2 Bft) NW 321 ° 0 min 49 W/m² 8,7 °C 9,8 °C 9,7 km/h (2 Bft)
03.10.2024 08:58 17,8 °C 9,9 °C 57 % 93 % 1015,0 hPa 0,0 l/m² 5,5 km/h (2 Bft) N-NW 331 ° 0 min 51 W/m² 8,8 °C 9,9 °C 12,9 km/h (3 Bft)
03.10.2024 08:59 17,8 °C 9,8 °C 57 % 93 % 1015,0 hPa 0,0 l/m² 4,5 km/h (1 Bft) NW 321 ° 1 min 58 W/m² 8,7 °C 9,8 °C 9,7 km/h (2 Bft)
03.10.2024 09:00 17,8 °C 9,9 °C 57 % 93 % 1015,0 hPa 0,0 l/m² 8,9 km/h (2 Bft) N-NW 343 ° 1 min 58 W/m² 8,8 °C 8,2 °C 14,5 km/h (3 Bft)
03.10.2024 09:01 17,8 °C 9,9 °C 57 % 93 % 1015,0 hPa 0,0 l/m² 8,2 km/h (2 Bft) N-NW 338 ° 1 min 60 W/m² 8,8 °C 8,6 °C 12,9 km/h (3 Bft)
03.10.2024 09:02 17,9 °C 9,9 °C 57 % 93 % 1015,0 hPa 0,0 l/m² 6,5 km/h (2 Bft) NW 321 ° 1 min 62 W/m² 8,8 °C 9,9 °C 12,9 km/h (3 Bft)
03.10.2024 09:03 17,8 °C 9,9 °C 57 % 93 % 1015,0 hPa 0,0 l/m² 4,2 km/h (1 Bft) W-NW 285 ° 1 min 62 W/m² 8,8 °C 9,9 °C 9,7 km/h (2 Bft)
03.10.2024 09:04 17,9 °C 9,9 °C 57 % 93 % 1015,0 hPa 0,0 l/m² 6,2 km/h (2 Bft) N-NW 334 ° 1 min 62 W/m² 8,8 °C 9,9 °C 12,9 km/h (3 Bft)
03.10.2024 09:05 17,8 °C 9,9 °C 57 % 93 % 1015,1 hPa 0,0 l/m² 4,8 km/h (1 Bft) N-NW 344 ° 1 min 62 W/m² 8,8 °C 9,9 °C 12,9 km/h (3 Bft)
03.10.2024 09:06 17,8 °C 9,9 °C 57 % 93 % 1015,1 hPa 0,0 l/m² 5,2 km/h (1 Bft) N-NW 340 ° 1 min 58 W/m² 8,8 °C 9,9 °C 9,7 km/h (2 Bft)
03.10.2024 09:07 17,8 °C 9,9 °C 57 % 93 % 1015,0 hPa 0,0 l/m² 3,0 km/h (1 Bft) NW 315 ° 0 min 51 W/m² 8,8 °C 9,9 °C 11,3 km/h (2 Bft)
03.10.2024 09:08 17,8 °C 9,9 °C 57 % 93 % 1015,0 hPa 0,0 l/m² 5,1 km/h (1 Bft) NW 310 ° 1 min 53 W/m² 8,8 °C 9,9 °C 12,9 km/h (3 Bft)
03.10.2024 09:09 17,8 °C 9,9 °C 57 % 93 % 1015,0 hPa 0,0 l/m² 6,9 km/h (2 Bft) NW 323 ° 1 min 54 W/m² 8,8 °C 9,5 °C 12,9 km/h (3 Bft)
03.10.2024 09:10 17,8 °C 9,9 °C 57 % 93 % 1015,0 hPa 0,0 l/m² 4,5 km/h (1 Bft) N 350 ° 1 min 54 W/m² 8,8 °C 9,9 °C 11,3 km/h (2 Bft)
03.10.2024 09:11 17,8 °C 9,9 °C 57 % 93 % 1015,1 hPa 0,0 l/m² 9,5 km/h (2 Bft) N-NW 339 ° 1 min 54 W/m² 8,8 °C 7,8 °C 17,7 km/h (3 Bft)
03.10.2024 09:12 17,8 °C 9,9 °C 57 % 93 % 1015,0 hPa 0,0 l/m² 6,7 km/h (2 Bft) N-NO 24 ° 1 min 54 W/m² 8,8 °C 9,7 °C 14,5 km/h (3 Bft)
03.10.2024 09:13 17,9 °C 9,9 °C 57 % 93 % 1015,1 hPa 0,0 l/m² 9,3 km/h (2 Bft) N-NW 339 ° 1 min 58 W/m² 8,8 °C 7,9 °C 16,1 km/h (3 Bft)
03.10.2024 09:14 17,8 °C 9,9 °C 57 % 93 % 1015,1 hPa 0,0 l/m² 7,4 km/h (2 Bft) W-NW 300 ° 1 min 56 W/m² 8,8 °C 9,2 °C 14,5 km/h (3 Bft)
03.10.2024 09:15 17,8 °C 9,9 °C 57 % 93 % 1015,1 hPa 0,0 l/m² 7,2 km/h (2 Bft) NW 325 ° 1 min 56 W/m² 8,8 °C 9,3 °C 14,5 km/h (3 Bft)
03.10.2024 09:16 17,8 °C 9,9 °C 57 % 93 % 1015,1 hPa 0,0 l/m² 9,5 km/h (2 Bft) N-NW 327 ° 1 min 60 W/m² 8,8 °C 7,8 °C 14,5 km/h (3 Bft)
03.10.2024 09:17 17,8 °C 9,9 °C 57 % 93 % 1015,1 hPa 0,0 l/m² 7,7 km/h (2 Bft) N-NW 342 ° 1 min 56 W/m² 8,8 °C 9,0 °C 14,5 km/h (3 Bft)
03.10.2024 09:18 17,8 °C 9,9 °C 57 % 93 % 1015,0 hPa 0,0 l/m² 10,1 km/h (2 Bft) W-NW 283 ° 1 min 58 W/m² 8,8 °C 7,4 °C 17,7 km/h (3 Bft)
03.10.2024 09:19 17,8 °C 9,9 °C 57 % 93 % 1015,0 hPa 0,0 l/m² 10,2 km/h (2 Bft) N-NW 335 ° 1 min 63 W/m² 8,8 °C 7,4 °C 14,5 km/h (3 Bft)
03.10.2024 09:20 17,8 °C 9,9 °C 57 % 93 % 1015,1 hPa 0,0 l/m² 8,6 km/h (2 Bft) N-NW 335 ° 1 min 65 W/m² 8,8 °C 8,3 °C 12,9 km/h (3 Bft)
03.10.2024 09:21 17,8 °C 9,9 °C 57 % 93 % 1015,1 hPa 0,0 l/m² 7,0 km/h (2 Bft) NW 313 ° 1 min 67 W/m² 8,8 °C 9,5 °C 9,7 km/h (2 Bft)
03.10.2024 09:22 17,8 °C 9,9 °C 57 % 93 % 1015,1 hPa 0,0 l/m² 10,1 km/h (2 Bft) NW 318 ° 1 min 69 W/m² 8,8 °C 7,4 °C 17,7 km/h (3 Bft)
03.10.2024 09:23 17,8 °C 9,9 °C 57 % 93 % 1015,1 hPa 0,0 l/m² 6,3 km/h (2 Bft) N 349 ° 1 min 72 W/m² 8,8 °C 9,9 °C 12,9 km/h (3 Bft)
03.10.2024 09:24 17,8 °C 10,0 °C 57 % 93 % 1015,2 hPa 0,0 l/m² 9,7 km/h (2 Bft) NW 326 ° 1 min 74 W/m² 8,9 °C 7,8 °C 17,7 km/h (3 Bft)
03.10.2024 09:25 17,8 °C 9,9 °C 57 % 93 % 1015,1 hPa 0,0 l/m² 9,1 km/h (2 Bft) N-NW 336 ° 1 min 76 W/m² 8,8 °C 8,0 °C 17,7 km/h (3 Bft)
03.10.2024 09:26 17,8 °C 10,0 °C 57 % 93 % 1015,1 hPa 0,0 l/m² 11,2 km/h (2 Bft) N-NW 329 ° 1 min 74 W/m² 8,9 °C 6,9 °C 14,5 km/h (3 Bft)
03.10.2024 09:27 17,8 °C 10,0 °C 57 % 93 % 1015,1 hPa 0,0 l/m² 8,6 km/h (2 Bft) N-NW 337 ° 1 min 76 W/m² 8,9 °C 8,5 °C 16,1 km/h (3 Bft)
03.10.2024 09:28 17,8 °C 9,9 °C 57 % 93 % 1015,2 hPa 0,0 l/m² 4,8 km/h (1 Bft) NW 320 ° 1 min 76 W/m² 8,8 °C 9,9 °C 11,3 km/h (2 Bft)
03.10.2024 09:29 17,8 °C 10,0 °C 57 % 93 % 1015,2 hPa 0,0 l/m² 7,6 km/h (2 Bft) N 360 ° 1 min 76 W/m² 8,9 °C 9,1 °C 16,1 km/h (3 Bft)
03.10.2024 09:30 17,8 °C 10,0 °C 57 % 93 % 1015,1 hPa 0,0 l/m² 7,8 km/h (2 Bft) W-SW 258 ° 1 min 79 W/m² 8,9 °C 9,0 °C 11,3 km/h (2 Bft)
03.10.2024 09:31 17,8 °C 10,0 °C 57 % 93 % 1015,2 hPa 0,0 l/m² 4,8 km/h (1 Bft) N-NW 327 ° 1 min 84 W/m² 8,9 °C 10,0 °C 12,9 km/h (3 Bft)
03.10.2024 09:32 17,8 °C 10,0 °C 57 % 93 % 1015,2 hPa 0,0 l/m² 4,4 km/h (1 Bft) NW 317 ° 1 min 84 W/m² 8,9 °C 10,0 °C 8,0 km/h (2 Bft)
03.10.2024 09:33 17,8 °C 10,0 °C 57 % 93 % 1015,2 hPa 0,0 l/m² 5,7 km/h (2 Bft) NW 309 ° 1 min 81 W/m² 8,9 °C 10,0 °C 12,9 km/h (3 Bft)
03.10.2024 09:34 17,8 °C 10,0 °C 57 % 93 % 1015,2 hPa 0,0 l/m² 3,5 km/h (1 Bft) NW 325 ° 1 min 77 W/m² 8,9 °C 10,0 °C 9,7 km/h (2 Bft)
03.10.2024 09:35 17,8 °C 10,0 °C 57 % 93 % 1015,2 hPa 0,0 l/m² 6,2 km/h (2 Bft) NW 304 ° 1 min 84 W/m² 8,9 °C 10,0 °C 11,3 km/h (2 Bft)
03.10.2024 09:36 17,8 °C 10,0 °C 57 % 93 % 1015,2 hPa 0,0 l/m² 1,6 km/h (1 Bft) NW 315 ° 1 min 86 W/m² 8,9 °C 10,0 °C 3,2 km/h (1 Bft)
03.10.2024 09:37 17,8 °C 10,1 °C 57 % 93 % 1015,2 hPa 0,0 l/m² 3,4 km/h (1 Bft) W 278 ° 1 min 86 W/m² 9,0 °C 10,1 °C 11,3 km/h (2 Bft)
03.10.2024 09:38 17,8 °C 10,1 °C 57 % 93 % 1015,2 hPa 0,0 l/m² 3,9 km/h (1 Bft) N-NW 342 ° 1 min 91 W/m² 9,0 °C 10,1 °C 9,7 km/h (2 Bft)
03.10.2024 09:39 17,8 °C 10,1 °C 57 % 93 % 1015,2 hPa 0,0 l/m² 8,6 km/h (2 Bft) N 350 ° 1 min 95 W/m² 9,0 °C 8,6 °C 14,5 km/h (3 Bft)
03.10.2024 09:40 17,8 °C 10,1 °C 57 % 93 % 1015,2 hPa 0,0 l/m² 5,8 km/h (2 Bft) N-NW 346 ° 1 min 100 W/m² 9,0 °C 10,1 °C 9,7 km/h (2 Bft)
03.10.2024 09:41 17,8 °C 10,1 °C 57 % 93 % 1015,2 hPa 0,0 l/m² 8,4 km/h (2 Bft) NW 306 ° 1 min 102 W/m² 9,0 °C 8,7 °C 16,1 km/h (3 Bft)
03.10.2024 09:42 17,8 °C 10,1 °C 57 % 93 % 1015,2 hPa 0,0 l/m² 11,7 km/h (2 Bft) N-NW 327 ° 1 min 104 W/m² 9,0 °C 6,8 °C 16,1 km/h (3 Bft)
03.10.2024 09:43 17,8 °C 10,1 °C 57 % 93 % 1015,1 hPa 0,0 l/m² 11,8 km/h (2 Bft) NW 319 ° 1 min 105 W/m² 9,0 °C 6,7 °C 16,1 km/h (3 Bft)
03.10.2024 09:44 17,8 °C 10,1 °C 57 % 93 % 1015,2 hPa 0,0 l/m² 10,9 km/h (2 Bft) NW 320 ° 1 min 105 W/m² 9,0 °C 7,2 °C 17,7 km/h (3 Bft)
03.10.2024 09:45 17,8 °C 10,1 °C 57 % 93 % 1015,2 hPa 0,0 l/m² 16,1 km/h (3 Bft) NW 321 ° 1 min 109 W/m² 9,0 °C 4,8 °C 16,1 km/h (3 Bft)
03.10.2024 09:46 17,8 °C 10,1 °C 57 % 93 % 1015,2 hPa 0,0 l/m² 8,5 km/h (2 Bft) NW 304 ° 1 min 111 W/m² 9,0 °C 8,6 °C 17,7 km/h (3 Bft)
03.10.2024 09:47 17,8 °C 10,1 °C 57 % 93 % 1015,2 hPa 0,0 l/m² 11,4 km/h (2 Bft) N-NW 328 ° 1 min 113 W/m² 9,0 °C 6,9 °C 20,9 km/h (4 Bft)
03.10.2024 09:48 17,8 °C 10,1 °C 57 % 93 % 1015,2 hPa 0,0 l/m² 13,8 km/h (3 Bft) NW 325 ° 1 min 114 W/m² 9,0 °C 5,8 °C 19,3 km/h (3 Bft)
03.10.2024 09:49 17,8 °C 10,1 °C 57 % 93 % 1015,2 hPa 0,0 l/m² 9,0 km/h (2 Bft) N-NW 342 ° 1 min 116 W/m² 9,0 °C 8,3 °C 19,3 km/h (3 Bft)
03.10.2024 09:50 17,8 °C 10,1 °C 57 % 93 % 1015,2 hPa 0,0 l/m² 10,0 km/h (2 Bft) NW 325 ° 1 min 118 W/m² 9,0 °C 7,7 °C 16,1 km/h (3 Bft)
03.10.2024 09:51 17,8 °C 10,1 °C 57 % 93 % 1015,2 hPa 0,0 l/m² 8,6 km/h (2 Bft) NW 314 ° 1 min 120 W/m² 9,0 °C 8,6 °C 16,1 km/h (3 Bft)
03.10.2024 09:52 17,8 °C 10,1 °C 57 % 93 % 1015,2 hPa 0,0 l/m² 9,3 km/h (2 Bft) W-NW 298 ° 1 min 123 W/m² 9,0 °C 8,1 °C 16,1 km/h (3 Bft)
03.10.2024 09:53 17,8 °C 10,1 °C 57 % 93 % 1015,2 hPa 0,0 l/m² 10,7 km/h (2 Bft) N-NW 342 ° 1 min 125 W/m² 9,0 °C 7,3 °C 17,7 km/h (3 Bft)
03.10.2024 09:54 17,8 °C 10,1 °C 57 % 93 % 1015,2 hPa 0,0 l/m² 12,0 km/h (2 Bft) N-NW 347 ° 1 min 127 W/m² 9,0 °C 6,6 °C 20,9 km/h (4 Bft)
03.10.2024 09:55 17,8 °C 10,1 °C 57 % 93 % 1015,1 hPa 0,0 l/m² 11,8 km/h (2 Bft) N-NW 346 ° 1 min 128 W/m² 9,0 °C 6,7 °C 16,1 km/h (3 Bft)
03.10.2024 09:56 17,8 °C 10,1 °C 57 % 93 % 1015,2 hPa 0,0 l/m² 12,3 km/h (2 Bft) N-NW 329 ° 1 min 132 W/m² 9,0 °C 6,5 °C 24,1 km/h (4 Bft)
03.10.2024 09:57 17,8 °C 10,1 °C 57 % 92 % 1015,2 hPa 0,0 l/m² 10,7 km/h (2 Bft) N 355 ° 1 min 134 W/m² 8,9 °C 7,3 °C 20,9 km/h (4 Bft)
03.10.2024 09:58 17,8 °C 10,1 °C 57 % 92 % 1015,2 hPa 0,0 l/m² 12,2 km/h (2 Bft) N-NW 343 ° 1 min 137 W/m² 8,9 °C 6,5 °C 16,1 km/h (3 Bft)
03.10.2024 09:59 17,8 °C 10,1 °C 57 % 92 % 1015,2 hPa 0,0 l/m² 15,8 km/h (3 Bft) N-NW 345 ° 1 min 141 W/m² 8,9 °C 4,9 °C 19,3 km/h (3 Bft)
03.10.2024 10:00 17,8 °C 10,1 °C 57 % 92 % 1015,2 hPa 0,0 l/m² 12,5 km/h (2 Bft) N-NW 339 ° 1 min 142 W/m² 8,9 °C 6,4 °C 19,3 km/h (3 Bft)
03.10.2024 10:01 17,8 °C 10,1 °C 57 % 92 % 1015,2 hPa 0,0 l/m² 14,7 km/h (3 Bft) N-NW 337 ° 1 min 146 W/m² 8,9 °C 5,4 °C 17,7 km/h (3 Bft)
03.10.2024 10:02 17,8 °C 10,1 °C 57 % 92 % 1015,2 hPa 0,0 l/m² 10,4 km/h (2 Bft) N-NW 332 ° 1 min 148 W/m² 8,9 °C 7,5 °C 16,1 km/h (3 Bft)
03.10.2024 10:03 17,8 °C 10,1 °C 57 % 92 % 1015,2 hPa 0,0 l/m² 5,3 km/h (1 Bft) W-NW 298 ° 1 min 149 W/m² 8,9 °C 10,1 °C 12,9 km/h (3 Bft)
03.10.2024 10:04 17,8 °C 10,1 °C 57 % 92 % 1015,2 hPa 0,0 l/m² 13,9 km/h (3 Bft) N-NW 327 ° 1 min 155 W/m² 8,9 °C 5,7 °C 25,7 km/h (4 Bft)
03.10.2024 10:05 17,8 °C 10,2 °C 57 % 92 % 1015,3 hPa 0,0 l/m² 15,6 km/h (3 Bft) NW 310 ° 1 min 156 W/m² 9,0 °C 5,1 °C 20,9 km/h (4 Bft)
03.10.2024 10:06 17,8 °C 10,2 °C 57 % 92 % 1015,3 hPa 0,0 l/m² 10,1 km/h (2 Bft) N-NW 338 ° 1 min 158 W/m² 9,0 °C 7,8 °C 19,3 km/h (3 Bft)
03.10.2024 10:07 17,8 °C 10,2 °C 57 % 92 % 1015,2 hPa 0,0 l/m² 7,7 km/h (2 Bft) N-NW 330 ° 1 min 160 W/m² 9,0 °C 9,3 °C 16,1 km/h (3 Bft)
03.10.2024 10:08 17,8 °C 10,2 °C 57 % 92 % 1015,3 hPa 0,0 l/m² 13,3 km/h (3 Bft) N-NW 328 ° 1 min 160 W/m² 9,0 °C 6,1 °C 19,3 km/h (3 Bft)
03.10.2024 10:09 17,8 °C 10,2 °C 57 % 92 % 1015,3 hPa 0,0 l/m² 5,9 km/h (2 Bft) N-NW 327 ° 1 min 158 W/m² 9,0 °C 10,2 °C 12,9 km/h (3 Bft)
03.10.2024 10:10 17,8 °C 10,2 °C 57 % 92 % 1015,3 hPa 0,0 l/m² 8,6 km/h (2 Bft) W-NW 297 ° 1 min 162 W/m² 9,0 °C 8,7 °C 14,5 km/h (3 Bft)
03.10.2024 10:11 17,8 °C 10,2 °C 57 % 92 % 1015,3 hPa 0,0 l/m² 7,3 km/h (2 Bft) NW 325 ° 1 min 163 W/m² 9,0 °C 9,6 °C 14,5 km/h (3 Bft)
03.10.2024 10:12 17,8 °C 10,2 °C 57 % 92 % 1015,3 hPa 0,0 l/m² 10,0 km/h (2 Bft) NW 317 ° 1 min 169 W/m² 9,0 °C 7,8 °C 17,7 km/h (3 Bft)
03.10.2024 10:13 17,8 °C 10,3 °C 57 % 92 % 1015,3 hPa 0,0 l/m² 8,0 km/h (2 Bft) N-NW 348 ° 1 min 172 W/m² 9,1 °C 9,2 °C 14,5 km/h (3 Bft)
03.10.2024 10:14 17,8 °C 10,3 °C 57 % 92 % 1015,3 hPa 0,0 l/m² 5,6 km/h (2 Bft) NW 304 ° 1 min 178 W/m² 9,1 °C 10,3 °C 11,3 km/h (2 Bft)
03.10.2024 10:15 17,8 °C 10,3 °C 57 % 92 % 1015,3 hPa 0,0 l/m² 5,0 km/h (1 Bft) N-NW 346 ° 1 min 183 W/m² 9,1 °C 10,3 °C 11,3 km/h (2 Bft)
03.10.2024 10:17 17,8 °C 10,3 °C 57 % 92 % 1015,3 hPa 0,0 l/m² 12,3 km/h (2 Bft) N-NW 336 ° 2 min 192 W/m² 9,1 °C 6,7 °C 17,7 km/h (3 Bft)
03.10.2024 10:18 17,8 °C 10,3 °C 57 % 92 % 1015,3 hPa 0,0 l/m² 8,0 km/h (2 Bft) N-NW 340 ° 1 min 195 W/m² 9,1 °C 9,2 °C 14,5 km/h (3 Bft)
03.10.2024 10:19 17,8 °C 10,3 °C 57 % 92 % 1015,3 hPa 0,0 l/m² 6,3 km/h (2 Bft) W 271 ° 1 min 197 W/m² 9,1 °C 10,3 °C 14,5 km/h (3 Bft)
03.10.2024 10:20 17,8 °C 10,3 °C 57 % 92 % 1015,3 hPa 0,0 l/m² 7,6 km/h (2 Bft) W-NW 300 ° 1 min 199 W/m² 9,1 °C 9,4 °C 14,5 km/h (3 Bft)
03.10.2024 10:21 17,8 °C 10,4 °C 57 % 92 % 1015,3 hPa 0,0 l/m² 10,1 km/h (2 Bft) N-NW 333 ° 1 min 193 W/m² 9,2 °C 8,0 °C 14,5 km/h (3 Bft)
03.10.2024 10:22 17,8 °C 10,4 °C 57 % 92 % 1015,3 hPa 0,0 l/m² 8,9 km/h (2 Bft) N-NW 338 ° 1 min 193 W/m² 9,2 °C 8,7 °C 14,5 km/h (3 Bft)
03.10.2024 10:23 17,8 °C 10,4 °C 57 % 92 % 1015,3 hPa 0,0 l/m² 10,3 km/h (2 Bft) N-NW 330 ° 1 min 186 W/m² 9,2 °C 7,9 °C 16,1 km/h (3 Bft)
03.10.2024 10:24 17,8 °C 10,4 °C 57 % 92 % 1015,3 hPa 0,0 l/m² 4,6 km/h (1 Bft) N-NW 346 ° 1 min 185 W/m² 9,2 °C 10,4 °C 11,3 km/h (2 Bft)
03.10.2024 10:25 17,8 °C 10,4 °C 57 % 92 % 1015,3 hPa 0,0 l/m² 8,4 km/h (2 Bft) N-NW 331 ° 1 min 188 W/m² 9,2 °C 9,0 °C 14,5 km/h (3 Bft)
03.10.2024 10:26 17,8 °C 10,4 °C 57 % 92 % 1015,3 hPa 0,0 l/m² 8,2 km/h (2 Bft) NW 325 ° 1 min 197 W/m² 9,2 °C 9,1 °C 16,1 km/h (3 Bft)
03.10.2024 10:27 17,8 °C 10,4 °C 57 % 92 % 1015,3 hPa 0,0 l/m² 3,2 km/h (1 Bft) N 360 ° 1 min 193 W/m² 9,2 °C 10,4 °C 6,4 km/h (2 Bft)
03.10.2024 10:28 17,8 °C 10,6 °C 57 % 92 % 1015,4 hPa 0,0 l/m² 5,0 km/h (1 Bft) N-NW 336 ° 1 min 190 W/m² 9,4 °C 10,6 °C 8,0 km/h (2 Bft)
03.10.2024 10:29 17,8 °C 10,5 °C 57 % 92 % 1015,4 hPa 0,0 l/m² 5,3 km/h (1 Bft) NW 319 ° 1 min 188 W/m² 9,3 °C 10,5 °C 8,0 km/h (2 Bft)
03.10.2024 10:30 17,8 °C 10,6 °C 57 % 92 % 1015,3 hPa 0,0 l/m² 5,9 km/h (2 Bft) N-NW 340 ° 1 min 193 W/m² 9,4 °C 10,6 °C 12,9 km/h (3 Bft)
03.10.2024 10:31 17,8 °C 10,6 °C 57 % 92 % 1015,4 hPa 0,0 l/m² 9,3 km/h (2 Bft) N-NW 334 ° 1 min 186 W/m² 9,4 °C 8,7 °C 16,1 km/h (3 Bft)
03.10.2024 10:32 17,8 °C 10,6 °C 57 % 92 % 1015,4 hPa 0,0 l/m² 8,9 km/h (2 Bft) W-NW 294 ° 1 min 172 W/m² 9,4 °C 8,9 °C 14,5 km/h (3 Bft)
03.10.2024 10:33 17,8 °C 10,6 °C 57 % 92 % 1015,4 hPa 0,0 l/m² 15,7 km/h (3 Bft) N-NW 338 ° 1 min 160 W/m² 9,4 °C 5,6 °C 20,9 km/h (4 Bft)
03.10.2024 10:34 17,8 °C 10,6 °C 57 % 92 % 1015,4 hPa 0,0 l/m² 10,4 km/h (2 Bft) N-NW 347 ° 1 min 158 W/m² 9,4 °C 8,0 °C 17,7 km/h (3 Bft)
03.10.2024 10:35 17,8 °C 10,7 °C 57 % 91 % 1015,4 hPa 0,0 l/m² 9,7 km/h (2 Bft) NW 322 ° 1 min 162 W/m² 9,3 °C 8,5 °C 16,1 km/h (3 Bft)
03.10.2024 10:36 17,8 °C 10,7 °C 57 % 91 % 1015,4 hPa 0,0 l/m² 13,4 km/h (3 Bft) N 355 ° 1 min 156 W/m² 9,3 °C 6,7 °C 20,9 km/h (4 Bft)
03.10.2024 10:37 17,8 °C 10,7 °C 57 % 91 % 1015,4 hPa 0,0 l/m² 15,4 km/h (3 Bft) N-NW 329 ° 1 min 148 W/m² 9,3 °C 5,8 °C 19,3 km/h (3 Bft)
03.10.2024 10:38 17,8 °C 10,7 °C 57 % 91 % 1015,4 hPa 0,0 l/m² 10,9 km/h (2 Bft) NW 321 ° 1 min 141 W/m² 9,3 °C 7,9 °C 16,1 km/h (3 Bft)
03.10.2024 10:39 17,8 °C 10,7 °C 57 % 91 % 1015,4 hPa 0,0 l/m² 9,3 km/h (2 Bft) NW 312 ° 1 min 134 W/m² 9,3 °C 8,8 °C 14,5 km/h (3 Bft)
03.10.2024 10:40 17,8 °C 10,7 °C 57 % 91 % 1015,5 hPa 0,0 l/m² 8,2 km/h (2 Bft) NW 325 ° 1 min 141 W/m² 9,3 °C 9,5 °C 16,1 km/h (3 Bft)
03.10.2024 10:41 17,8 °C 10,7 °C 57 % 91 % 1015,5 hPa 0,0 l/m² 7,4 km/h (2 Bft) N-NW 336 ° 1 min 141 W/m² 9,3 °C 10,0 °C 14,5 km/h (3 Bft)
03.10.2024 10:42 17,8 °C 10,7 °C 57 % 91 % 1015,4 hPa 0,0 l/m² 10,9 km/h (2 Bft) NW 317 ° 1 min 130 W/m² 9,3 °C 7,9 °C 16,1 km/h (3 Bft)
03.10.2024 10:43 17,8 °C 10,7 °C 57 % 91 % 1015,4 hPa 0,0 l/m² 5,0 km/h (1 Bft) NW 313 ° 1 min 130 W/m² 9,3 °C 10,7 °C 9,7 km/h (2 Bft)
03.10.2024 10:44 17,8 °C 10,7 °C 57 % 91 % 1015,4 hPa 0,0 l/m² 7,4 km/h (2 Bft) NW 306 ° 1 min 130 W/m² 9,3 °C 10,0 °C 12,9 km/h (3 Bft)
03.10.2024 10:45 17,8 °C 10,7 °C 57 % 91 % 1015,5 hPa 0,0 l/m² 9,0 km/h (2 Bft) N 355 ° 1 min 121 W/m² 9,3 °C 9,0 °C 14,5 km/h (3 Bft)
03.10.2024 10:46 17,8 °C 10,7 °C 57 % 91 % 1015,5 hPa 0,0 l/m² 3,5 km/h (1 Bft) N 355 ° 1 min 116 W/m² 9,3 °C 10,7 °C 6,4 km/h (2 Bft)
03.10.2024 10:47 17,8 °C 10,7 °C 57 % 91 % 1015,5 hPa 0,0 l/m² 7,1 km/h (2 Bft) N-NW 327 ° 1 min 113 W/m² 9,3 °C 10,2 °C 9,7 km/h (2 Bft)
03.10.2024 10:48 17,8 °C 10,8 °C 57 % 91 % 1015,5 hPa 0,0 l/m² 3,4 km/h (1 Bft) W-NW 298 ° 1 min 116 W/m² 9,4 °C 10,8 °C 6,4 km/h (2 Bft)
03.10.2024 10:49 17,8 °C 10,8 °C 57 % 91 % 1015,5 hPa 0,0 l/m² 3,3 km/h (1 Bft) NW 306 ° 1 min 118 W/m² 9,4 °C 10,8 °C 14,5 km/h (3 Bft)
03.10.2024 10:50 17,8 °C 10,8 °C 57 % 91 % 1015,5 hPa 0,0 l/m² 7,3 km/h (2 Bft) N 349 ° 1 min 116 W/m² 9,4 °C 10,2 °C 12,9 km/h (3 Bft)
03.10.2024 10:51 17,8 °C 10,8 °C 57 % 90 % 1015,5 hPa 0,0 l/m² 6,2 km/h (2 Bft) N-NW 333 ° 1 min 125 W/m² 9,2 °C 10,8 °C 9,7 km/h (2 Bft)
03.10.2024 10:52 17,8 °C 10,8 °C 57 % 90 % 1015,5 hPa 0,0 l/m² 8,6 km/h (2 Bft) W-NW 286 ° 1 min 114 W/m² 9,2 °C 9,3 °C 12,9 km/h (3 Bft)
03.10.2024 10:53 17,8 °C 10,8 °C 57 % 90 % 1015,5 hPa 0,0 l/m² 7,7 km/h (2 Bft) NW 315 ° 1 min 105 W/m² 9,2 °C 9,9 °C 12,9 km/h (3 Bft)
03.10.2024 10:54 17,8 °C 10,8 °C 57 % 90 % 1015,6 hPa 0,0 l/m² 8,3 km/h (2 Bft) N-NW 346 ° 1 min 104 W/m² 9,2 °C 9,5 °C 16,1 km/h (3 Bft)
03.10.2024 10:55 17,8 °C 10,8 °C 57 % 90 % 1015,5 hPa 0,0 l/m² 13,6 km/h (3 Bft) NW 312 ° 1 min 107 W/m² 9,2 °C 6,7 °C 19,3 km/h (3 Bft)
03.10.2024 10:56 17,8 °C 10,8 °C 57 % 90 % 1015,5 hPa 0,0 l/m² 7,8 km/h (2 Bft) W-NW 299 ° 1 min 111 W/m² 9,2 °C 9,8 °C 12,9 km/h (3 Bft)
03.10.2024 10:57 17,8 °C 10,8 °C 57 % 90 % 1015,6 hPa 0,0 l/m² 8,4 km/h (2 Bft) NW 313 ° 1 min 114 W/m² 9,2 °C 9,4 °C 16,1 km/h (3 Bft)
03.10.2024 10:58 17,8 °C 10,8 °C 57 % 90 % 1015,6 hPa 0,0 l/m² 13,5 km/h (3 Bft) N-NW 337 ° 1 min 116 W/m² 9,2 °C 6,7 °C 19,3 km/h (3 Bft)
03.10.2024 10:59 17,8 °C 10,8 °C 57 % 90 % 1015,6 hPa 0,0 l/m² 12,5 km/h (2 Bft) N-NW 343 ° 1 min 125 W/m² 9,2 °C 7,2 °C 19,3 km/h (3 Bft)
03.10.2024 11:00 17,8 °C 10,8 °C 57 % 90 % 1015,6 hPa 0,0 l/m² 9,4 km/h (2 Bft) N-NW 332 ° 1 min 130 W/m² 9,2 °C 8,8 °C 14,5 km/h (3 Bft)
03.10.2024 11:01 17,8 °C 10,8 °C 57 % 90 % 1015,6 hPa 0,0 l/m² 10,7 km/h (2 Bft) N-NW 348 ° 1 min 123 W/m² 9,2 °C 8,1 °C 16,1 km/h (3 Bft)
03.10.2024 11:02 17,8 °C 10,7 °C 57 % 90 % 1015,7 hPa 0,0 l/m² 8,0 km/h (2 Bft) N-NW 335 ° 1 min 121 W/m² 9,1 °C 9,6 °C 17,7 km/h (3 Bft)
03.10.2024 11:03 17,8 °C 10,8 °C 57 % 90 % 1015,6 hPa 0,0 l/m² 8,6 km/h (2 Bft) N-NW 338 ° 1 min 134 W/m² 9,2 °C 9,3 °C 17,7 km/h (3 Bft)
03.10.2024 11:04 17,8 °C 10,8 °C 57 % 90 % 1015,6 hPa 0,0 l/m² 12,4 km/h (2 Bft) NW 308 ° 1 min 137 W/m² 9,2 °C 7,2 °C 17,7 km/h (3 Bft)
03.10.2024 11:05 17,8 °C 10,8 °C 57 % 89 % 1015,6 hPa 0,0 l/m² 14,9 km/h (3 Bft) NW 323 ° 1 min 128 W/m² 9,1 °C 6,1 °C 19,3 km/h (3 Bft)
03.10.2024 11:07 17,8 °C 10,8 °C 57 % 89 % 1015,6 hPa 0,0 l/m² 11,1 km/h (2 Bft) N-NW 337 ° 2 min 120 W/m² 9,1 °C 7,9 °C 17,7 km/h (3 Bft)
03.10.2024 11:08 17,8 °C 10,8 °C 57 % 89 % 1015,6 hPa 0,0 l/m² 11,8 km/h (2 Bft) N-NW 336 ° 1 min 121 W/m² 9,1 °C 7,5 °C 17,7 km/h (3 Bft)
03.10.2024 11:09 17,8 °C 10,8 °C 57 % 89 % 1015,6 hPa 0,0 l/m² 12,6 km/h (3 Bft) W-NW 302 ° 1 min 114 W/m² 9,1 °C 7,1 °C 17,7 km/h (3 Bft)
03.10.2024 11:10 17,8 °C 10,8 °C 57 % 89 % 1015,8 hPa 0,0 l/m² 7,5 km/h (2 Bft) N-NW 329 ° 1 min 104 W/m² 9,1 °C 10,0 °C 12,9 km/h (3 Bft)
03.10.2024 11:12 17,8 °C 10,8 °C 57 % 89 % 1015,7 hPa 0,0 l/m² 13,0 km/h (3 Bft) N-NW 338 ° 2 min 109 W/m² 9,1 °C 7,0 °C 19,3 km/h (3 Bft)
03.10.2024 11:13 17,8 °C 10,8 °C 57 % 89 % 1015,7 hPa 0,0 l/m² 8,8 km/h (2 Bft) W-NW 284 ° 1 min 111 W/m² 9,1 °C 9,2 °C 14,5 km/h (3 Bft)
03.10.2024 11:14 17,8 °C 10,8 °C 57 % 89 % 1015,7 hPa 0,0 l/m² 5,6 km/h (2 Bft) N 360 ° 1 min 128 W/m² 9,1 °C 10,8 °C 8,0 km/h (2 Bft)
03.10.2024 11:15 17,8 °C 10,8 °C 57 % 89 % 1015,8 hPa 0,0 l/m² 7,6 km/h (2 Bft) W-NW 302 ° 1 min 137 W/m² 9,1 °C 10,0 °C 16,1 km/h (3 Bft)
03.10.2024 11:17 17,8 °C 10,8 °C 57 % 89 % 1015,6 hPa 0,0 l/m² 8,3 km/h (2 Bft) NW 313 ° 2 min 132 W/m² 9,1 °C 9,5 °C 12,9 km/h (3 Bft)
03.10.2024 11:18 17,8 °C 10,8 °C 57 % 89 % 1015,6 hPa 0,0 l/m² 6,6 km/h (2 Bft) W-NW 298 ° 1 min 130 W/m² 9,1 °C 10,7 °C 11,3 km/h (2 Bft)
03.10.2024 11:19 17,8 °C 10,8 °C 57 % 89 % 1015,7 hPa 0,0 l/m² 8,8 km/h (2 Bft) N-NW 341 ° 1 min 132 W/m² 9,1 °C 9,2 °C 14,5 km/h (3 Bft)
03.10.2024 11:20 17,8 °C 10,8 °C 57 % 89 % 1015,6 hPa 0,0 l/m² 7,8 km/h (2 Bft) NW 313 ° 1 min 148 W/m² 9,1 °C 9,8 °C 14,5 km/h (3 Bft)
03.10.2024 11:21 17,8 °C 10,8 °C 57 % 89 % 1015,7 hPa 0,0 l/m² 10,6 km/h (2 Bft) N-NW 346 ° 1 min 155 W/m² 9,1 °C 8,2 °C 17,7 km/h (3 Bft)
03.10.2024 11:22 17,8 °C 10,9 °C 57 % 89 % 1015,7 hPa 0,0 l/m² 8,3 km/h (2 Bft) NW 316 ° 1 min 160 W/m² 9,2 °C 9,6 °C 14,5 km/h (3 Bft)
03.10.2024 11:23 17,8 °C 10,9 °C 57 % 89 % 1015,8 hPa 0,0 l/m² 9,5 km/h (2 Bft) N-NW 342 ° 1 min 158 W/m² 9,2 °C 8,9 °C 16,1 km/h (3 Bft)
03.10.2024 11:24 17,8 °C 10,9 °C 57 % 89 % 1015,7 hPa 0,0 l/m² 9,5 km/h (2 Bft) NW 319 ° 1 min 156 W/m² 9,2 °C 8,9 °C 16,1 km/h (3 Bft)
03.10.2024 11:25 17,8 °C 10,9 °C 57 % 89 % 1015,6 hPa 0,0 l/m² 8,9 km/h (2 Bft) N-NW 330 ° 1 min 153 W/m² 9,2 °C 9,2 °C 12,9 km/h (3 Bft)
03.10.2024 11:26 17,8 °C 10,9 °C 57 % 89 % 1015,8 hPa 0,0 l/m² 6,4 km/h (2 Bft) N-NW 340 ° 1 min 144 W/m² 9,2 °C 10,9 °C 9,7 km/h (2 Bft)
03.10.2024 11:27 17,8 °C 10,9 °C 57 % 89 % 1015,7 hPa 0,0 l/m² 9,4 km/h (2 Bft) NW 323 ° 1 min 135 W/m² 9,2 °C 8,9 °C 17,7 km/h (3 Bft)
03.10.2024 11:28 17,8 °C 10,9 °C 57 % 89 % 1015,7 hPa 0,0 l/m² 6,0 km/h (2 Bft) N-NW 330 ° 1 min 132 W/m² 9,2 °C 10,9 °C 12,9 km/h (3 Bft)
03.10.2024 11:29 17,8 °C 10,9 °C 57 % 89 % 1015,8 hPa 0,0 l/m² 4,4 km/h (1 Bft) W 279 ° 1 min 128 W/m² 9,2 °C 10,9 °C 9,7 km/h (2 Bft)
03.10.2024 11:30 17,8 °C 10,9 °C 57 % 89 % 1015,8 hPa 0,0 l/m² 7,7 km/h (2 Bft) N-NW 333 ° 1 min 121 W/m² 9,2 °C 10,0 °C 16,1 km/h (3 Bft)
03.10.2024 11:31 17,8 °C 10,9 °C 57 % 89 % 1015,9 hPa 0,0 l/m² 9,9 km/h (2 Bft) NW 319 ° 1 min 114 W/m² 9,2 °C 8,6 °C 17,7 km/h (3 Bft)
03.10.2024 11:32 17,8 °C 10,9 °C 57 % 89 % 1015,9 hPa 0,0 l/m² 11,1 km/h (2 Bft) NW 319 ° 1 min 90 W/m² 9,2 °C 8,0 °C 16,1 km/h (3 Bft)
03.10.2024 11:33 17,8 °C 10,9 °C 57 % 89 % 1016,0 hPa 0,0 l/m² 9,3 km/h (2 Bft) W-NW 292 ° 1 min 90 W/m² 9,2 °C 9,0 °C 14,5 km/h (3 Bft)
03.10.2024 11:34 17,8 °C 10,9 °C 57 % 89 % 1015,9 hPa 0,0 l/m² 12,1 km/h (2 Bft) N-NW 331 ° 1 min 90 W/m² 9,2 °C 7,5 °C 17,7 km/h (3 Bft)
03.10.2024 11:35 17,8 °C 10,9 °C 57 % 89 % 1015,9 hPa 0,0 l/m² 11,1 km/h (2 Bft) N-NW 331 ° 1 min 91 W/m² 9,2 °C 8,0 °C 16,1 km/h (3 Bft)
03.10.2024 11:36 17,8 °C 10,9 °C 57 % 89 % 1015,9 hPa 0,0 l/m² 14,7 km/h (3 Bft) N-NW 346 ° 1 min 93 W/m² 9,2 °C 6,3 °C 20,9 km/h (4 Bft)
03.10.2024 11:37 17,8 °C 10,9 °C 57 % 88 % 1015,9 hPa 0,0 l/m² 11,5 km/h (2 Bft) N 351 ° 1 min 102 W/m² 9,0 °C 7,8 °C 19,3 km/h (3 Bft)
03.10.2024 11:38 17,7 °C 10,9 °C 57 % 88 % 1016,0 hPa 0,0 l/m² 12,5 km/h (2 Bft) NW 304 ° 1 min 100 W/m² 9,0 °C 7,3 °C 17,7 km/h (3 Bft)
03.10.2024 11:39 17,8 °C 10,9 °C 57 % 88 % 1015,9 hPa 0,0 l/m² 12,3 km/h (2 Bft) N-NW 339 ° 1 min 95 W/m² 9,0 °C 7,4 °C 19,3 km/h (3 Bft)
03.10.2024 11:40 17,8 °C 10,9 °C 57 % 88 % 1015,9 hPa 0,0 l/m² 10,9 km/h (2 Bft) N-NW 341 ° 1 min 91 W/m² 9,0 °C 8,1 °C 16,1 km/h (3 Bft)
03.10.2024 11:41 17,8 °C 10,9 °C 57 % 88 % 1016,0 hPa 0,0 l/m² 11,8 km/h (2 Bft) N 360 ° 1 min 95 W/m² 9,0 °C 7,6 °C 16,1 km/h (3 Bft)
03.10.2024 11:42 17,8 °C 10,9 °C 57 % 88 % 1016,1 hPa 0,0 l/m² 7,0 km/h (2 Bft) N-NW 333 ° 1 min 97 W/m² 9,0 °C 10,5 °C 12,9 km/h (3 Bft)
03.10.2024 11:43 17,8 °C 10,9 °C 57 % 88 % 1016,0 hPa 0,0 l/m² 7,0 km/h (2 Bft) N-NW 342 ° 1 min 86 W/m² 9,0 °C 10,5 °C 12,9 km/h (3 Bft)
03.10.2024 11:44 17,8 °C 10,9 °C 57 % 88 % 1016,1 hPa 0,0 l/m² 10,3 km/h (2 Bft) N 11 ° 1 min 86 W/m² 9,0 °C 8,4 °C 14,5 km/h (3 Bft)
03.10.2024 11:45 17,8 °C 10,9 °C 57 % 88 % 1016,1 hPa 0,0 l/m² 7,5 km/h (2 Bft) NW 310 ° 1 min 90 W/m² 9,0 °C 10,1 °C 12,9 km/h (3 Bft)
03.10.2024 11:46 17,8 °C 10,9 °C 57 % 88 % 1016,4 hPa 0,0 l/m² 8,2 km/h (2 Bft) N-NW 328 ° 1 min 95 W/m² 9,0 °C 9,7 °C 14,5 km/h (3 Bft)
03.10.2024 11:47 17,8 °C 10,9 °C 57 % 88 % 1016,0 hPa 0,0 l/m² 10,0 km/h (2 Bft) NW 314 ° 1 min 102 W/m² 9,0 °C 8,6 °C 17,7 km/h (3 Bft)
03.10.2024 11:48 17,8 °C 10,9 °C 57 % 88 % 1016,1 hPa 0,0 l/m² 10,9 km/h (2 Bft) N-NW 338 ° 1 min 105 W/m² 9,0 °C 8,1 °C 16,1 km/h (3 Bft)
03.10.2024 11:49 17,8 °C 10,9 °C 57 % 88 % 1016,1 hPa 0,0 l/m² 8,4 km/h (2 Bft) N 355 ° 1 min 100 W/m² 9,0 °C 9,5 °C 16,1 km/h (3 Bft)
03.10.2024 11:50 17,8 °C 10,9 °C 57 % 88 % 1016,1 hPa 0,0 l/m² 16,4 km/h (3 Bft) NW 312 ° 1 min 105 W/m² 9,0 °C 5,7 °C 20,9 km/h (4 Bft)
03.10.2024 11:51 17,8 °C 10,9 °C 57 % 88 % 1016,0 hPa 0,0 l/m² 10,2 km/h (2 Bft) N 360 ° 1 min 109 W/m² 9,0 °C 8,5 °C 14,5 km/h (3 Bft)
03.10.2024 11:52 17,8 °C 10,9 °C 57 % 88 % 1016,0 hPa 0,0 l/m² 8,3 km/h (2 Bft) N-NW 336 ° 1 min 111 W/m² 9,0 °C 9,6 °C 14,5 km/h (3 Bft)
03.10.2024 11:53 17,8 °C 10,9 °C 57 % 88 % 1016,0 hPa 0,0 l/m² 5,8 km/h (2 Bft) N-NW 332 ° 1 min 111 W/m² 9,0 °C 10,9 °C 9,7 km/h (2 Bft)
03.10.2024 11:54 17,8 °C 10,9 °C 57 % 88 % 1016,0 hPa 0,0 l/m² 7,7 km/h (2 Bft) N-NW 342 ° 1 min 113 W/m² 9,0 °C 10,0 °C 16,1 km/h (3 Bft)
03.10.2024 11:55 17,8 °C 10,9 °C 57 % 88 % 1016,0 hPa 0,0 l/m² 4,4 km/h (1 Bft) N-NW 330 ° 1 min 120 W/m² 9,0 °C 10,9 °C 8,0 km/h (2 Bft)
03.10.2024 11:56 17,8 °C 10,9 °C 57 % 88 % 1016,1 hPa 0,0 l/m² 7,5 km/h (2 Bft) N-NW 332 ° 1 min 114 W/m² 9,0 °C 10,1 °C 14,5 km/h (3 Bft)
03.10.2024 11:57 17,8 °C 10,9 °C 57 % 88 % 1016,1 hPa 0,0 l/m² 13,2 km/h (3 Bft) N-NW 338 ° 1 min 113 W/m² 9,0 °C 7,0 °C 19,3 km/h (3 Bft)
03.10.2024 11:58 17,8 °C 10,9 °C 57 % 88 % 1016,1 hPa 0,0 l/m² 12,2 km/h (2 Bft) N-NW 343 ° 1 min 109 W/m² 9,0 °C 7,5 °C 16,1 km/h (3 Bft)
03.10.2024 11:59 17,8 °C 10,9 °C 57 % 88 % 1016,1 hPa 0,0 l/m² 10,0 km/h (2 Bft) W-NW 299 ° 1 min 102 W/m² 9,0 °C 8,6 °C 17,7 km/h (3 Bft)
03.10.2024 12:00 17,8 °C 10,9 °C 57 % 88 % 1016,1 hPa 0,0 l/m² 11,5 km/h (2 Bft) N-NW 342 ° 1 min 98 W/m² 9,0 °C 7,8 °C 19,3 km/h (3 Bft)
03.10.2024 12:01 17,8 °C 10,9 °C 57 % 88 % 1016,0 hPa 0,0 l/m² 7,3 km/h (2 Bft) W-NW 293 ° 1 min 98 W/m² 9,0 °C 10,3 °C 14,5 km/h (3 Bft)
03.10.2024 12:02 17,8 °C 10,9 °C 57 % 88 % 1016,1 hPa 0,0 l/m² 6,2 km/h (2 Bft) N-NW 327 ° 1 min 105 W/m² 9,0 °C 10,9 °C 14,5 km/h (3 Bft)
03.10.2024 12:03 17,8 °C 10,9 °C 57 % 88 % 1016,1 hPa 0,0 l/m² 7,9 km/h (2 Bft) NW 317 ° 1 min 111 W/m² 9,0 °C 9,9 °C 16,1 km/h (3 Bft)
03.10.2024 12:04 17,8 °C 10,9 °C 57 % 88 % 1016,1 hPa 0,0 l/m² 9,8 km/h (2 Bft) N-NW 343 ° 1 min 105 W/m² 9,0 °C 8,7 °C 14,5 km/h (3 Bft)
03.10.2024 12:05 17,8 °C 10,9 °C 57 % 88 % 1016,1 hPa 0,0 l/m² 6,6 km/h (2 Bft) N-NW 346 ° 1 min 102 W/m² 9,0 °C 10,8 °C 9,7 km/h (2 Bft)
03.10.2024 12:06 17,8 °C 11,0 °C 57 % 88 % 1016,1 hPa 0,0 l/m² 5,0 km/h (1 Bft) NW 326 ° 1 min 97 W/m² 9,1 °C 11,0 °C 6,4 km/h (2 Bft)
03.10.2024 12:07 17,7 °C 10,9 °C 57 % 88 % 1016,1 hPa 0,0 l/m² 11,3 km/h (2 Bft) N-NW 346 ° 1 min 84 W/m² 9,0 °C 7,9 °C 16,1 km/h (3 Bft)
03.10.2024 12:08 17,8 °C 11,0 °C 57 % 88 % 1016,1 hPa 0,0 l/m² 15,8 km/h (3 Bft) N-NW 344 ° 1 min 84 W/m² 9,1 °C 6,0 °C 20,9 km/h (4 Bft)
03.10.2024 12:09 17,8 °C 11,0 °C 57 % 88 % 1016,1 hPa 0,0 l/m² 12,2 km/h (2 Bft) N-NW 341 ° 1 min 86 W/m² 9,1 °C 7,6 °C 17,7 km/h (3 Bft)
03.10.2024 12:10 17,8 °C 11,0 °C 57 % 88 % 1016,0 hPa 0,0 l/m² 8,3 km/h (2 Bft) N 349 ° 1 min 81 W/m² 9,1 °C 9,7 °C 12,9 km/h (3 Bft)
03.10.2024 12:11 17,8 °C 10,9 °C 57 % 88 % 1016,1 hPa 0,0 l/m² 6,9 km/h (2 Bft) NW 323 ° 1 min 76 W/m² 9,0 °C 10,6 °C 9,7 km/h (2 Bft)
03.10.2024 12:12 17,8 °C 10,9 °C 57 % 88 % 1016,1 hPa 0,0 l/m² 5,8 km/h (2 Bft) NW 317 ° 1 min 86 W/m² 9,0 °C 10,9 °C 9,7 km/h (2 Bft)
03.10.2024 12:13 17,7 °C 10,9 °C 57 % 88 % 1016,1 hPa 0,0 l/m² 11,9 km/h (2 Bft) NW 313 ° 1 min 95 W/m² 9,0 °C 7,6 °C 24,1 km/h (4 Bft)
03.10.2024 12:14 17,8 °C 11,0 °C 57 % 88 % 1016,2 hPa 0,0 l/m² 13,6 km/h (3 Bft) NW 312 ° 1 min 93 W/m² 9,1 °C 6,9 °C 20,9 km/h (4 Bft)
03.10.2024 12:15 17,8 °C 11,0 °C 57 % 88 % 1016,2 hPa 0,0 l/m² 13,1 km/h (3 Bft) NW 320 ° 1 min 90 W/m² 9,1 °C 7,2 °C 17,7 km/h (3 Bft)
03.10.2024 12:16 17,8 °C 10,9 °C 57 % 88 % 1016,1 hPa 0,0 l/m² 11,5 km/h (2 Bft) N-NW 348 ° 1 min 86 W/m² 9,0 °C 7,8 °C 17,7 km/h (3 Bft)
03.10.2024 12:17 17,8 °C 11,0 °C 57 % 88 % 1016,1 hPa 0,0 l/m² 8,9 km/h (2 Bft) N 355 ° 1 min 84 W/m² 9,1 °C 9,3 °C 12,9 km/h (3 Bft)
03.10.2024 12:18 17,7 °C 10,9 °C 57 % 88 % 1016,1 hPa 0,0 l/m² 10,8 km/h (2 Bft) N-NW 330 ° 1 min 83 W/m² 9,0 °C 8,2 °C 16,1 km/h (3 Bft)
03.10.2024 12:19 17,8 °C 11,0 °C 57 % 88 % 1016,1 hPa 0,0 l/m² 7,1 km/h (2 Bft) NW 314 ° 1 min 74 W/m² 9,1 °C 10,5 °C 14,5 km/h (3 Bft)
03.10.2024 12:20 17,8 °C 11,0 °C 57 % 88 % 1016,0 hPa 0,0 l/m² 8,9 km/h (2 Bft) N 355 ° 1 min 74 W/m² 9,1 °C 9,3 °C 16,1 km/h (3 Bft)
03.10.2024 12:21 17,8 °C 10,9 °C 57 % 88 % 1016,2 hPa 0,0 l/m² 12,4 km/h (2 Bft) NW 319 ° 1 min 74 W/m² 9,0 °C 7,4 °C 17,7 km/h (3 Bft)
03.10.2024 12:22 17,8 °C 11,0 °C 57 % 88 % 1016,1 hPa 0,0 l/m² 8,5 km/h (2 Bft) N-NW 336 ° 1 min 70 W/m² 9,1 °C 9,6 °C 14,5 km/h (3 Bft)
03.10.2024 12:23 17,7 °C 11,0 °C 57 % 88 % 1016,2 hPa 0,0 l/m² 8,4 km/h (2 Bft) W-NW 300 ° 1 min 70 W/m² 9,1 °C 9,6 °C 12,9 km/h (3 Bft)
03.10.2024 12:24 17,8 °C 10,9 °C 57 % 88 % 1016,2 hPa 0,0 l/m² 10,4 km/h (2 Bft) NW 309 ° 1 min 69 W/m² 9,0 °C 8,4 °C 16,1 km/h (3 Bft)
03.10.2024 12:25 17,7 °C 11,0 °C 57 % 88 % 1016,2 hPa 0,0 l/m² 8,4 km/h (2 Bft) N-NW 334 ° 1 min 63 W/m² 9,1 °C 9,6 °C 14,5 km/h (3 Bft)
03.10.2024 12:26 17,7 °C 10,9 °C 57 % 88 % 1016,3 hPa 0,0 l/m² 10,3 km/h (2 Bft) N 11 ° 1 min 63 W/m² 9,0 °C 8,4 °C 14,5 km/h (3 Bft)
03.10.2024 12:27 17,7 °C 11,0 °C 57 % 88 % 1016,2 hPa 0,0 l/m² 9,2 km/h (2 Bft) NW 323 ° 1 min 65 W/m² 9,1 °C 9,2 °C 12,9 km/h (3 Bft)
03.10.2024 12:28 17,8 °C 11,0 °C 57 % 88 % 1016,3 hPa 0,0 l/m² 12,4 km/h (2 Bft) N 355 ° 1 min 67 W/m² 9,1 °C 7,5 °C 17,7 km/h (3 Bft)
03.10.2024 12:29 17,7 °C 11,0 °C 57 % 88 % 1016,2 hPa 0,0 l/m² 14,3 km/h (3 Bft) N-NW 348 ° 1 min 77 W/m² 9,1 °C 6,6 °C 19,3 km/h (3 Bft)
03.10.2024 12:30 17,8 °C 11,0 °C 57 % 88 % 1016,3 hPa 0,0 l/m² 10,6 km/h (2 Bft) N-NW 334 ° 1 min 77 W/m² 9,1 °C 8,4 °C 17,7 km/h (3 Bft)
03.10.2024 12:31 17,8 °C 11,0 °C 57 % 88 % 1016,3 hPa 0,0 l/m² 14,4 km/h (3 Bft) N-NW 336 ° 1 min 74 W/m² 9,1 °C 6,6 °C 19,3 km/h (3 Bft)
03.10.2024 12:32 17,8 °C 11,0 °C 57 % 88 % 1016,3 hPa 0,0 l/m² 15,2 km/h (3 Bft) N-NW 328 ° 1 min 70 W/m² 9,1 °C 6,3 °C 17,7 km/h (3 Bft)
03.10.2024 12:33 17,8 °C 11,0 °C 57 % 88 % 1016,2 hPa 0,0 l/m² 17,4 km/h (3 Bft) N 360 ° 1 min 72 W/m² 9,1 °C 5,4 °C 22,5 km/h (4 Bft)
03.10.2024 12:34 17,8 °C 10,9 °C 57 % 88 % 1016,3 hPa 0,0 l/m² 15,2 km/h (3 Bft) N 360 ° 1 min 76 W/m² 9,0 °C 6,1 °C 20,9 km/h (4 Bft)
03.10.2024 12:35 17,8 °C 10,9 °C 57 % 88 % 1016,3 hPa 0,0 l/m² 14,1 km/h (3 Bft) N-NW 348 ° 1 min 81 W/m² 9,0 °C 6,6 °C 20,9 km/h (4 Bft)
03.10.2024 12:36 17,8 °C 10,9 °C 57 % 88 % 1016,3 hPa 0,0 l/m² 12,2 km/h (2 Bft) N 355 ° 1 min 74 W/m² 9,0 °C 7,5 °C 16,1 km/h (3 Bft)
03.10.2024 12:37 17,8 °C 10,9 °C 57 % 88 % 1016,3 hPa 0,0 l/m² 10,0 km/h (2 Bft) N 360 ° 1 min 77 W/m² 9,0 °C 8,6 °C 12,9 km/h (3 Bft)
03.10.2024 12:38 17,8 °C 10,9 °C 57 % 88 % 1016,3 hPa 0,0 l/m² 8,9 km/h (2 Bft) NW 312 ° 1 min 86 W/m² 9,0 °C 9,2 °C 14,5 km/h (3 Bft)
03.10.2024 12:39 17,7 °C 10,9 °C 57 % 88 % 1016,3 hPa 0,0 l/m² 8,0 km/h (2 Bft) N-NW 344 ° 1 min 107 W/m² 9,0 °C 9,8 °C 12,9 km/h (3 Bft)
03.10.2024 12:40 17,8 °C 10,9 °C 57 % 88 % 1016,3 hPa 0,0 l/m² 7,6 km/h (2 Bft) NW 323 ° 1 min 137 W/m² 9,0 °C 10,1 °C 14,5 km/h (3 Bft)
03.10.2024 12:41 17,7 °C 10,9 °C 57 % 88 % 1016,3 hPa 0,0 l/m² 11,9 km/h (2 Bft) NW 325 ° 1 min 165 W/m² 9,0 °C 7,6 °C 16,1 km/h (3 Bft)
03.10.2024 12:42 17,8 °C 10,9 °C 57 % 88 % 1016,2 hPa 0,0 l/m² 13,5 km/h (3 Bft) N-NW 342 ° 1 min 141 W/m² 9,0 °C 6,9 °C 17,7 km/h (3 Bft)
03.10.2024 12:43 17,8 °C 10,9 °C 57 % 88 % 1016,3 hPa 0,0 l/m² 12,0 km/h (2 Bft) NW 324 ° 1 min 141 W/m² 9,0 °C 7,6 °C 17,7 km/h (3 Bft)
03.10.2024 12:44 17,8 °C 10,9 °C 57 % 88 % 1016,2 hPa 0,0 l/m² 7,4 km/h (2 Bft) W-NW 290 ° 1 min 128 W/m² 9,0 °C 10,2 °C 12,9 km/h (3 Bft)
03.10.2024 12:45 17,8 °C 10,9 °C 57 % 88 % 1016,2 hPa 0,0 l/m² 12,9 km/h (3 Bft) N-NW 342 ° 1 min 121 W/m² 9,0 °C 7,1 °C 19,3 km/h (3 Bft)
03.10.2024 12:46 17,8 °C 10,9 °C 57 % 88 % 1016,2 hPa 0,0 l/m² 10,9 km/h (2 Bft) N-NW 327 ° 1 min 123 W/m² 9,0 °C 8,1 °C 19,3 km/h (3 Bft)
03.10.2024 12:47 17,8 °C 10,9 °C 57 % 88 % 1016,2 hPa 0,0 l/m² 10,3 km/h (2 Bft) N 355 ° 1 min 109 W/m² 9,0 °C 8,4 °C 16,1 km/h (3 Bft)
03.10.2024 12:48 17,8 °C 10,9 °C 57 % 88 % 1016,2 hPa 0,0 l/m² 6,8 km/h (2 Bft) NW 304 ° 1 min 107 W/m² 9,0 °C 10,6 °C 14,5 km/h (3 Bft)
03.10.2024 12:49 17,7 °C 10,9 °C 57 % 88 % 1016,1 hPa 0,0 l/m² 12,2 km/h (2 Bft) N 351 ° 1 min 97 W/m² 9,0 °C 7,5 °C 19,3 km/h (3 Bft)
03.10.2024 12:50 17,8 °C 10,9 °C 57 % 88 % 1016,2 hPa 0,0 l/m² 11,1 km/h (2 Bft) N-NW 340 ° 1 min 104 W/m² 9,0 °C 8,0 °C 16,1 km/h (3 Bft)
03.10.2024 12:51 17,7 °C 10,9 °C 57 % 89 % 1016,2 hPa 0,0 l/m² 10,3 km/h (2 Bft) NW 317 ° 1 min 107 W/m² 9,2 °C 8,4 °C 16,1 km/h (3 Bft)
03.10.2024 12:52 17,7 °C 11,0 °C 57 % 89 % 1016,2 hPa 0,0 l/m² 12,3 km/h (2 Bft) NW 316 ° 1 min 107 W/m² 9,3 °C 7,5 °C 17,7 km/h (3 Bft)
03.10.2024 12:53 17,8 °C 11,0 °C 57 % 89 % 1016,2 hPa 0,0 l/m² 10,7 km/h (2 Bft) N-NW 329 ° 1 min 107 W/m² 9,3 °C 8,3 °C 14,5 km/h (3 Bft)
03.10.2024 12:54 17,7 °C 11,0 °C 57 % 89 % 1016,2 hPa 0,0 l/m² 14,5 km/h (3 Bft) N-NW 340 ° 1 min 132 W/m² 9,3 °C 6,5 °C 17,7 km/h (3 Bft)
03.10.2024 12:55 17,7 °C 11,0 °C 57 % 89 % 1016,2 hPa 0,0 l/m² 10,9 km/h (2 Bft) NW 312 ° 1 min 128 W/m² 9,3 °C 8,2 °C 14,5 km/h (3 Bft)
03.10.2024 12:56 17,8 °C 11,0 °C 57 % 89 % 1016,2 hPa 0,0 l/m² 13,3 km/h (3 Bft) NW 321 ° 1 min 102 W/m² 9,3 °C 7,1 °C 22,5 km/h (4 Bft)
03.10.2024 12:57 17,7 °C 11,0 °C 57 % 89 % 1016,2 hPa 0,0 l/m² 7,5 km/h (2 Bft) N-NW 348 ° 1 min 79 W/m² 9,3 °C 10,2 °C 12,9 km/h (3 Bft)
03.10.2024 12:58 17,7 °C 11,1 °C 57 % 89 % 1016,2 hPa 0,0 l/m² 15,7 km/h (3 Bft) N 350 ° 1 min 76 W/m² 9,4 °C 6,2 °C 20,9 km/h (4 Bft)
03.10.2024 12:59 17,7 °C 11,1 °C 57 % 89 % 1016,2 hPa 0,0 l/m² 10,2 km/h (2 Bft) W-NW 288 ° 1 min 76 W/m² 9,4 °C 8,7 °C 16,1 km/h (3 Bft)
03.10.2024 13:00 17,7 °C 11,1 °C 57 % 89 % 1016,3 hPa 0,0 l/m² 9,2 km/h (2 Bft) W 281 ° 1 min 72 W/m² 9,4 °C 9,3 °C 17,7 km/h (3 Bft)
03.10.2024 13:01 17,7 °C 11,1 °C 57 % 89 % 1016,2 hPa 0,0 l/m² 12,0 km/h (2 Bft) W-NW 302 ° 1 min 72 W/m² 9,4 °C 7,8 °C 19,3 km/h (3 Bft)
03.10.2024 13:02 17,7 °C 11,1 °C 57 % 89 % 1016,2 hPa 0,0 l/m² 7,6 km/h (2 Bft) NW 315 ° 1 min 86 W/m² 9,4 °C 10,3 °C 12,9 km/h (3 Bft)
03.10.2024 13:03 17,8 °C 11,1 °C 57 % 89 % 1016,3 hPa 0,0 l/m² 7,0 km/h (2 Bft) N 360 ° 1 min 102 W/m² 9,4 °C 10,7 °C 11,3 km/h (2 Bft)
03.10.2024 13:04 17,7 °C 11,1 °C 57 % 89 % 1016,3 hPa 0,0 l/m² 7,3 km/h (2 Bft) NW 317 ° 1 min 104 W/m² 9,4 °C 10,5 °C 14,5 km/h (3 Bft)
03.10.2024 13:05 17,8 °C 11,1 °C 57 % 89 % 1016,2 hPa 0,0 l/m² 9,0 km/h (2 Bft) NW 313 ° 1 min 118 W/m² 9,4 °C 9,4 °C 17,7 km/h (3 Bft)
03.10.2024 13:07 17,7 °C 11,1 °C 57 % 89 % 1016,2 hPa 0,0 l/m² 8,9 km/h (2 Bft) N-NW 339 ° 2 min 174 W/m² 9,4 °C 9,4 °C 17,7 km/h (3 Bft)
03.10.2024 13:08 17,7 °C 11,1 °C 57 % 89 % 1016,2 hPa 0,0 l/m² 10,0 km/h (2 Bft) N-NW 334 ° 1 min 192 W/m² 9,4 °C 8,8 °C 14,5 km/h (3 Bft)
03.10.2024 13:09 17,7 °C 11,1 °C 57 % 89 % 1016,2 hPa 0,0 l/m² 9,2 km/h (2 Bft) N-NW 342 ° 1 min 209 W/m² 9,4 °C 9,3 °C 14,5 km/h (3 Bft)
03.10.2024 13:10 17,7 °C 11,1 °C 57 % 89 % 1016,2 hPa 0,0 l/m² 7,7 km/h (2 Bft) N-NW 344 ° 1 min 236 W/m² 9,4 °C 10,2 °C 14,5 km/h (3 Bft)
03.10.2024 13:12 17,7 °C 11,1 °C 57 % 89 % 1016,1 hPa 0,0 l/m² 7,5 km/h (2 Bft) N 360 ° 2 min 192 W/m² 9,4 °C 10,3 °C 16,1 km/h (3 Bft)
03.10.2024 13:13 17,7 °C 11,1 °C 57 % 89 % 1016,1 hPa 0,0 l/m² 7,2 km/h (2 Bft) W-NW 288 ° 1 min 165 W/m² 9,4 °C 10,5 °C 14,5 km/h (3 Bft)
03.10.2024 13:14 17,7 °C 11,1 °C 57 % 89 % 1016,2 hPa 0,0 l/m² 12,3 km/h (2 Bft) N 5 ° 1 min 153 W/m² 9,4 °C 7,6 °C 17,7 km/h (3 Bft)
03.10.2024 13:15 17,7 °C 11,2 °C 57 % 89 % 1016,2 hPa 0,0 l/m² 15,5 km/h (3 Bft) N-NW 331 ° 1 min 127 W/m² 9,5 °C 6,4 °C 22,5 km/h (4 Bft)
03.10.2024 13:16 17,8 °C 11,2 °C 57 % 89 % 1016,1 hPa 0,0 l/m² 18,0 km/h (3 Bft) N-NW 338 ° 1 min 127 W/m² 9,5 °C 5,5 °C 24,1 km/h (4 Bft)
03.10.2024 13:17 17,7 °C 11,2 °C 57 % 88 % 1016,2 hPa 0,0 l/m² 14,2 km/h (3 Bft) N 350 ° 1 min 90 W/m² 9,3 °C 6,9 °C 22,5 km/h (4 Bft)
03.10.2024 13:18 17,7 °C 11,2 °C 57 % 88 % 1016,2 hPa 0,0 l/m² 14,1 km/h (3 Bft) N-NW 334 ° 1 min 81 W/m² 9,3 °C 7,0 °C 19,3 km/h (3 Bft)
03.10.2024 13:19 17,7 °C 11,2 °C 57 % 88 % 1016,2 hPa 0,0 l/m² 12,1 km/h (2 Bft) N-NW 331 ° 1 min 83 W/m² 9,3 °C 7,8 °C 19,3 km/h (3 Bft)
03.10.2024 13:20 17,7 °C 11,2 °C 57 % 88 % 1016,2 hPa 0,0 l/m² 10,3 km/h (2 Bft) NW 324 ° 1 min 90 W/m² 9,3 °C 8,8 °C 17,7 km/h (3 Bft)
03.10.2024 13:21 17,7 °C 11,2 °C 57 % 88 % 1016,2 hPa 0,0 l/m² 11,0 km/h (2 Bft) W 271 ° 1 min 107 W/m² 9,3 °C 8,4 °C 16,1 km/h (3 Bft)
03.10.2024 13:22 17,7 °C 11,2 °C 57 % 88 % 1016,1 hPa 0,0 l/m² 8,2 km/h (2 Bft) NW 319 ° 1 min 135 W/m² 9,3 °C 10,0 °C 16,1 km/h (3 Bft)
03.10.2024 13:23 17,7 °C 11,2 °C 57 % 88 % 1016,2 hPa 0,0 l/m² 10,7 km/h (2 Bft) NW 324 ° 1 min 134 W/m² 9,3 °C 8,5 °C 19,3 km/h (3 Bft)
03.10.2024 13:24 17,8 °C 11,2 °C 57 % 88 % 1016,2 hPa 0,0 l/m² 10,5 km/h (2 Bft) NW 325 ° 1 min 113 W/m² 9,3 °C 8,7 °C 17,7 km/h (3 Bft)
03.10.2024 13:25 17,7 °C 11,2 °C 57 % 88 % 1016,2 hPa 0,0 l/m² 8,2 km/h (2 Bft) N 349 ° 1 min 107 W/m² 9,3 °C 10,0 °C 12,9 km/h (3 Bft)
03.10.2024 13:26 17,7 °C 11,2 °C 57 % 88 % 1016,2 hPa 0,0 l/m² 8,4 km/h (2 Bft) N-NO 19 ° 1 min 114 W/m² 9,3 °C 9,9 °C 12,9 km/h (3 Bft)
03.10.2024 13:27 17,7 °C 11,2 °C 57 % 88 % 1016,2 hPa 0,0 l/m² 10,3 km/h (2 Bft) N-NW 338 ° 1 min 116 W/m² 9,3 °C 8,8 °C 16,1 km/h (3 Bft)
03.10.2024 13:28 17,7 °C 11,2 °C 57 % 88 % 1016,2 hPa 0,0 l/m² 6,6 km/h (2 Bft) N-NW 330 ° 1 min 114 W/m² 9,3 °C 11,1 °C 8,0 km/h (2 Bft)
03.10.2024 13:29 17,7 °C 11,2 °C 57 % 88 % 1016,2 hPa 0,0 l/m² 6,6 km/h (2 Bft) N-NW 338 ° 1 min 107 W/m² 9,3 °C 11,1 °C 12,9 km/h (3 Bft)
03.10.2024 13:30 17,7 °C 11,2 °C 57 % 88 % 1016,2 hPa 0,0 l/m² 8,4 km/h (2 Bft) NW 325 ° 1 min 95 W/m² 9,3 °C 9,9 °C 14,5 km/h (3 Bft)
03.10.2024 13:31 17,8 °C 11,2 °C 57 % 88 % 1016,1 hPa 0,0 l/m² 8,3 km/h (2 Bft) N-NW 348 ° 1 min 93 W/m² 9,3 °C 9,9 °C 12,9 km/h (3 Bft)
03.10.2024 13:32 17,7 °C 11,2 °C 57 % 88 % 1016,1 hPa 0,0 l/m² 9,7 km/h (2 Bft) W-NW 302 ° 1 min 93 W/m² 9,3 °C 9,1 °C 14,5 km/h (3 Bft)
03.10.2024 13:33 17,7 °C 11,2 °C 57 % 88 % 1016,1 hPa 0,0 l/m² 8,4 km/h (2 Bft) NW 307 ° 1 min 104 W/m² 9,3 °C 9,9 °C 12,9 km/h (3 Bft)
03.10.2024 13:34 17,7 °C 11,2 °C 57 % 88 % 1016,1 hPa 0,0 l/m² 12,9 km/h (3 Bft) N-NW 329 ° 1 min 104 W/m² 9,3 °C 7,5 °C 17,7 km/h (3 Bft)
03.10.2024 13:35 17,7 °C 11,1 °C 57 % 88 % 1016,1 hPa 0,0 l/m² 10,2 km/h (2 Bft) W-NW 291 ° 1 min 105 W/m² 9,2 °C 8,7 °C 20,9 km/h (4 Bft)
03.10.2024 13:36 17,7 °C 11,1 °C 57 % 88 % 1016,2 hPa 0,0 l/m² 14,0 km/h (3 Bft) NW 322 ° 1 min 114 W/m² 9,2 °C 6,9 °C 19,3 km/h (3 Bft)
03.10.2024 13:37 17,7 °C 11,1 °C 57 % 88 % 1016,1 hPa 0,0 l/m² 16,0 km/h (3 Bft) N-NW 343 ° 1 min 121 W/m² 9,2 °C 6,1 °C 19,3 km/h (3 Bft)
03.10.2024 13:38 17,7 °C 11,1 °C 57 % 88 % 1016,1 hPa 0,0 l/m² 10,6 km/h (2 Bft) N-NW 346 ° 1 min 118 W/m² 9,2 °C 8,5 °C 16,1 km/h (3 Bft)
03.10.2024 13:39 17,8 °C 11,1 °C 57 % 88 % 1016,2 hPa 0,0 l/m² 13,1 km/h (3 Bft) N-NW 342 ° 1 min 107 W/m² 9,2 °C 7,3 °C 17,7 km/h (3 Bft)
03.10.2024 13:40 17,7 °C 11,0 °C 57 % 88 % 1016,1 hPa 0,0 l/m² 14,8 km/h (3 Bft) N 355 ° 1 min 100 W/m² 9,1 °C 6,4 °C 17,7 km/h (3 Bft)
03.10.2024 13:41 17,7 °C 11,0 °C 57 % 88 % 1016,1 hPa 0,0 l/m² 9,7 km/h (2 Bft) NW 313 ° 1 min 97 W/m² 9,1 °C 8,9 °C 14,5 km/h (3 Bft)
03.10.2024 13:42 17,7 °C 11,0 °C 57 % 88 % 1016,2 hPa 0,0 l/m² 13,2 km/h (3 Bft) N-NW 340 ° 1 min 91 W/m² 9,1 °C 7,1 °C 19,3 km/h (3 Bft)
03.10.2024 13:43 17,7 °C 11,0 °C 57 % 88 % 1016,1 hPa 0,0 l/m² 13,2 km/h (3 Bft) N-NW 345 ° 1 min 83 W/m² 9,1 °C 7,1 °C 19,3 km/h (3 Bft)
03.10.2024 13:44 17,7 °C 11,0 °C 57 % 88 % 1016,1 hPa 0,0 l/m² 13,0 km/h (3 Bft) N-NW 333 ° 1 min 77 W/m² 9,1 °C 7,2 °C 16,1 km/h (3 Bft)
03.10.2024 13:45 17,7 °C 11,0 °C 57 % 88 % 1016,1 hPa 0,0 l/m² 8,2 km/h (2 Bft) NW 321 ° 1 min 74 W/m² 9,1 °C 9,8 °C 14,5 km/h (3 Bft)
03.10.2024 13:46 17,7 °C 11,0 °C 57 % 88 % 1016,2 hPa 0,0 l/m² 12,2 km/h (2 Bft) N-NW 329 ° 1 min 72 W/m² 9,1 °C 7,6 °C 17,7 km/h (3 Bft)
03.10.2024 13:47 17,7 °C 10,9 °C 57 % 88 % 1016,1 hPa 0,0 l/m² 11,2 km/h (2 Bft) NW 321 ° 1 min 70 W/m² 9,0 °C 7,9 °C 16,1 km/h (3 Bft)
03.10.2024 13:48 17,7 °C 11,0 °C 57 % 88 % 1016,1 hPa 0,0 l/m² 8,7 km/h (2 Bft) N-NW 330 ° 1 min 72 W/m² 9,1 °C 9,5 °C 12,9 km/h (3 Bft)
03.10.2024 13:49 17,7 °C 11,0 °C 57 % 88 % 1016,0 hPa 0,0 l/m² 7,2 km/h (2 Bft) N-NW 329 ° 1 min 67 W/m² 9,1 °C 10,4 °C 16,1 km/h (3 Bft)
03.10.2024 13:50 17,7 °C 11,0 °C 57 % 89 % 1016,0 hPa 0,0 l/m² 9,3 km/h (2 Bft) N-NW 331 ° 1 min 62 W/m² 9,3 °C 9,1 °C 17,7 km/h (3 Bft)
03.10.2024 13:51 17,7 °C 11,0 °C 57 % 89 % 1016,1 hPa 0,0 l/m² 6,4 km/h (2 Bft) N-NW 330 ° 1 min 67 W/m² 9,3 °C 11,0 °C 12,9 km/h (3 Bft)
03.10.2024 13:52 17,7 °C 11,1 °C 57 % 89 % 1016,2 hPa 0,0 l/m² 6,3 km/h (2 Bft) NW 320 ° 1 min 63 W/m² 9,4 °C 11,1 °C 9,7 km/h (2 Bft)
03.10.2024 13:53 17,7 °C 11,1 °C 57 % 89 % 1016,1 hPa 0,0 l/m² 8,6 km/h (2 Bft) NW 317 ° 1 min 60 W/m² 9,4 °C 9,6 °C 14,5 km/h (3 Bft)
03.10.2024 13:54 17,7 °C 11,1 °C 57 % 89 % 1016,1 hPa 0,0 l/m² 8,0 km/h (2 Bft) N-NW 344 ° 1 min 74 W/m² 9,4 °C 10,0 °C 12,9 km/h (3 Bft)
03.10.2024 13:55 17,7 °C 11,1 °C 57 % 89 % 1016,2 hPa 0,0 l/m² 6,3 km/h (2 Bft) N-NW 336 ° 1 min 77 W/m² 9,4 °C 11,1 °C 9,7 km/h (2 Bft)
03.10.2024 13:56 17,7 °C 11,1 °C 57 % 89 % 1016,1 hPa 0,0 l/m² 7,2 km/h (2 Bft) N 355 ° 1 min 70 W/m² 9,4 °C 10,5 °C 14,5 km/h (3 Bft)
03.10.2024 13:57 17,7 °C 11,1 °C 57 % 89 % 1016,1 hPa 0,0 l/m² 11,8 km/h (2 Bft) N 355 ° 1 min 81 W/m² 9,4 °C 7,9 °C 16,1 km/h (3 Bft)
03.10.2024 13:58 17,7 °C 11,1 °C 57 % 89 % 1016,2 hPa 0,0 l/m² 8,9 km/h (2 Bft) N-NW 337 ° 1 min 104 W/m² 9,4 °C 9,4 °C 14,5 km/h (3 Bft)
03.10.2024 13:59 17,7 °C 11,1 °C 57 % 89 % 1016,0 hPa 0,0 l/m² 9,4 km/h (2 Bft) NW 324 ° 1 min 132 W/m² 9,4 °C 9,1 °C 16,1 km/h (3 Bft)
03.10.2024 14:00 17,7 °C 11,1 °C 57 % 89 % 1016,1 hPa 0,0 l/m² 9,4 km/h (2 Bft) N-NW 329 ° 1 min 146 W/m² 9,4 °C 9,1 °C 14,5 km/h (3 Bft)
03.10.2024 14:01 17,7 °C 11,1 °C 57 % 89 % 1016,1 hPa 0,0 l/m² 5,2 km/h (1 Bft) W-NW 303 ° 1 min 142 W/m² 9,4 °C 11,1 °C 12,9 km/h (3 Bft)
03.10.2024 14:02 17,7 °C 11,2 °C 57 % 90 % 1016,1 hPa 0,0 l/m² 3,2 km/h (1 Bft) N-NW 339 ° 1 min 153 W/m² 9,6 °C 11,2 °C 6,4 km/h (2 Bft)
03.10.2024 14:03 17,7 °C 11,2 °C 57 % 90 % 1016,0 hPa 0,0 l/m² 5,8 km/h (2 Bft) N-NW 346 ° 1 min 185 W/m² 9,6 °C 11,2 °C 9,7 km/h (2 Bft)
03.10.2024 14:04 17,7 °C 11,3 °C 57 % 90 % 1016,1 hPa 0,0 l/m² 7,2 km/h (2 Bft) N-NW 335 ° 1 min 183 W/m² 9,7 °C 10,8 °C 16,1 km/h (3 Bft)
03.10.2024 14:05 17,7 °C 11,3 °C 57 % 90 % 1016,1 hPa 0,0 l/m² 9,1 km/h (2 Bft) N-NW 334 ° 1 min 163 W/m² 9,7 °C 9,5 °C 14,5 km/h (3 Bft)
03.10.2024 14:06 17,7 °C 11,3 °C 57 % 90 % 1016,0 hPa 0,0 l/m² 5,1 km/h (1 Bft) W-NW 296 ° 1 min 146 W/m² 9,7 °C 11,3 °C 12,9 km/h (3 Bft)
03.10.2024 14:07 17,7 °C 11,3 °C 57 % 90 % 1016,1 hPa 0,0 l/m² 8,1 km/h (2 Bft) W 281 ° 1 min 156 W/m² 9,7 °C 10,2 °C 12,9 km/h (3 Bft)
03.10.2024 14:08 17,7 °C 11,4 °C 57 % 89 % 1016,0 hPa 0,0 l/m² 5,7 km/h (2 Bft) W-NW 292 ° 1 min 179 W/m² 9,7 °C 11,4 °C 11,3 km/h (2 Bft)
03.10.2024 14:09 17,7 °C 11,4 °C 57 % 89 % 1016,1 hPa 0,0 l/m² 5,0 km/h (1 Bft) N-NW 331 ° 1 min 174 W/m² 9,7 °C 11,4 °C 8,0 km/h (2 Bft)
03.10.2024 14:10 17,7 °C 11,5 °C 57 % 89 % 1016,1 hPa 0,0 l/m² 4,4 km/h (1 Bft) N-NW 343 ° 1 min 135 W/m² 9,8 °C 11,5 °C 8,0 km/h (2 Bft)
03.10.2024 14:11 17,7 °C 11,5 °C 57 % 89 % 1016,1 hPa 0,0 l/m² 7,6 km/h (2 Bft) W-NW 301 ° 1 min 118 W/m² 9,8 °C 10,7 °C 14,5 km/h (3 Bft)
03.10.2024 14:12 17,7 °C 11,5 °C 57 % 89 % 1016,1 hPa 0,0 l/m² 5,1 km/h (1 Bft) NW 315 ° 1 min 102 W/m² 9,8 °C 11,5 °C 11,3 km/h (2 Bft)
03.10.2024 14:13 17,7 °C 11,5 °C 57 % 89 % 1016,2 hPa 0,0 l/m² 5,9 km/h (2 Bft) N 349 ° 1 min 102 W/m² 9,8 °C 11,5 °C 12,9 km/h (3 Bft)
03.10.2024 14:14 17,7 °C 11,5 °C 57 % 89 % 1016,1 hPa 0,0 l/m² 2,2 km/h (1 Bft) N-NO 24 ° 1 min 104 W/m² 9,8 °C 11,5 °C 8,0 km/h (2 Bft)
03.10.2024 14:15 17,7 °C 11,5 °C 57 % 89 % 1016,1 hPa 0,0 l/m² 4,0 km/h (1 Bft) W-NW 300 ° 1 min 104 W/m² 9,8 °C 11,5 °C 6,4 km/h (2 Bft)
03.10.2024 14:16 17,7 °C 11,5 °C 57 % 89 % 1016,1 hPa 0,0 l/m² 5,4 km/h (2 Bft) NW 325 ° 1 min 100 W/m² 9,8 °C 11,5 °C 6,4 km/h (2 Bft)
03.10.2024 14:17 17,7 °C 11,5 °C 57 % 89 % 1016,1 hPa 0,0 l/m² 7,3 km/h (2 Bft) NW 311 ° 1 min 95 W/m² 9,8 °C 10,9 °C 12,9 km/h (3 Bft)
03.10.2024 14:18 17,7 °C 11,5 °C 57 % 89 % 1016,1 hPa 0,0 l/m² 6,2 km/h (2 Bft) W-NW 301 ° 1 min 95 W/m² 9,8 °C 11,5 °C 14,5 km/h (3 Bft)
03.10.2024 14:19 17,7 °C 11,5 °C 57 % 89 % 1016,2 hPa 0,0 l/m² 3,5 km/h (1 Bft) NW 321 ° 1 min 98 W/m² 9,8 °C 11,5 °C 12,9 km/h (3 Bft)
03.10.2024 14:20 17,7 °C 11,5 °C 57 % 89 % 1016,1 hPa 0,0 l/m² 6,6 km/h (2 Bft) NW 306 ° 1 min 107 W/m² 9,8 °C 11,4 °C 17,7 km/h (3 Bft)
03.10.2024 14:21 17,7 °C 11,5 °C 57 % 89 % 1016,2 hPa 0,0 l/m² 6,7 km/h (2 Bft) N-NW 329 ° 1 min 135 W/m² 9,8 °C 11,3 °C 9,7 km/h (2 Bft)
03.10.2024 14:22 17,7 °C 11,5 °C 57 % 89 % 1016,1 hPa 0,0 l/m² 8,2 km/h (2 Bft) NW 323 ° 1 min 144 W/m² 9,8 °C 10,3 °C 14,5 km/h (3 Bft)
03.10.2024 14:23 17,7 °C 11,5 °C 57 % 89 % 1016,2 hPa 0,0 l/m² 8,6 km/h (2 Bft) W-NW 298 ° 1 min 151 W/m² 9,8 °C 10,1 °C 16,1 km/h (3 Bft)
03.10.2024 14:24 17,7 °C 11,5 °C 57 % 89 % 1016,1 hPa 0,0 l/m² 11,6 km/h (2 Bft) W-NW 295 ° 1 min 172 W/m² 9,8 °C 8,4 °C 17,7 km/h (3 Bft)
03.10.2024 14:25 17,7 °C 11,6 °C 57 % 89 % 1016,2 hPa 0,0 l/m² 8,8 km/h (2 Bft) NW 317 ° 1 min 181 W/m² 9,8 °C 10,0 °C 14,5 km/h (3 Bft)
03.10.2024 14:26 17,7 °C 11,5 °C 57 % 89 % 1016,2 hPa 0,0 l/m² 10,9 km/h (2 Bft) NW 317 ° 1 min 185 W/m² 9,8 °C 8,8 °C 14,5 km/h (3 Bft)
03.10.2024 14:27 17,7 °C 11,6 °C 57 % 88 % 1016,2 hPa 0,0 l/m² 6,8 km/h (2 Bft) NW 306 ° 1 min 209 W/m² 9,7 °C 11,3 °C 12,9 km/h (3 Bft)
03.10.2024 14:28 17,7 °C 11,6 °C 57 % 88 % 1016,2 hPa 0,0 l/m² 6,4 km/h (2 Bft) N-NW 328 ° 1 min 225 W/m² 9,7 °C 11,6 °C 12,9 km/h (3 Bft)
03.10.2024 14:29 17,7 °C 11,7 °C 57 % 88 % 1016,2 hPa 0,0 l/m² 6,5 km/h (2 Bft) NW 324 ° 1 min 218 W/m² 9,8 °C 11,7 °C 9,7 km/h (2 Bft)
03.10.2024 14:30 17,7 °C 11,7 °C 57 % 88 % 1016,2 hPa 0,0 l/m² 9,7 km/h (2 Bft) N-NW 334 ° 1 min 179 W/m² 9,8 °C 9,6 °C 14,5 km/h (3 Bft)
03.10.2024 14:31 17,7 °C 11,7 °C 57 % 88 % 1016,2 hPa 0,0 l/m² 7,6 km/h (2 Bft) N-NW 333 ° 1 min 163 W/m² 9,8 °C 10,9 °C 12,9 km/h (3 Bft)
03.10.2024 14:32 17,7 °C 11,7 °C 57 % 88 % 1016,2 hPa 0,0 l/m² 6,5 km/h (2 Bft) NW 324 ° 1 min 151 W/m² 9,8 °C 11,7 °C 9,7 km/h (2 Bft)
03.10.2024 14:33 17,7 °C 11,7 °C 57 % 88 % 1016,2 hPa 0,0 l/m² 6,5 km/h (2 Bft) NW 306 ° 1 min 128 W/m² 9,8 °C 11,7 °C 14,5 km/h (3 Bft)
03.10.2024 14:34 17,7 °C 11,7 °C 57 % 88 % 1016,2 hPa 0,0 l/m² 5,5 km/h (2 Bft) N-NW 331 ° 1 min 120 W/m² 9,8 °C 11,7 °C 11,3 km/h (2 Bft)
03.10.2024 14:35 17,7 °C 11,7 °C 57 % 88 % 1016,2 hPa 0,0 l/m² 5,2 km/h (1 Bft) NW 317 ° 1 min 114 W/m² 9,8 °C 11,7 °C 12,9 km/h (3 Bft)
03.10.2024 14:36 17,7 °C 11,8 °C 57 % 88 % 1016,2 hPa 0,0 l/m² 9,1 km/h (2 Bft) NW 323 ° 1 min 113 W/m² 9,9 °C 10,1 °C 17,7 km/h (3 Bft)
03.10.2024 14:37 17,7 °C 11,8 °C 57 % 88 % 1016,2 hPa 0,0 l/m² 4,4 km/h (1 Bft) NW 315 ° 1 min 113 W/m² 9,9 °C 11,8 °C 8,0 km/h (2 Bft)
03.10.2024 14:38 17,7 °C 11,7 °C 57 % 88 % 1016,1 hPa 0,0 l/m² 8,5 km/h (2 Bft) N-NW 342 ° 1 min 111 W/m² 9,8 °C 10,3 °C 16,1 km/h (3 Bft)
03.10.2024 14:39 17,7 °C 11,7 °C 57 % 88 % 1016,2 hPa 0,0 l/m² 11,4 km/h (2 Bft) N-NW 341 ° 1 min 105 W/m² 9,8 °C 8,8 °C 14,5 km/h (3 Bft)
03.10.2024 14:40 17,7 °C 11,7 °C 57 % 88 % 1016,2 hPa 0,0 l/m² 8,7 km/h (2 Bft) NW 308 ° 1 min 109 W/m² 9,8 °C 10,2 °C 16,1 km/h (3 Bft)
03.10.2024 14:41 17,7 °C 11,7 °C 57 % 88 % 1016,1 hPa 0,0 l/m² 8,0 km/h (2 Bft) NW 306 ° 1 min 120 W/m² 9,8 °C 10,6 °C 19,3 km/h (3 Bft)
03.10.2024 14:42 17,7 °C 11,7 °C 57 % 88 % 1016,2 hPa 0,0 l/m² 9,7 km/h (2 Bft) W-NW 297 ° 1 min 123 W/m² 9,8 °C 9,6 °C 14,5 km/h (3 Bft)
03.10.2024 14:43 17,7 °C 11,7 °C 57 % 88 % 1016,2 hPa 0,0 l/m² 4,2 km/h (1 Bft) NW 323 ° 1 min 114 W/m² 9,8 °C 11,7 °C 6,4 km/h (2 Bft)
03.10.2024 14:44 17,7 °C 11,8 °C 57 % 88 % 1016,2 hPa 0,0 l/m² 5,3 km/h (1 Bft) N-NW 340 ° 1 min 105 W/m² 9,9 °C 11,8 °C 12,9 km/h (3 Bft)
03.10.2024 14:45 17,7 °C 11,7 °C 57 % 88 % 1016,1 hPa 0,0 l/m² 8,7 km/h (2 Bft) N 360 ° 1 min 97 W/m² 9,8 °C 10,2 °C 14,5 km/h (3 Bft)
03.10.2024 14:46 17,7 °C 11,7 °C 57 % 88 % 1016,1 hPa 0,0 l/m² 10,7 km/h (2 Bft) N-NW 341 ° 1 min 93 W/m² 9,8 °C 9,1 °C 16,1 km/h (3 Bft)
03.10.2024 14:47 17,7 °C 11,7 °C 57 % 88 % 1016,2 hPa 0,0 l/m² 3,4 km/h (1 Bft) NW 310 ° 1 min 86 W/m² 9,8 °C 11,7 °C 8,0 km/h (2 Bft)
03.10.2024 14:48 17,7 °C 11,7 °C 57 % 88 % 1016,1 hPa 0,0 l/m² 4,0 km/h (1 Bft) W-NW 293 ° 1 min 77 W/m² 9,8 °C 11,7 °C 6,4 km/h (2 Bft)
03.10.2024 14:49 17,7 °C 11,7 °C 57 % 89 % 1016,2 hPa 0,0 l/m² 1,8 km/h (1 Bft) W-NW 293 ° 1 min 69 W/m² 9,9 °C 11,7 °C 3,2 km/h (1 Bft)
03.10.2024 14:50 17,7 °C 11,7 °C 57 % 88 % 1016,2 hPa 0,0 l/m² 1,1 km/h (1 Bft) W-NW 289 ° 1 min 60 W/m² 9,8 °C 11,7 °C 3,2 km/h (1 Bft)
03.10.2024 14:51 17,7 °C 11,7 °C 57 % 89 % 1016,2 hPa 0,0 l/m² 5,4 km/h (2 Bft) W-NW 296 ° 1 min 60 W/m² 9,9 °C 11,7 °C 9,7 km/h (2 Bft)
03.10.2024 14:52 17,7 °C 11,7 °C 57 % 89 % 1016,2 hPa 0,0 l/m² 3,4 km/h (1 Bft) W-NW 290 ° 1 min 60 W/m² 9,9 °C 11,7 °C 6,4 km/h (2 Bft)
03.10.2024 14:53 17,7 °C 11,6 °C 57 % 89 % 1016,2 hPa 0,0 l/m² 4,0 km/h (1 Bft) W-NW 302 ° 1 min 56 W/m² 9,8 °C 11,6 °C 6,4 km/h (2 Bft)
03.10.2024 14:54 17,7 °C 11,6 °C 57 % 89 % 1016,2 hPa 0,0 l/m² 1,9 km/h (1 Bft) W-NW 303 ° 1 min 56 W/m² 9,8 °C 11,6 °C 6,4 km/h (2 Bft)
03.10.2024 14:55 17,7 °C 11,6 °C 57 % 89 % 1016,1 hPa 0,0 l/m² 1,3 km/h (1 Bft) W-NW 301 ° 1 min 60 W/m² 9,8 °C 11,6 °C 3,2 km/h (1 Bft)
03.10.2024 14:56 17,7 °C 11,6 °C 57 % 89 % 1016,1 hPa 0,0 l/m² 0,3 km/h (0 Bft) W-NW 302 ° 1 min 60 W/m² 9,8 °C 11,6 °C 1,6 km/h (1 Bft)
03.10.2024 14:57 17,7 °C 11,6 °C 57 % 89 % 1016,1 hPa 0,0 l/m² 9,8 km/h (2 Bft) W-NW 298 ° 1 min 69 W/m² 9,8 °C 9,5 °C 14,5 km/h (3 Bft)
03.10.2024 14:58 17,7 °C 11,6 °C 57 % 89 % 1016,1 hPa 0,0 l/m² 7,3 km/h (2 Bft) W-NW 296 ° 1 min 79 W/m² 9,8 °C 11,0 °C 14,5 km/h (3 Bft)
03.10.2024 14:59 17,7 °C 11,6 °C 57 % 89 % 1016,1 hPa 0,0 l/m² 9,5 km/h (2 Bft) W-NW 290 ° 1 min 86 W/m² 9,8 °C 9,6 °C 16,1 km/h (3 Bft)
03.10.2024 15:00 17,7 °C 11,6 °C 57 % 89 % 1016,2 hPa 0,0 l/m² 6,6 km/h (2 Bft) W-NW 298 ° 1 min 88 W/m² 9,8 °C 11,5 °C 12,9 km/h (3 Bft)
03.10.2024 15:01 17,7 °C 11,6 °C 57 % 89 % 1016,2 hPa 0,0 l/m² 5,4 km/h (2 Bft) W-NW 298 ° 1 min 86 W/m² 9,8 °C 11,6 °C 8,0 km/h (2 Bft)
03.10.2024 15:02 17,7 °C 11,6 °C 57 % 89 % 1016,1 hPa 0,0 l/m² 3,8 km/h (1 Bft) NW 311 ° 1 min 81 W/m² 9,8 °C 11,6 °C 8,0 km/h (2 Bft)
03.10.2024 15:03 17,7 °C 11,6 °C 57 % 89 % 1016,2 hPa 0,0 l/m² 4,8 km/h (1 Bft) NW 315 ° 1 min 72 W/m² 9,8 °C 11,6 °C 9,7 km/h (2 Bft)
03.10.2024 15:04 17,7 °C 11,6 °C 57 % 89 % 1016,1 hPa 0,0 l/m² 6,0 km/h (2 Bft) NW 326 ° 1 min 70 W/m² 9,8 °C 11,6 °C 12,9 km/h (3 Bft)
03.10.2024 15:05 17,7 °C 11,6 °C 57 % 89 % 1016,1 hPa 0,0 l/m² 4,4 km/h (1 Bft) W-NW 295 ° 1 min 67 W/m² 9,8 °C 11,6 °C 8,0 km/h (2 Bft)
03.10.2024 15:06 17,7 °C 11,5 °C 57 % 89 % 1016,1 hPa 0,0 l/m² 4,0 km/h (1 Bft) NW 321 ° 1 min 62 W/m² 9,8 °C 11,5 °C 6,4 km/h (2 Bft)
03.10.2024 15:07 17,7 °C 11,6 °C 57 % 89 % 1016,1 hPa 0,0 l/m² 2,3 km/h (1 Bft) W-NW 299 ° 1 min 60 W/m² 9,8 °C 11,6 °C 4,8 km/h (1 Bft)
03.10.2024 15:08 17,7 °C 11,5 °C 57 % 89 % 1016,1 hPa 0,0 l/m² 4,0 km/h (1 Bft) W-NW 293 ° 1 min 63 W/m² 9,8 °C 11,5 °C 6,4 km/h (2 Bft)
03.10.2024 15:09 17,7 °C 11,6 °C 57 % 89 % 1016,1 hPa 0,0 l/m² 4,9 km/h (1 Bft) W-NW 300 ° 1 min 54 W/m² 9,8 °C 11,6 °C 6,4 km/h (2 Bft)
03.10.2024 15:10 17,7 °C 11,6 °C 57 % 89 % 1016,1 hPa 0,0 l/m² 2,7 km/h (1 Bft) W-NW 300 ° 1 min 56 W/m² 9,8 °C 11,6 °C 6,4 km/h (2 Bft)
03.10.2024 15:11 17,7 °C 11,6 °C 57 % 89 % 1016,2 hPa 0,0 l/m² 4,3 km/h (1 Bft) W-NW 300 ° 1 min 58 W/m² 9,8 °C 11,6 °C 6,4 km/h (2 Bft)
03.10.2024 15:12 17,7 °C 11,6 °C 57 % 90 % 1016,2 hPa 0,0 l/m² 4,4 km/h (1 Bft) W-NW 292 ° 1 min 58 W/m² 10,0 °C 11,6 °C 6,4 km/h (2 Bft)
03.10.2024 15:13 17,7 °C 11,6 °C 57 % 90 % 1016,1 hPa 0,0 l/m² 3,6 km/h (1 Bft) W-NW 293 ° 1 min 54 W/m² 10,0 °C 11,6 °C 6,4 km/h (2 Bft)
03.10.2024 15:14 17,7 °C 11,6 °C 57 % 90 % 1016,2 hPa 0,0 l/m² 1,4 km/h (1 Bft) W 272 ° 1 min 67 W/m² 10,0 °C 11,6 °C 4,8 km/h (1 Bft)
03.10.2024 15:15 17,7 °C 11,6 °C 57 % 90 % 1016,2 hPa 0,0 l/m² 0,5 km/h (0 Bft) W 279 ° 1 min 74 W/m² 10,0 °C 11,6 °C 3,2 km/h (1 Bft)
03.10.2024 15:16 17,7 °C 11,6 °C 57 % 90 % 1016,2 hPa 0,0 l/m² 0,6 km/h (0 Bft) W-SW 249 ° 1 min 81 W/m² 10,0 °C 11,6 °C 1,6 km/h (1 Bft)
03.10.2024 15:17 17,7 °C 11,6 °C 57 % 90 % 1016,1 hPa 0,0 l/m² 2,2 km/h (1 Bft) W-NW 286 ° 1 min 79 W/m² 10,0 °C 11,6 °C 6,4 km/h (2 Bft)
03.10.2024 15:18 17,7 °C 11,6 °C 57 % 90 % 1016,2 hPa 0,0 l/m² 1,5 km/h (1 Bft) W-NW 284 ° 1 min 74 W/m² 10,0 °C 11,6 °C 3,2 km/h (1 Bft)
03.10.2024 15:19 17,7 °C 11,6 °C 57 % 90 % 1016,1 hPa 0,0 l/m² 1,5 km/h (1 Bft) NW 310 ° 1 min 60 W/m² 10,0 °C 11,6 °C 6,4 km/h (2 Bft)
03.10.2024 15:20 17,7 °C 11,6 °C 57 % 90 % 1016,2 hPa 0,0 l/m² 1,3 km/h (1 Bft) NW 312 ° 0 min 42 W/m² 10,0 °C 11,6 °C 6,4 km/h (2 Bft)
03.10.2024 15:21 17,7 °C 11,6 °C 57 % 90 % 1016,2 hPa 0,0 l/m² 6,1 km/h (2 Bft) W-NW 289 ° 0 min 42 W/m² 10,0 °C 11,6 °C 11,3 km/h (2 Bft)
03.10.2024 15:22 17,7 °C 11,6 °C 57 % 90 % 1016,2 hPa 0,0 l/m² 5,6 km/h (2 Bft) W 281 ° 0 min 40 W/m² 10,0 °C 11,6 °C 11,3 km/h (2 Bft)
03.10.2024 15:23 17,7 °C 11,6 °C 57 % 90 % 1016,1 hPa 0,0 l/m² 3,3 km/h (1 Bft) W-NW 294 ° 0 min 44 W/m² 10,0 °C 11,6 °C 6,4 km/h (2 Bft)
03.10.2024 15:24 17,7 °C 11,5 °C 57 % 90 % 1016,2 hPa 0,0 l/m² 3,9 km/h (1 Bft) NW 313 ° 1 min 54 W/m² 9,9 °C 11,5 °C 8,0 km/h (2 Bft)
03.10.2024 15:25 17,7 °C 11,4 °C 57 % 91 % 1016,1 hPa 0,0 l/m² 2,3 km/h (1 Bft) NW 308 ° 1 min 63 W/m² 10,0 °C 11,4 °C 4,8 km/h (1 Bft)
03.10.2024 15:26 17,7 °C 11,4 °C 57 % 91 % 1016,2 hPa 0,0 l/m² 5,0 km/h (1 Bft) NW 314 ° 1 min 100 W/m² 10,0 °C 11,4 °C 12,9 km/h (3 Bft)
03.10.2024 15:27 17,7 °C 11,4 °C 57 % 91 % 1016,2 hPa 0,0 l/m² 6,6 km/h (2 Bft) NW 312 ° 1 min 113 W/m² 10,0 °C 11,3 °C 14,5 km/h (3 Bft)
03.10.2024 15:28 17,7 °C 11,4 °C 57 % 91 % 1016,2 hPa 0,0 l/m² 9,5 km/h (2 Bft) N-NW 339 ° 1 min 113 W/m² 10,0 °C 9,4 °C 14,5 km/h (3 Bft)
03.10.2024 15:29 17,7 °C 11,4 °C 57 % 91 % 1016,2 hPa 0,0 l/m² 8,6 km/h (2 Bft) NW 318 ° 1 min 107 W/m² 10,0 °C 9,9 °C 16,1 km/h (3 Bft)
03.10.2024 15:30 17,7 °C 11,4 °C 57 % 91 % 1016,1 hPa 0,0 l/m² 8,0 km/h (2 Bft) N-NW 339 ° 1 min 91 W/m² 10,0 °C 10,3 °C 14,5 km/h (3 Bft)
03.10.2024 15:31 17,7 °C 11,3 °C 57 % 91 % 1016,1 hPa 0,0 l/m² 9,6 km/h (2 Bft) N-NW 338 ° 1 min 84 W/m² 9,9 °C 9,3 °C 14,5 km/h (3 Bft)
03.10.2024 15:32 17,7 °C 11,3 °C 57 % 91 % 1016,1 hPa 0,0 l/m² 9,3 km/h (2 Bft) N-NW 339 ° 1 min 95 W/m² 9,9 °C 9,4 °C 16,1 km/h (3 Bft)
03.10.2024 15:33 17,7 °C 11,3 °C 57 % 91 % 1016,1 hPa 0,0 l/m² 7,1 km/h (2 Bft) W 261 ° 1 min 107 W/m² 9,9 °C 10,8 °C 12,9 km/h (3 Bft)
03.10.2024 15:34 17,7 °C 11,3 °C 57 % 92 % 1016,1 hPa 0,0 l/m² 6,0 km/h (2 Bft) W-NW 299 ° 1 min 116 W/m² 10,0 °C 11,3 °C 12,9 km/h (3 Bft)
03.10.2024 15:35 17,7 °C 11,3 °C 57 % 92 % 1016,1 hPa 0,0 l/m² 5,0 km/h (1 Bft) N-NW 343 ° 1 min 120 W/m² 10,0 °C 11,3 °C 12,9 km/h (3 Bft)
03.10.2024 15:36 17,7 °C 11,3 °C 57 % 92 % 1016,1 hPa 0,0 l/m² 8,0 km/h (2 Bft) N-NW 329 ° 1 min 118 W/m² 10,0 °C 10,2 °C 14,5 km/h (3 Bft)
03.10.2024 15:37 17,7 °C 11,3 °C 57 % 92 % 1016,1 hPa 0,0 l/m² 9,4 km/h (2 Bft) N-NW 346 ° 1 min 113 W/m² 10,0 °C 9,4 °C 16,1 km/h (3 Bft)
03.10.2024 15:38 17,7 °C 11,3 °C 57 % 92 % 1016,1 hPa 0,0 l/m² 9,5 km/h (2 Bft) N-NW 330 ° 1 min 100 W/m² 10,0 °C 9,3 °C 16,1 km/h (3 Bft)
03.10.2024 15:39 17,7 °C 11,3 °C 57 % 92 % 1016,1 hPa 0,0 l/m² 7,0 km/h (2 Bft) W-NW 298 ° 1 min 90 W/m² 10,0 °C 10,9 °C 9,7 km/h (2 Bft)
03.10.2024 15:40 17,7 °C 11,3 °C 57 % 92 % 1016,1 hPa 0,0 l/m² 9,0 km/h (2 Bft) N-NW 337 ° 1 min 83 W/m² 10,0 °C 9,6 °C 14,5 km/h (3 Bft)
03.10.2024 15:41 17,7 °C 11,3 °C 57 % 92 % 1016,0 hPa 0,0 l/m² 8,7 km/h (2 Bft) NW 323 ° 1 min 86 W/m² 10,0 °C 9,8 °C 14,5 km/h (3 Bft)
03.10.2024 15:42 17,7 °C 11,3 °C 57 % 92 % 1016,1 hPa 0,0 l/m² 8,0 km/h (2 Bft) N-NW 348 ° 1 min 86 W/m² 10,0 °C 10,2 °C 12,9 km/h (3 Bft)
03.10.2024 15:43 17,7 °C 11,3 °C 57 % 92 % 1016,0 hPa 0,0 l/m² 12,1 km/h (2 Bft) N-NW 339 ° 1 min 84 W/m² 10,0 °C 8,0 °C 17,7 km/h (3 Bft)
03.10.2024 15:45 17,7 °C 11,3 °C 57 % 92 % 1016,0 hPa 0,2 l/m² 8,7 km/h (2 Bft) NW 308 ° 2 min 65 W/m² 10,0 °C 9,8 °C 16,1 km/h (3 Bft)
03.10.2024 15:46 17,7 °C 11,3 °C 57 % 92 % 1015,9 hPa 0,0 l/m² 10,7 km/h (2 Bft) N-NW 342 ° 1 min 67 W/m² 10,0 °C 8,7 °C 14,5 km/h (3 Bft)
03.10.2024 15:47 17,7 °C 11,3 °C 57 % 92 % 1015,9 hPa 0,0 l/m² 11,4 km/h (2 Bft) N-NW 339 ° 1 min 69 W/m² 10,0 °C 8,3 °C 16,1 km/h (3 Bft)
03.10.2024 15:48 17,7 °C 11,2 °C 57 % 92 % 1015,9 hPa 0,0 l/m² 9,4 km/h (2 Bft) N-NW 340 ° 1 min 69 W/m² 9,9 °C 9,3 °C 16,1 km/h (3 Bft)
03.10.2024 15:49 17,7 °C 11,2 °C 57 % 92 % 1016,0 hPa 0,0 l/m² 11,3 km/h (2 Bft) N-NW 330 ° 1 min 63 W/m² 9,9 °C 8,2 °C 19,3 km/h (3 Bft)
03.10.2024 15:50 17,7 °C 11,2 °C 57 % 92 % 1015,9 hPa 0,0 l/m² 7,8 km/h (2 Bft) NW 322 ° 1 min 54 W/m² 9,9 °C 10,2 °C 12,9 km/h (3 Bft)
03.10.2024 15:51 17,7 °C 11,2 °C 57 % 92 % 1015,9 hPa 0,0 l/m² 8,3 km/h (2 Bft) N-NW 340 ° 1 min 56 W/m² 9,9 °C 9,9 °C 12,9 km/h (3 Bft)
03.10.2024 15:52 17,7 °C 11,2 °C 57 % 92 % 1016,0 hPa 0,0 l/m² 9,2 km/h (2 Bft) N-NW 346 ° 1 min 65 W/m² 9,9 °C 9,4 °C 17,7 km/h (3 Bft)
03.10.2024 15:53 17,7 °C 11,2 °C 57 % 92 % 1015,9 hPa 0,0 l/m² 8,1 km/h (2 Bft) NW 317 ° 1 min 65 W/m² 9,9 °C 10,0 °C 14,5 km/h (3 Bft)
03.10.2024 15:54 17,7 °C 11,2 °C 57 % 92 % 1015,9 hPa 0,0 l/m² 7,6 km/h (2 Bft) N-NW 333 ° 1 min 69 W/m² 9,9 °C 10,4 °C 12,9 km/h (3 Bft)
03.10.2024 15:55 17,7 °C 11,2 °C 57 % 92 % 1015,9 hPa 0,0 l/m² 6,1 km/h (2 Bft) NW 325 ° 1 min 74 W/m² 9,9 °C 11,2 °C 9,7 km/h (2 Bft)
03.10.2024 15:56 17,7 °C 11,2 °C 57 % 92 % 1015,9 hPa 0,0 l/m² 9,9 km/h (2 Bft) N-NW 337 ° 1 min 70 W/m² 9,9 °C 9,0 °C 14,5 km/h (3 Bft)
03.10.2024 15:57 17,7 °C 11,2 °C 57 % 92 % 1016,0 hPa 0,0 l/m² 8,8 km/h (2 Bft) NW 322 ° 1 min 62 W/m² 9,9 °C 9,6 °C 16,1 km/h (3 Bft)
03.10.2024 15:58 17,7 °C 11,2 °C 57 % 92 % 1015,9 hPa 0,0 l/m² 9,4 km/h (2 Bft) NW 313 ° 1 min 58 W/m² 9,9 °C 9,3 °C 17,7 km/h (3 Bft)
03.10.2024 15:59 17,7 °C 11,2 °C 57 % 92 % 1015,9 hPa 0,0 l/m² 10,9 km/h (2 Bft) N-NW 336 ° 1 min 54 W/m² 9,9 °C 8,4 °C 17,7 km/h (3 Bft)
03.10.2024 16:00 17,7 °C 11,2 °C 57 % 92 % 1015,9 hPa 0,0 l/m² 9,1 km/h (2 Bft) N-NW 348 ° 1 min 54 W/m² 9,9 °C 9,4 °C 16,1 km/h (3 Bft)
03.10.2024 16:01 17,7 °C 11,2 °C 57 % 92 % 1015,9 hPa 0,0 l/m² 7,4 km/h (2 Bft) N-NW 327 ° 0 min 49 W/m² 9,9 °C 10,5 °C 12,9 km/h (3 Bft)
03.10.2024 16:02 17,7 °C 11,2 °C 57 % 92 % 1015,9 hPa 0,0 l/m² 6,0 km/h (2 Bft) NW 315 ° 0 min 46 W/m² 9,9 °C 11,2 °C 9,7 km/h (2 Bft)
03.10.2024 16:03 17,7 °C 11,2 °C 57 % 92 % 1015,9 hPa 0,0 l/m² 5,4 km/h (2 Bft) NW 314 ° 1 min 54 W/m² 9,9 °C 11,2 °C 9,7 km/h (2 Bft)
03.10.2024 16:04 17,7 °C 11,2 °C 57 % 93 % 1015,9 hPa 0,0 l/m² 8,2 km/h (2 Bft) W-NW 293 ° 1 min 56 W/m² 10,1 °C 10,0 °C 16,1 km/h (3 Bft)
03.10.2024 16:05 17,7 °C 11,2 °C 57 % 93 % 1015,9 hPa 0,0 l/m² 11,4 km/h (2 Bft) N-NW 336 ° 1 min 58 W/m² 10,1 °C 8,2 °C 16,1 km/h (3 Bft)
03.10.2024 16:06 17,7 °C 11,2 °C 57 % 93 % 1015,8 hPa 0,0 l/m² 7,0 km/h (2 Bft) N-NW 331 ° 1 min 63 W/m² 10,1 °C 10,8 °C 9,7 km/h (2 Bft)
03.10.2024 16:07 17,7 °C 11,2 °C 57 % 93 % 1015,9 hPa 0,0 l/m² 10,0 km/h (2 Bft) N 5 ° 1 min 70 W/m² 10,1 °C 8,9 °C 17,7 km/h (3 Bft)
03.10.2024 16:08 17,7 °C 11,2 °C 57 % 93 % 1015,8 hPa 0,0 l/m² 8,8 km/h (2 Bft) N 355 ° 1 min 72 W/m² 10,1 °C 9,6 °C 16,1 km/h (3 Bft)
03.10.2024 16:09 17,7 °C 11,2 °C 57 % 93 % 1015,9 hPa 0,0 l/m² 13,2 km/h (3 Bft) N-NW 338 ° 1 min 67 W/m² 10,1 °C 7,3 °C 19,3 km/h (3 Bft)
03.10.2024 16:10 17,7 °C 11,2 °C 57 % 93 % 1015,8 hPa 0,0 l/m² 13,7 km/h (3 Bft) W 274 ° 1 min 69 W/m² 10,1 °C 7,1 °C 19,3 km/h (3 Bft)
03.10.2024 16:11 17,7 °C 11,2 °C 57 % 93 % 1015,8 hPa 0,0 l/m² 8,3 km/h (2 Bft) W-NW 296 ° 1 min 67 W/m² 10,1 °C 9,9 °C 16,1 km/h (3 Bft)
03.10.2024 16:12 17,7 °C 11,1 °C 57 % 93 % 1015,8 hPa 0,0 l/m² 12,3 km/h (2 Bft) NW 316 ° 1 min 63 W/m² 10,0 °C 7,6 °C 19,3 km/h (3 Bft)
03.10.2024 16:13 17,7 °C 11,1 °C 57 % 93 % 1015,7 hPa 0,0 l/m² 9,8 km/h (2 Bft) N-NW 329 ° 1 min 60 W/m² 10,0 °C 8,9 °C 14,5 km/h (3 Bft)
03.10.2024 16:14 17,7 °C 11,1 °C 57 % 93 % 1015,9 hPa 0,0 l/m² 12,9 km/h (3 Bft) NW 315 ° 1 min 60 W/m² 10,0 °C 7,4 °C 19,3 km/h (3 Bft)
03.10.2024 16:15 17,7 °C 11,1 °C 57 % 93 % 1015,8 hPa 0,0 l/m² 13,3 km/h (3 Bft) N-NW 341 ° 1 min 60 W/m² 10,0 °C 7,2 °C 17,7 km/h (3 Bft)
03.10.2024 16:16 17,7 °C 11,1 °C 57 % 93 % 1015,8 hPa 0,0 l/m² 13,5 km/h (3 Bft) NW 315 ° 1 min 58 W/m² 10,0 °C 7,1 °C 19,3 km/h (3 Bft)
03.10.2024 16:17 17,7 °C 11,1 °C 57 % 93 % 1015,8 hPa 0,0 l/m² 8,1 km/h (2 Bft) N-NW 340 ° 1 min 56 W/m² 10,0 °C 9,9 °C 12,9 km/h (3 Bft)
03.10.2024 16:18 17,7 °C 11,1 °C 57 % 93 % 1015,7 hPa 0,0 l/m² 12,3 km/h (2 Bft) N-NW 338 ° 1 min 53 W/m² 10,0 °C 7,6 °C 16,1 km/h (3 Bft)
03.10.2024 16:19 17,7 °C 11,1 °C 57 % 93 % 1015,7 hPa 0,0 l/m² 8,6 km/h (2 Bft) NW 316 ° 0 min 44 W/m² 10,0 °C 9,6 °C 16,1 km/h (3 Bft)
03.10.2024 16:20 17,7 °C 11,1 °C 57 % 93 % 1015,7 hPa 0,0 l/m² 11,9 km/h (2 Bft) NW 315 ° 0 min 40 W/m² 10,0 °C 7,8 °C 17,7 km/h (3 Bft)
03.10.2024 16:21 17,7 °C 11,1 °C 57 % 93 % 1015,7 hPa 0,0 l/m² 7,4 km/h (2 Bft) N 355 ° 0 min 40 W/m² 10,0 °C 10,4 °C 12,9 km/h (3 Bft)
03.10.2024 16:22 17,7 °C 11,1 °C 57 % 93 % 1015,6 hPa 0,0 l/m² 11,1 km/h (2 Bft) W-NW 298 ° 0 min 44 W/m² 10,0 °C 8,2 °C 19,3 km/h (3 Bft)
03.10.2024 16:23 17,7 °C 11,1 °C 57 % 93 % 1015,7 hPa 0,0 l/m² 8,9 km/h (2 Bft) N-NW 331 ° 0 min 46 W/m² 10,0 °C 9,4 °C 16,1 km/h (3 Bft)
03.10.2024 16:24 17,7 °C 11,1 °C 57 % 93 % 1015,7 hPa 0,0 l/m² 11,1 km/h (2 Bft) NW 325 ° 0 min 40 W/m² 10,0 °C 8,2 °C 19,3 km/h (3 Bft)
03.10.2024 16:25 17,7 °C 11,1 °C 57 % 93 % 1015,6 hPa 0,0 l/m² 5,6 km/h (2 Bft) W 281 ° 0 min 47 W/m² 10,0 °C 11,1 °C 14,5 km/h (3 Bft)
03.10.2024 16:26 17,7 °C 11,1 °C 57 % 93 % 1015,7 hPa 0,0 l/m² 4,0 km/h (1 Bft) NW 315 ° 0 min 47 W/m² 10,0 °C 11,1 °C 11,3 km/h (2 Bft)
03.10.2024 16:27 17,7 °C 11,2 °C 57 % 93 % 1015,7 hPa 0,0 l/m² 4,6 km/h (1 Bft) NW 319 ° 0 min 47 W/m² 10,1 °C 11,2 °C 9,7 km/h (2 Bft)
03.10.2024 16:28 17,7 °C 11,2 °C 57 % 93 % 1015,7 hPa 0,0 l/m² 5,9 km/h (2 Bft) NW 306 ° 1 min 53 W/m² 10,1 °C 11,2 °C 14,5 km/h (3 Bft)
03.10.2024 16:29 17,7 °C 11,2 °C 57 % 93 % 1015,8 hPa 0,0 l/m² 4,0 km/h (1 Bft) NW 311 ° 1 min 53 W/m² 10,1 °C 11,2 °C 8,0 km/h (2 Bft)
03.10.2024 16:30 17,7 °C 11,2 °C 57 % 93 % 1015,8 hPa 0,0 l/m² 2,8 km/h (1 Bft) NW 307 ° 0 min 47 W/m² 10,1 °C 11,2 °C 6,4 km/h (2 Bft)
03.10.2024 16:31 17,7 °C 11,2 °C 57 % 93 % 1015,7 hPa 0,0 l/m² 3,1 km/h (1 Bft) W-NW 298 ° 1 min 60 W/m² 10,1 °C 11,2 °C 8,0 km/h (2 Bft)
03.10.2024 16:32 17,7 °C 11,2 °C 57 % 93 % 1015,7 hPa 0,0 l/m² 5,2 km/h (1 Bft) N-NW 335 ° 1 min 63 W/m² 10,1 °C 11,2 °C 11,3 km/h (2 Bft)
03.10.2024 16:33 17,7 °C 11,2 °C 57 % 93 % 1015,7 hPa 0,0 l/m² 6,8 km/h (2 Bft) W-SW 256 ° 1 min 70 W/m² 10,1 °C 10,9 °C 14,5 km/h (3 Bft)
03.10.2024 16:34 17,7 °C 11,2 °C 57 % 93 % 1015,6 hPa 0,0 l/m² 5,3 km/h (1 Bft) NW 306 ° 1 min 74 W/m² 10,1 °C 11,2 °C 14,5 km/h (3 Bft)
03.10.2024 16:35 17,7 °C 11,2 °C 57 % 93 % 1015,7 hPa 0,0 l/m² 10,2 km/h (2 Bft) NW 304 ° 1 min 76 W/m² 10,1 °C 8,8 °C 16,1 km/h (3 Bft)
03.10.2024 16:36 17,7 °C 11,2 °C 57 % 93 % 1015,7 hPa 0,0 l/m² 5,7 km/h (2 Bft) W-NW 298 ° 1 min 77 W/m² 10,1 °C 11,2 °C 16,1 km/h (3 Bft)
03.10.2024 16:37 17,7 °C 11,2 °C 57 % 93 % 1015,7 hPa 0,0 l/m² 10,5 km/h (2 Bft) NW 319 ° 1 min 77 W/m² 10,1 °C 8,7 °C 16,1 km/h (3 Bft)
03.10.2024 16:38 17,7 °C 11,2 °C 57 % 93 % 1015,7 hPa 0,0 l/m² 5,8 km/h (2 Bft) W-NW 298 ° 1 min 81 W/m² 10,1 °C 11,2 °C 9,7 km/h (2 Bft)
03.10.2024 16:39 17,7 °C 11,3 °C 57 % 93 % 1015,7 hPa 0,0 l/m² 6,2 km/h (2 Bft) NW 309 ° 1 min 83 W/m² 10,2 °C 11,3 °C 14,5 km/h (3 Bft)
03.10.2024 16:40 17,7 °C 11,2 °C 57 % 93 % 1015,6 hPa 0,0 l/m² 11,9 km/h (2 Bft) NW 321 ° 1 min 79 W/m² 10,1 °C 7,9 °C 17,7 km/h (3 Bft)
03.10.2024 16:41 17,7 °C 11,2 °C 57 % 93 % 1015,7 hPa 0,0 l/m² 7,4 km/h (2 Bft) NW 323 ° 1 min 76 W/m² 10,1 °C 10,5 °C 16,1 km/h (3 Bft)
03.10.2024 16:42 17,7 °C 11,2 °C 57 % 93 % 1015,7 hPa 0,0 l/m² 9,7 km/h (2 Bft) W 279 ° 1 min 74 W/m² 10,1 °C 9,1 °C 16,1 km/h (3 Bft)
03.10.2024 16:43 17,7 °C 11,3 °C 57 % 93 % 1015,7 hPa 0,0 l/m² 9,7 km/h (2 Bft) NW 313 ° 1 min 70 W/m² 10,2 °C 9,2 °C 16,1 km/h (3 Bft)
03.10.2024 16:44 17,7 °C 11,3 °C 57 % 93 % 1015,6 hPa 0,0 l/m² 8,4 km/h (2 Bft) NW 323 ° 1 min 69 W/m² 10,2 °C 10,0 °C 14,5 km/h (3 Bft)
03.10.2024 16:45 17,7 °C 11,3 °C 57 % 93 % 1015,7 hPa 0,0 l/m² 6,8 km/h (2 Bft) NW 325 ° 1 min 65 W/m² 10,2 °C 11,0 °C 12,9 km/h (3 Bft)
03.10.2024 16:46 17,7 °C 11,3 °C 57 % 93 % 1015,7 hPa 0,0 l/m² 6,8 km/h (2 Bft) N-NW 329 ° 1 min 63 W/m² 10,2 °C 11,0 °C 12,9 km/h (3 Bft)
03.10.2024 16:47 17,7 °C 11,2 °C 57 % 93 % 1015,6 hPa 0,0 l/m² 13,6 km/h (3 Bft) N-NW 328 ° 1 min 62 W/m² 10,1 °C 7,2 °C 19,3 km/h (3 Bft)
03.10.2024 16:48 17,7 °C 11,2 °C 57 % 93 % 1015,7 hPa 0,0 l/m² 3,7 km/h (1 Bft) NW 326 ° 1 min 63 W/m² 10,1 °C 11,2 °C 6,4 km/h (2 Bft)
03.10.2024 16:49 17,7 °C 11,3 °C 57 % 93 % 1015,6 hPa 0,0 l/m² 5,8 km/h (2 Bft) W-NW 302 ° 1 min 67 W/m² 10,2 °C 11,3 °C 14,5 km/h (3 Bft)
03.10.2024 16:50 17,7 °C 11,3 °C 57 % 93 % 1015,7 hPa 0,0 l/m² 7,6 km/h (2 Bft) W-NW 288 ° 1 min 69 W/m² 10,2 °C 10,5 °C 17,7 km/h (3 Bft)
03.10.2024 16:51 17,7 °C 11,3 °C 57 % 93 % 1015,6 hPa 0,0 l/m² 10,7 km/h (2 Bft) NW 326 ° 1 min 72 W/m² 10,2 °C 8,7 °C 17,7 km/h (3 Bft)
03.10.2024 16:52 17,7 °C 11,3 °C 57 % 93 % 1015,6 hPa 0,0 l/m² 9,2 km/h (2 Bft) NW 319 ° 1 min 69 W/m² 10,2 °C 9,5 °C 12,9 km/h (3 Bft)
03.10.2024 16:53 17,7 °C 11,3 °C 57 % 93 % 1015,6 hPa 0,0 l/m² 14,0 km/h (3 Bft) N-NW 345 ° 1 min 65 W/m² 10,2 °C 7,1 °C 19,3 km/h (3 Bft)
03.10.2024 16:54 17,7 °C 11,3 °C 57 % 93 % 1015,7 hPa 0,0 l/m² 12,1 km/h (2 Bft) W 263 ° 1 min 62 W/m² 10,2 °C 8,0 °C 19,3 km/h (3 Bft)
03.10.2024 16:55 17,7 °C 11,3 °C 57 % 93 % 1015,6 hPa 0,0 l/m² 10,9 km/h (2 Bft) NW 306 ° 1 min 62 W/m² 10,2 °C 8,6 °C 19,3 km/h (3 Bft)
03.10.2024 16:56 17,7 °C 11,3 °C 57 % 93 % 1015,6 hPa 0,0 l/m² 11,6 km/h (2 Bft) N-NW 339 ° 1 min 58 W/m² 10,2 °C 8,2 °C 17,7 km/h (3 Bft)
03.10.2024 16:57 17,7 °C 11,3 °C 57 % 93 % 1015,6 hPa 0,0 l/m² 9,0 km/h (2 Bft) N-NW 327 ° 1 min 54 W/m² 10,2 °C 9,6 °C 14,5 km/h (3 Bft)
03.10.2024 16:58 17,7 °C 11,3 °C 57 % 93 % 1015,7 hPa 0,0 l/m² 12,1 km/h (2 Bft) N-NW 348 ° 0 min 51 W/m² 10,2 °C 8,0 °C 19,3 km/h (3 Bft)
03.10.2024 16:59 17,7 °C 11,3 °C 57 % 93 % 1015,7 hPa 0,0 l/m² 9,3 km/h (2 Bft) N 351 ° 1 min 53 W/m² 10,2 °C 9,4 °C 14,5 km/h (3 Bft)
03.10.2024 17:00 17,7 °C 11,3 °C 57 % 93 % 1015,6 hPa 0,0 l/m² 9,3 km/h (2 Bft) NW 318 ° 0 min 49 W/m² 10,2 °C 9,4 °C 16,1 km/h (3 Bft)
03.10.2024 17:01 17,7 °C 11,3 °C 57 % 93 % 1015,7 hPa 0,0 l/m² 7,0 km/h (2 Bft) N-NW 341 ° 0 min 47 W/m² 10,2 °C 10,9 °C 9,7 km/h (2 Bft)
03.10.2024 17:02 17,7 °C 11,3 °C 57 % 93 % 1015,6 hPa 0,0 l/m² 12,9 km/h (3 Bft) NW 326 ° 0 min 44 W/m² 10,2 °C 7,6 °C 17,7 km/h (3 Bft)
03.10.2024 17:03 17,7 °C 11,3 °C 57 % 93 % 1015,7 hPa 0,0 l/m² 9,9 km/h (2 Bft) NW 311 ° 0 min 46 W/m² 10,2 °C 9,1 °C 16,1 km/h (3 Bft)
03.10.2024 17:04 17,7 °C 11,3 °C 57 % 93 % 1015,8 hPa 0,0 l/m² 7,5 km/h (2 Bft) N-NW 327 ° 0 min 47 W/m² 10,2 °C 10,5 °C 12,9 km/h (3 Bft)
03.10.2024 17:05 17,7 °C 11,3 °C 57 % 93 % 1015,7 hPa 0,0 l/m² 13,1 km/h (3 Bft) N-NW 333 ° 0 min 49 W/m² 10,2 °C 7,5 °C 16,1 km/h (3 Bft)
03.10.2024 17:06 17,7 °C 11,3 °C 57 % 93 % 1015,6 hPa 0,0 l/m² 10,7 km/h (2 Bft) W 276 ° 0 min 51 W/m² 10,2 °C 8,7 °C 16,1 km/h (3 Bft)
03.10.2024 17:07 17,7 °C 11,3 °C 57 % 92 % 1015,7 hPa 0,0 l/m² 9,5 km/h (2 Bft) N-NW 329 ° 0 min 51 W/m² 10,0 °C 9,3 °C 14,5 km/h (3 Bft)
03.10.2024 17:08 17,7 °C 11,3 °C 57 % 92 % 1015,8 hPa 0,0 l/m² 13,3 km/h (3 Bft) NW 312 ° 0 min 49 W/m² 10,0 °C 7,4 °C 19,3 km/h (3 Bft)
03.10.2024 17:09 17,7 °C 11,3 °C 57 % 93 % 1015,7 hPa 0,0 l/m² 8,3 km/h (2 Bft) NW 308 ° 0 min 49 W/m² 10,2 °C 10,0 °C 17,7 km/h (3 Bft)
03.10.2024 17:10 17,7 °C 11,3 °C 57 % 93 % 1015,7 hPa 0,0 l/m² 6,1 km/h (2 Bft) N 355 ° 0 min 47 W/m² 10,2 °C 11,3 °C 14,5 km/h (3 Bft)
03.10.2024 17:11 17,7 °C 11,4 °C 57 % 93 % 1015,7 hPa 0,0 l/m² 6,5 km/h (2 Bft) NW 308 ° 0 min 44 W/m² 10,3 °C 11,4 °C 16,1 km/h (3 Bft)
03.10.2024 17:12 17,7 °C 11,4 °C 57 % 93 % 1015,7 hPa 0,0 l/m² 9,8 km/h (2 Bft) NW 322 ° 0 min 42 W/m² 10,3 °C 9,3 °C 16,1 km/h (3 Bft)
03.10.2024 17:13 17,7 °C 11,4 °C 57 % 93 % 1015,7 hPa 0,0 l/m² 6,8 km/h (2 Bft) N 360 ° 0 min 42 W/m² 10,3 °C 11,1 °C 14,5 km/h (3 Bft)
03.10.2024 17:14 17,7 °C 11,4 °C 57 % 93 % 1015,7 hPa 0,0 l/m² 9,0 km/h (2 Bft) NW 325 ° 0 min 39 W/m² 10,3 °C 9,7 °C 12,9 km/h (3 Bft)
03.10.2024 17:15 17,7 °C 11,4 °C 57 % 93 % 1015,7 hPa 0,0 l/m² 8,6 km/h (2 Bft) N-NW 329 ° 0 min 33 W/m² 10,3 °C 9,9 °C 17,7 km/h (3 Bft)
03.10.2024 17:16 17,7 °C 11,4 °C 57 % 92 % 1015,8 hPa 0,0 l/m² 6,7 km/h (2 Bft) NW 318 ° 0 min 32 W/m² 10,1 °C 11,2 °C 12,9 km/h (3 Bft)
03.10.2024 17:17 17,7 °C 11,4 °C 57 % 92 % 1015,8 hPa 0,0 l/m² 9,9 km/h (2 Bft) NW 313 ° 0 min 28 W/m² 10,1 °C 9,2 °C 14,5 km/h (3 Bft)
03.10.2024 17:18 17,7 °C 11,4 °C 57 % 92 % 1015,7 hPa 0,0 l/m² 9,4 km/h (2 Bft) NW 321 ° 0 min 30 W/m² 10,1 °C 9,5 °C 17,7 km/h (3 Bft)
03.10.2024 17:19 17,7 °C 11,4 °C 57 % 92 % 1015,8 hPa 0,0 l/m² 11,5 km/h (2 Bft) N-NW 327 ° 0 min 26 W/m² 10,1 °C 8,4 °C 17,7 km/h (3 Bft)
03.10.2024 17:20 17,7 °C 11,4 °C 57 % 92 % 1015,8 hPa 0,0 l/m² 6,4 km/h (2 Bft) W-NW 292 ° 0 min 23 W/m² 10,1 °C 11,4 °C 8,0 km/h (2 Bft)
03.10.2024 17:21 17,7 °C 11,4 °C 57 % 92 % 1015,7 hPa 0,0 l/m² 4,8 km/h (1 Bft) N-NW 333 ° 0 min 23 W/m² 10,1 °C 11,4 °C 12,9 km/h (3 Bft)
03.10.2024 17:22 17,7 °C 11,4 °C 57 % 92 % 1015,7 hPa 0,0 l/m² 5,6 km/h (2 Bft) N 360 ° 0 min 21 W/m² 10,1 °C 11,4 °C 11,3 km/h (2 Bft)
03.10.2024 17:23 17,7 °C 11,4 °C 57 % 92 % 1015,7 hPa 0,0 l/m² 7,7 km/h (2 Bft) N 360 ° 0 min 18 W/m² 10,1 °C 10,5 °C 14,5 km/h (3 Bft)
03.10.2024 17:24 17,7 °C 11,4 °C 57 % 92 % 1015,7 hPa 0,0 l/m² 6,6 km/h (2 Bft) N-NW 336 ° 0 min 18 W/m² 10,1 °C 11,3 °C 14,5 km/h (3 Bft)
03.10.2024 17:25 17,7 °C 11,4 °C 57 % 92 % 1015,7 hPa 0,0 l/m² 4,4 km/h (1 Bft) NW 320 ° 0 min 19 W/m² 10,1 °C 11,4 °C 9,7 km/h (2 Bft)
03.10.2024 17:27 17,7 °C 11,4 °C 57 % 92 % 1015,7 hPa 0,0 l/m² 6,8 km/h (2 Bft) N-NW 342 ° 0 min 25 W/m² 10,1 °C 11,1 °C 14,5 km/h (3 Bft)
03.10.2024 17:28 17,7 °C 11,4 °C 57 % 92 % 1015,7 hPa 0,0 l/m² 7,3 km/h (2 Bft) NW 317 ° 0 min 25 W/m² 10,1 °C 10,8 °C 12,9 km/h (3 Bft)
03.10.2024 17:29 17,7 °C 11,4 °C 57 % 92 % 1015,7 hPa 0,0 l/m² 6,2 km/h (2 Bft) N-NW 328 ° 0 min 26 W/m² 10,1 °C 11,4 °C 12,9 km/h (3 Bft)
03.10.2024 17:30 17,7 °C 11,4 °C 57 % 92 % 1015,8 hPa 0,0 l/m² 6,7 km/h (2 Bft) NW 313 ° 0 min 25 W/m² 10,1 °C 11,2 °C 12,9 km/h (3 Bft)
03.10.2024 17:31 17,7 °C 11,4 °C 57 % 92 % 1015,8 hPa 0,0 l/m² 6,4 km/h (2 Bft) NW 321 ° 0 min 23 W/m² 10,1 °C 11,4 °C 12,9 km/h (3 Bft)
03.10.2024 17:32 17,7 °C 11,4 °C 57 % 92 % 1015,8 hPa 0,0 l/m² 5,6 km/h (2 Bft) N-NW 327 ° 0 min 21 W/m² 10,1 °C 11,4 °C 12,9 km/h (3 Bft)
03.10.2024 17:33 17,7 °C 11,4 °C 57 % 92 % 1015,8 hPa 0,0 l/m² 6,2 km/h (2 Bft) NW 318 ° 0 min 21 W/m² 10,1 °C 11,4 °C 9,7 km/h (2 Bft)
03.10.2024 17:34 17,7 °C 11,4 °C 57 % 92 % 1015,8 hPa 0,0 l/m² 7,0 km/h (2 Bft) NW 321 ° 0 min 21 W/m² 10,1 °C 11,0 °C 12,9 km/h (3 Bft)
03.10.2024 17:35 17,7 °C 11,4 °C 57 % 92 % 1015,8 hPa 0,0 l/m² 6,6 km/h (2 Bft) N-NW 329 ° 0 min 21 W/m² 10,1 °C 11,3 °C 12,9 km/h (3 Bft)
03.10.2024 17:36 17,7 °C 11,4 °C 57 % 92 % 1015,8 hPa 0,0 l/m² 10,7 km/h (2 Bft) N-NW 344 ° 0 min 19 W/m² 10,1 °C 8,8 °C 16,1 km/h (3 Bft)
03.10.2024 17:37 17,7 °C 11,4 °C 57 % 92 % 1015,8 hPa 0,0 l/m² 8,6 km/h (2 Bft) N-NW 347 ° 0 min 18 W/m² 10,1 °C 9,9 °C 12,9 km/h (3 Bft)
03.10.2024 17:38 17,7 °C 11,4 °C 57 % 92 % 1015,9 hPa 0,0 l/m² 7,0 km/h (2 Bft) NW 326 ° 0 min 18 W/m² 10,1 °C 11,0 °C 12,9 km/h (3 Bft)
03.10.2024 17:39 17,6 °C 11,4 °C 57 % 92 % 1015,8 hPa 0,0 l/m² 4,8 km/h (1 Bft) N-NW 344 ° 0 min 16 W/m² 10,1 °C 11,4 °C 8,0 km/h (2 Bft)
03.10.2024 17:40 17,7 °C 11,4 °C 57 % 92 % 1015,8 hPa 0,0 l/m² 3,8 km/h (1 Bft) NW 317 ° 0 min 18 W/m² 10,1 °C 11,4 °C 8,0 km/h (2 Bft)
03.10.2024 17:41 17,7 °C 11,4 °C 57 % 92 % 1016,0 hPa 0,0 l/m² 4,7 km/h (1 Bft) NW 313 ° 0 min 18 W/m² 10,1 °C 11,4 °C 11,3 km/h (2 Bft)
03.10.2024 17:42 17,7 °C 11,4 °C 57 % 92 % 1015,8 hPa 0,0 l/m² 7,5 km/h (2 Bft) NW 323 ° 0 min 16 W/m² 10,1 °C 10,7 °C 12,9 km/h (3 Bft)
03.10.2024 17:43 17,7 °C 11,4 °C 57 % 92 % 1015,9 hPa 0,0 l/m² 3,8 km/h (1 Bft) NW 314 ° 0 min 16 W/m² 10,1 °C 11,4 °C 8,0 km/h (2 Bft)
03.10.2024 17:44 17,7 °C 11,4 °C 57 % 92 % 1015,8 hPa 0,0 l/m² 6,7 km/h (2 Bft) N-NW 327 ° 0 min 16 W/m² 10,1 °C 11,2 °C 11,3 km/h (2 Bft)
03.10.2024 17:45 17,7 °C 11,4 °C 57 % 92 % 1015,9 hPa 0,0 l/m² 6,2 km/h (2 Bft) N-NW 333 ° 0 min 16 W/m² 10,1 °C 11,4 °C 9,7 km/h (2 Bft)
03.10.2024 17:46 17,7 °C 11,4 °C 57 % 92 % 1015,9 hPa 0,0 l/m² 7,8 km/h (2 Bft) NW 321 ° 0 min 18 W/m² 10,1 °C 10,5 °C 12,9 km/h (3 Bft)
03.10.2024 17:47 17,7 °C 11,4 °C 57 % 92 % 1015,9 hPa 0,0 l/m² 7,6 km/h (2 Bft) NW 321 ° 0 min 19 W/m² 10,1 °C 10,6 °C 12,9 km/h (3 Bft)
03.10.2024 17:48 17,7 °C 11,4 °C 57 % 92 % 1015,9 hPa 0,0 l/m² 6,5 km/h (2 Bft) W-NW 298 ° 0 min 21 W/m² 10,1 °C 11,4 °C 9,7 km/h (2 Bft)
03.10.2024 17:49 17,7 °C 11,4 °C 57 % 92 % 1015,9 hPa 0,0 l/m² 9,5 km/h (2 Bft) N-NW 346 ° 0 min 19 W/m² 10,1 °C 9,4 °C 14,5 km/h (3 Bft)
03.10.2024 17:50 17,7 °C 11,4 °C 57 % 92 % 1015,9 hPa 0,0 l/m² 10,3 km/h (2 Bft) NW 324 ° 0 min 19 W/m² 10,1 °C 9,0 °C 14,5 km/h (3 Bft)
03.10.2024 17:51 17,7 °C 11,4 °C 57 % 92 % 1016,0 hPa 0,0 l/m² 10,0 km/h (2 Bft) N-NW 336 ° 0 min 19 W/m² 10,1 °C 9,1 °C 14,5 km/h (3 Bft)
03.10.2024 17:52 17,7 °C 11,4 °C 57 % 92 % 1016,0 hPa 0,0 l/m² 7,2 km/h (2 Bft) N-NW 331 ° 0 min 18 W/m² 10,1 °C 10,9 °C 12,9 km/h (3 Bft)
03.10.2024 17:53 17,7 °C 11,4 °C 57 % 92 % 1016,1 hPa 0,0 l/m² 5,0 km/h (1 Bft) NW 315 ° 0 min 16 W/m² 10,1 °C 11,4 °C 9,7 km/h (2 Bft)
03.10.2024 17:54 17,6 °C 11,4 °C 57 % 92 % 1016,1 hPa 0,0 l/m² 10,2 km/h (2 Bft) NW 321 ° 0 min 16 W/m² 10,1 °C 9,0 °C 16,1 km/h (3 Bft)
03.10.2024 17:55 17,7 °C 11,4 °C 57 % 92 % 1016,0 hPa 0,0 l/m² 5,8 km/h (2 Bft) W-NW 292 ° 0 min 14 W/m² 10,1 °C 11,4 °C 8,0 km/h (2 Bft)
03.10.2024 17:56 17,7 °C 11,4 °C 57 % 92 % 1016,1 hPa 0,0 l/m² 5,9 km/h (2 Bft) N-NW 327 ° 0 min 12 W/m² 10,1 °C 11,4 °C 9,7 km/h (2 Bft)
03.10.2024 17:57 17,7 °C 11,4 °C 57 % 91 % 1016,1 hPa 0,0 l/m² 4,1 km/h (1 Bft) N-NW 336 ° 0 min 12 W/m² 10,0 °C 11,4 °C 6,4 km/h (2 Bft)
03.10.2024 17:58 17,7 °C 11,4 °C 57 % 92 % 1016,1 hPa 0,0 l/m² 5,5 km/h (2 Bft) N-NW 336 ° 0 min 11 W/m² 10,1 °C 11,4 °C 12,9 km/h (3 Bft)
03.10.2024 17:59 17,7 °C 11,4 °C 57 % 92 % 1016,2 hPa 0,0 l/m² 7,5 km/h (2 Bft) NW 313 ° 0 min 11 W/m² 10,1 °C 10,7 °C 9,7 km/h (2 Bft)
03.10.2024 18:00 17,7 °C 11,4 °C 57 % 92 % 1016,1 hPa 0,0 l/m² 5,8 km/h (2 Bft) N 351 ° 0 min 7 W/m² 10,1 °C 11,4 °C 14,5 km/h (3 Bft)
03.10.2024 18:02 17,7 °C 11,4 °C 57 % 91 % 1016,2 hPa 0,0 l/m² 8,7 km/h (2 Bft) W-NW 300 ° 0 min 7 W/m² 10,0 °C 9,9 °C 16,1 km/h (3 Bft)
03.10.2024 18:03 17,7 °C 11,4 °C 57 % 91 % 1016,2 hPa 0,0 l/m² 6,6 km/h (2 Bft) W 263 ° 0 min 9 W/m² 10,0 °C 11,3 °C 9,7 km/h (2 Bft)
03.10.2024 18:04 17,7 °C 11,4 °C 57 % 91 % 1016,1 hPa 0,0 l/m² 7,0 km/h (2 Bft) N-NW 343 ° 0 min 7 W/m² 10,0 °C 11,0 °C 12,9 km/h (3 Bft)
03.10.2024 18:05 17,7 °C 11,4 °C 57 % 91 % 1016,2 hPa 0,0 l/m² 6,3 km/h (2 Bft) NW 313 ° 0 min 9 W/m² 10,0 °C 11,4 °C 8,0 km/h (2 Bft)
03.10.2024 18:06 17,6 °C 11,4 °C 57 % 91 % 1016,2 hPa 0,0 l/m² 7,4 km/h (2 Bft) NW 315 ° 0 min 9 W/m² 10,0 °C 10,7 °C 14,5 km/h (3 Bft)
03.10.2024 18:07 17,7 °C 11,4 °C 57 % 91 % 1016,2 hPa 0,0 l/m² 10,1 km/h (2 Bft) W-NW 282 ° 0 min 9 W/m² 10,0 °C 9,1 °C 16,1 km/h (3 Bft)
03.10.2024 18:08 17,7 °C 11,4 °C 57 % 91 % 1016,2 hPa 0,0 l/m² 6,8 km/h (2 Bft) N-NW 331 ° 0 min 9 W/m² 10,0 °C 11,1 °C 12,9 km/h (3 Bft)
03.10.2024 18:09 17,7 °C 11,4 °C 57 % 91 % 1016,2 hPa 0,0 l/m² 7,9 km/h (2 Bft) W-NW 298 ° 0 min 9 W/m² 10,0 °C 10,4 °C 14,5 km/h (3 Bft)
03.10.2024 18:10 17,6 °C 11,4 °C 57 % 91 % 1016,2 hPa 0,0 l/m² 9,1 km/h (2 Bft) N-NW 336 ° 0 min 7 W/m² 10,0 °C 9,6 °C 14,5 km/h (3 Bft)
03.10.2024 18:11 17,7 °C 11,4 °C 57 % 91 % 1016,2 hPa 0,0 l/m² 7,1 km/h (2 Bft) NW 309 ° 0 min 7 W/m² 10,0 °C 10,9 °C 14,5 km/h (3 Bft)
03.10.2024 18:12 17,7 °C 11,4 °C 57 % 91 % 1016,2 hPa 0,0 l/m² 8,0 km/h (2 Bft) NW 318 ° 0 min 7 W/m² 10,0 °C 10,3 °C 12,9 km/h (3 Bft)
03.10.2024 18:13 17,7 °C 11,4 °C 57 % 91 % 1016,3 hPa 0,0 l/m² 3,2 km/h (1 Bft) NW 324 ° 0 min 5 W/m² 10,0 °C 11,4 °C 8,0 km/h (2 Bft)
03.10.2024 18:14 17,6 °C 11,4 °C 57 % 91 % 1016,3 hPa 0,0 l/m² 6,8 km/h (2 Bft) N 351 ° 0 min 5 W/m² 10,0 °C 11,1 °C 16,1 km/h (3 Bft)
03.10.2024 18:15 17,7 °C 11,4 °C 57 % 91 % 1016,3 hPa 0,0 l/m² 8,5 km/h (2 Bft) W-NW 292 ° 0 min 5 W/m² 10,0 °C 10,0 °C 14,5 km/h (3 Bft)
03.10.2024 18:16 17,7 °C 11,4 °C 57 % 91 % 1016,3 hPa 0,0 l/m² 8,0 km/h (2 Bft) NW 320 ° 0 min 5 W/m² 10,0 °C 10,3 °C 14,5 km/h (3 Bft)
03.10.2024 18:17 17,7 °C 11,4 °C 57 % 91 % 1016,4 hPa 0,0 l/m² 11,3 km/h (2 Bft) N-NW 332 ° 0 min 5 W/m² 10,0 °C 8,5 °C 16,1 km/h (3 Bft)
03.10.2024 18:18 17,7 °C 11,4 °C 57 % 91 % 1016,3 hPa 0,0 l/m² 5,1 km/h (1 Bft) NW 319 ° 0 min 5 W/m² 10,0 °C 11,4 °C 9,7 km/h (2 Bft)
03.10.2024 18:19 17,7 °C 11,4 °C 57 % 91 % 1016,3 hPa 0,0 l/m² 4,5 km/h (1 Bft) W 275 ° 0 min 5 W/m² 10,0 °C 11,4 °C 8,0 km/h (2 Bft)
03.10.2024 18:20 17,7 °C 11,4 °C 57 % 91 % 1016,3 hPa 0,0 l/m² 5,3 km/h (1 Bft) N-NW 343 ° 0 min 5 W/m² 10,0 °C 11,4 °C 9,7 km/h (2 Bft)
03.10.2024 18:21 17,7 °C 11,4 °C 57 % 91 % 1016,3 hPa 0,0 l/m² 3,8 km/h (1 Bft) W-NW 294 ° 0 min 5 W/m² 10,0 °C 11,4 °C 8,0 km/h (2 Bft)
03.10.2024 18:22 17,7 °C 11,4 °C 57 % 91 % 1016,3 hPa 0,0 l/m² 8,7 km/h (2 Bft) N-NW 333 ° 0 min 5 W/m² 10,0 °C 9,9 °C 16,1 km/h (3 Bft)
03.10.2024 18:23 17,7 °C 11,4 °C 57 % 91 % 1016,4 hPa 0,0 l/m² 7,0 km/h (2 Bft) NW 308 ° 0 min 5 W/m² 10,0 °C 11,0 °C 16,1 km/h (3 Bft)
03.10.2024 18:24 17,7 °C 11,4 °C 57 % 91 % 1016,4 hPa 0,0 l/m² 6,8 km/h (2 Bft) NW 316 ° 0 min 5 W/m² 10,0 °C 11,1 °C 12,9 km/h (3 Bft)
03.10.2024 18:25 17,6 °C 11,4 °C 57 % 91 % 1016,4 hPa 0,0 l/m² 2,3 km/h (1 Bft) N 350 ° 0 min 5 W/m² 10,0 °C 11,4 °C 6,4 km/h (2 Bft)
03.10.2024 18:26 17,7 °C 11,4 °C 57 % 91 % 1016,4 hPa 0,0 l/m² 4,1 km/h (1 Bft) N 351 ° 0 min 5 W/m² 10,0 °C 11,4 °C 8,0 km/h (2 Bft)
03.10.2024 18:27 17,6 °C 11,3 °C 57 % 91 % 1016,4 hPa 0,0 l/m² 5,4 km/h (2 Bft) W-NW 293 ° 0 min 5 W/m² 9,9 °C 11,3 °C 9,7 km/h (2 Bft)
03.10.2024 18:28 17,7 °C 11,4 °C 57 % 91 % 1016,4 hPa 0,0 l/m² 2,6 km/h (1 Bft) N-NW 332 ° 0 min 0 W/m² 10,0 °C 11,4 °C 8,0 km/h (2 Bft)
03.10.2024 18:29 17,6 °C 11,3 °C 57 % 91 % 1016,4 hPa 0,0 l/m² 4,0 km/h (1 Bft) W-NW 298 ° 0 min 0 W/m² 9,9 °C 11,3 °C 9,7 km/h (2 Bft)
03.10.2024 18:30 17,6 °C 11,3 °C 57 % 91 % 1016,4 hPa 0,0 l/m² 5,6 km/h (2 Bft) NW 325 ° 0 min 0 W/m² 9,9 °C 11,3 °C 12,9 km/h (3 Bft)
03.10.2024 18:32 17,6 °C 11,3 °C 57 % 92 % 1016,4 hPa 0,0 l/m² 7,1 km/h (2 Bft) N-NW 331 ° 0 min 0 W/m² 10,0 °C 10,8 °C 16,1 km/h (3 Bft)
03.10.2024 18:33 17,6 °C 11,3 °C 57 % 92 % 1016,4 hPa 0,0 l/m² 2,8 km/h (1 Bft) NW 323 ° 0 min 0 W/m² 10,0 °C 11,3 °C 6,4 km/h (2 Bft)
03.10.2024 18:34 17,7 °C 11,3 °C 57 % 92 % 1016,5 hPa 0,0 l/m² 4,7 km/h (1 Bft) N-NW 343 ° 0 min 0 W/m² 10,0 °C 11,3 °C 9,7 km/h (2 Bft)
03.10.2024 18:35 17,7 °C 11,3 °C 57 % 92 % 1016,4 hPa 0,0 l/m² 9,1 km/h (2 Bft) NW 316 ° 0 min 0 W/m² 10,0 °C 9,5 °C 17,7 km/h (3 Bft)
03.10.2024 18:36 17,7 °C 11,3 °C 57 % 92 % 1016,5 hPa 0,0 l/m² 6,3 km/h (2 Bft) N-NW 340 ° 0 min 0 W/m² 10,0 °C 11,3 °C 12,9 km/h (3 Bft)
03.10.2024 18:37 17,6 °C 11,3 °C 57 % 92 % 1016,5 hPa 0,0 l/m² 3,6 km/h (1 Bft) NW 325 ° 0 min 0 W/m² 10,0 °C 11,3 °C 6,4 km/h (2 Bft)
03.10.2024 18:38 17,7 °C 11,3 °C 57 % 92 % 1016,5 hPa 0,0 l/m² 3,4 km/h (1 Bft) NW 311 ° 0 min 0 W/m² 10,0 °C 11,3 °C 6,4 km/h (2 Bft)
03.10.2024 18:39 17,7 °C 11,3 °C 57 % 92 % 1016,5 hPa 0,0 l/m² 5,0 km/h (1 Bft) NW 319 ° 0 min 0 W/m² 10,0 °C 11,3 °C 8,0 km/h (2 Bft)
03.10.2024 18:40 17,6 °C 11,3 °C 57 % 92 % 1016,5 hPa 0,0 l/m² 4,8 km/h (1 Bft) NW 325 ° 0 min 0 W/m² 10,0 °C 11,3 °C 6,4 km/h (2 Bft)
03.10.2024 18:41 17,6 °C 11,2 °C 57 % 92 % 1016,5 hPa 0,0 l/m² 6,0 km/h (2 Bft) NW 320 ° 0 min 0 W/m² 9,9 °C 11,2 °C 9,7 km/h (2 Bft)
03.10.2024 18:42 17,6 °C 11,2 °C 57 % 92 % 1016,5 hPa 0,0 l/m² 3,4 km/h (1 Bft) NW 311 ° 0 min 0 W/m² 9,9 °C 11,2 °C 6,4 km/h (2 Bft)
03.10.2024 18:43 17,6 °C 11,2 °C 57 % 92 % 1016,6 hPa 0,0 l/m² 4,5 km/h (1 Bft) NW 309 ° 0 min 0 W/m² 9,9 °C 11,2 °C 8,0 km/h (2 Bft)
03.10.2024 18:44 17,6 °C 11,2 °C 57 % 92 % 1016,6 hPa 0,0 l/m² 3,2 km/h (1 Bft) N 355 ° 0 min 0 W/m² 9,9 °C 11,2 °C 6,4 km/h (2 Bft)
03.10.2024 18:46 17,7 °C 11,2 °C 57 % 92 % 1016,5 hPa 0,0 l/m² 5,4 km/h (2 Bft) NW 315 ° 0 min 0 W/m² 9,9 °C 11,2 °C 12,9 km/h (3 Bft)
03.10.2024 18:47 17,7 °C 11,2 °C 57 % 92 % 1016,6 hPa 0,0 l/m² 4,0 km/h (1 Bft) N-NW 345 ° 0 min 0 W/m² 9,9 °C 11,2 °C 8,0 km/h (2 Bft)
03.10.2024 18:48 17,6 °C 11,2 °C 57 % 92 % 1016,5 hPa 0,0 l/m² 3,6 km/h (1 Bft) W-NW 290 ° 0 min 0 W/m² 9,9 °C 11,2 °C 11,3 km/h (2 Bft)
03.10.2024 18:49 17,7 °C 11,2 °C 57 % 92 % 1016,6 hPa 0,0 l/m² 7,4 km/h (2 Bft) NW 317 ° 0 min 0 W/m² 9,9 °C 10,5 °C 12,9 km/h (3 Bft)
03.10.2024 18:50 17,6 °C 11,2 °C 57 % 92 % 1016,6 hPa 0,0 l/m² 6,3 km/h (2 Bft) W-NW 296 ° 0 min 0 W/m² 9,9 °C 11,2 °C 9,7 km/h (2 Bft)
03.10.2024 18:51 17,6 °C 11,2 °C 57 % 92 % 1016,6 hPa 0,0 l/m² 3,2 km/h (1 Bft) W-NW 291 ° 0 min 0 W/m² 9,9 °C 11,2 °C 6,4 km/h (2 Bft)
03.10.2024 18:52 17,6 °C 11,2 °C 57 % 92 % 1016,6 hPa 0,0 l/m² 5,2 km/h (1 Bft) N 355 ° 0 min 0 W/m² 9,9 °C 11,2 °C 9,7 km/h (2 Bft)
03.10.2024 18:53 17,7 °C 11,2 °C 57 % 92 % 1016,6 hPa 0,0 l/m² 3,0 km/h (1 Bft) W-NW 285 ° 0 min 0 W/m² 9,9 °C 11,2 °C 6,4 km/h (2 Bft)
03.10.2024 18:54 17,6 °C 11,2 °C 57 % 92 % 1016,6 hPa 0,0 l/m² 4,2 km/h (1 Bft) W-NW 299 ° 0 min 0 W/m² 9,9 °C 11,2 °C 8,0 km/h (2 Bft)
03.10.2024 18:55 17,6 °C 11,2 °C 57 % 92 % 1016,6 hPa 0,0 l/m² 2,5 km/h (1 Bft) W-NW 300 ° 0 min 0 W/m² 9,9 °C 11,2 °C 4,8 km/h (1 Bft)
03.10.2024 18:56 17,6 °C 11,2 °C 57 % 92 % 1016,6 hPa 0,0 l/m² 5,1 km/h (1 Bft) NW 310 ° 0 min 0 W/m² 9,9 °C 11,2 °C 8,0 km/h (2 Bft)
03.10.2024 18:57 17,6 °C 11,2 °C 57 % 92 % 1016,6 hPa 0,0 l/m² 2,1 km/h (1 Bft) NW 311 ° 0 min 0 W/m² 9,9 °C 11,2 °C 6,4 km/h (2 Bft)
03.10.2024 18:58 17,6 °C 11,2 °C 57 % 92 % 1016,6 hPa 0,0 l/m² 3,8 km/h (1 Bft) NW 313 ° 0 min 0 W/m² 9,9 °C 11,2 °C 6,4 km/h (2 Bft)
03.10.2024 18:59 17,6 °C 11,2 °C 57 % 92 % 1016,7 hPa 0,0 l/m² 1,4 km/h (1 Bft) NW 313 ° 0 min 0 W/m² 9,9 °C 11,2 °C 3,2 km/h (1 Bft)
03.10.2024 19:00 17,6 °C 11,2 °C 57 % 92 % 1016,7 hPa 0,0 l/m² 3,8 km/h (1 Bft) NW 314 ° 0 min 0 W/m² 9,9 °C 11,2 °C 6,4 km/h (2 Bft)
03.10.2024 19:02 17,7 °C 11,2 °C 57 % 92 % 1016,6 hPa 0,0 l/m² 6,7 km/h (2 Bft) N-NW 330 ° 0 min 0 W/m² 9,9 °C 11,0 °C 12,9 km/h (3 Bft)
03.10.2024 19:03 17,7 °C 11,2 °C 57 % 92 % 1016,6 hPa 0,0 l/m² 4,7 km/h (1 Bft) NW 312 ° 0 min 0 W/m² 9,9 °C 11,2 °C 8,0 km/h (2 Bft)
03.10.2024 19:04 17,7 °C 11,2 °C 57 % 92 % 1016,7 hPa 0,0 l/m² 3,9 km/h (1 Bft) N 355 ° 0 min 0 W/m² 9,9 °C 11,2 °C 8,0 km/h (2 Bft)
03.10.2024 19:05 17,6 °C 11,2 °C 57 % 92 % 1016,7 hPa 0,0 l/m² 5,5 km/h (2 Bft) W-NW 294 ° 0 min 0 W/m² 9,9 °C 11,2 °C 12,9 km/h (3 Bft)
03.10.2024 19:06 17,6 °C 11,2 °C 57 % 93 % 1016,7 hPa 0,0 l/m² 5,2 km/h (1 Bft) N-NW 336 ° 0 min 0 W/m² 10,1 °C 11,2 °C 11,3 km/h (2 Bft)
03.10.2024 19:07 17,6 °C 11,2 °C 57 % 92 % 1016,6 hPa 0,0 l/m² 6,5 km/h (2 Bft) NW 321 ° 0 min 0 W/m² 9,9 °C 11,2 °C 9,7 km/h (2 Bft)
03.10.2024 19:08 17,6 °C 11,2 °C 57 % 92 % 1016,6 hPa 0,0 l/m² 5,6 km/h (2 Bft) NW 311 ° 0 min 0 W/m² 9,9 °C 11,2 °C 12,9 km/h (3 Bft)
03.10.2024 19:09 17,6 °C 11,1 °C 57 % 93 % 1016,7 hPa 0,0 l/m² 7,2 km/h (2 Bft) N-NW 328 ° 0 min 0 W/m² 10,0 °C 10,5 °C 9,7 km/h (2 Bft)
03.10.2024 19:10 17,6 °C 11,1 °C 57 % 93 % 1016,7 hPa 0,0 l/m² 3,2 km/h (1 Bft) NW 318 ° 0 min 0 W/m² 10,0 °C 11,1 °C 8,0 km/h (2 Bft)
03.10.2024 19:11 17,6 °C 11,1 °C 57 % 93 % 1016,6 hPa 0,0 l/m² 4,2 km/h (1 Bft) NW 321 ° 0 min 0 W/m² 10,0 °C 11,1 °C 14,5 km/h (3 Bft)
03.10.2024 19:12 17,6 °C 11,1 °C 57 % 93 % 1016,6 hPa 0,0 l/m² 5,7 km/h (2 Bft) W-NW 291 ° 0 min 0 W/m² 10,0 °C 11,1 °C 11,3 km/h (2 Bft)
03.10.2024 19:13 17,6 °C 11,1 °C 57 % 93 % 1016,6 hPa 0,0 l/m² 3,8 km/h (1 Bft) W-NW 284 ° 0 min 0 W/m² 10,0 °C 11,1 °C 11,3 km/h (2 Bft)
03.10.2024 19:14 17,6 °C 11,1 °C 57 % 93 % 1016,7 hPa 0,0 l/m² 3,9 km/h (1 Bft) NW 315 ° 0 min 0 W/m² 10,0 °C 11,1 °C 8,0 km/h (2 Bft)
03.10.2024 19:15 17,6 °C 11,1 °C 57 % 93 % 1016,7 hPa 0,0 l/m² 2,7 km/h (1 Bft) NW 313 ° 0 min 0 W/m² 10,0 °C 11,1 °C 9,7 km/h (2 Bft)
03.10.2024 19:16 17,6 °C 11,1 °C 57 % 93 % 1016,7 hPa 0,0 l/m² 6,2 km/h (2 Bft) NW 324 ° 0 min 0 W/m² 10,0 °C 11,1 °C 9,7 km/h (2 Bft)
03.10.2024 19:17 17,6 °C 11,1 °C 57 % 93 % 1016,7 hPa 0,0 l/m² 5,3 km/h (1 Bft) NW 309 ° 0 min 0 W/m² 10,0 °C 11,1 °C 12,9 km/h (3 Bft)
03.10.2024 19:18 17,6 °C 11,1 °C 57 % 93 % 1016,7 hPa 0,0 l/m² 6,2 km/h (2 Bft) W-NW 298 ° 0 min 0 W/m² 10,0 °C 11,1 °C 14,5 km/h (3 Bft)
03.10.2024 19:19 17,6 °C 11,1 °C 57 % 93 % 1016,7 hPa 0,0 l/m² 7,3 km/h (2 Bft) NW 319 ° 0 min 0 W/m² 10,0 °C 10,5 °C 14,5 km/h (3 Bft)
03.10.2024 19:20 17,6 °C 11,1 °C 57 % 93 % 1016,8 hPa 0,0 l/m² 5,5 km/h (2 Bft) N-NW 327 ° 0 min 0 W/m² 10,0 °C 11,1 °C 9,7 km/h (2 Bft)
03.10.2024 19:21 17,6 °C 11,1 °C 57 % 93 % 1016,8 hPa 0,0 l/m² 6,4 km/h (2 Bft) NW 318 ° 0 min 0 W/m² 10,0 °C 11,1 °C 12,9 km/h (3 Bft)
03.10.2024 19:22 17,6 °C 11,1 °C 57 % 93 % 1016,8 hPa 0,0 l/m² 5,3 km/h (1 Bft) NW 311 ° 0 min 0 W/m² 10,0 °C 11,1 °C 9,7 km/h (2 Bft)
03.10.2024 19:23 17,6 °C 11,1 °C 57 % 93 % 1016,7 hPa 0,0 l/m² 6,0 km/h (2 Bft) W-NW 302 ° 0 min 0 W/m² 10,0 °C 11,1 °C 12,9 km/h (3 Bft)
03.10.2024 19:24 17,6 °C 11,1 °C 57 % 93 % 1016,8 hPa 0,0 l/m² 3,8 km/h (1 Bft) N 10 ° 0 min 0 W/m² 10,0 °C 11,1 °C 6,4 km/h (2 Bft)
03.10.2024 19:25 17,6 °C 11,1 °C 57 % 93 % 1016,7 hPa 0,0 l/m² 9,3 km/h (2 Bft) NW 311 ° 0 min 0 W/m² 10,0 °C 9,2 °C 14,5 km/h (3 Bft)
03.10.2024 19:26 17,6 °C 11,1 °C 57 % 93 % 1016,7 hPa 0,0 l/m² 8,2 km/h (2 Bft) W-NW 298 ° 0 min 0 W/m² 10,0 °C 9,9 °C 14,5 km/h (3 Bft)
03.10.2024 19:27 17,6 °C 11,1 °C 57 % 93 % 1016,7 hPa 0,0 l/m² 8,2 km/h (2 Bft) NW 306 ° 0 min 0 W/m² 10,0 °C 9,9 °C 16,1 km/h (3 Bft)
03.10.2024 19:28 17,6 °C 11,1 °C 57 % 93 % 1016,7 hPa 0,0 l/m² 6,6 km/h (2 Bft) N-NW 333 ° 0 min 0 W/m² 10,0 °C 11,0 °C 14,5 km/h (3 Bft)
03.10.2024 19:29 17,6 °C 11,1 °C 57 % 93 % 1016,7 hPa 0,0 l/m² 10,1 km/h (2 Bft) NW 315 ° 0 min 0 W/m² 10,0 °C 8,8 °C 16,1 km/h (3 Bft)
03.10.2024 19:30 17,6 °C 11,1 °C 57 % 93 % 1016,7 hPa 0,0 l/m² 5,8 km/h (2 Bft) NW 316 ° 0 min 0 W/m² 10,0 °C 11,1 °C 9,7 km/h (2 Bft)
03.10.2024 19:32 17,6 °C 11,1 °C 57 % 93 % 1016,7 hPa 0,0 l/m² 6,9 km/h (2 Bft) N-NW 333 ° 0 min 0 W/m² 10,0 °C 10,8 °C 14,5 km/h (3 Bft)
03.10.2024 19:33 17,6 °C 11,1 °C 57 % 93 % 1016,7 hPa 0,0 l/m² 10,8 km/h (2 Bft) N-NW 328 ° 0 min 0 W/m² 10,0 °C 8,4 °C 17,7 km/h (3 Bft)
03.10.2024 19:34 17,6 °C 11,1 °C 57 % 93 % 1016,8 hPa 0,0 l/m² 8,3 km/h (2 Bft) NW 309 ° 0 min 0 W/m² 10,0 °C 9,8 °C 16,1 km/h (3 Bft)
03.10.2024 19:35 17,6 °C 11,1 °C 57 % 93 % 1016,7 hPa 0,0 l/m² 6,4 km/h (2 Bft) NW 306 ° 0 min 0 W/m² 10,0 °C 11,1 °C 12,9 km/h (3 Bft)
03.10.2024 19:36 17,6 °C 11,1 °C 57 % 93 % 1016,7 hPa 0,0 l/m² 7,3 km/h (2 Bft) N-NW 338 ° 0 min 0 W/m² 10,0 °C 10,5 °C 9,7 km/h (2 Bft)
03.10.2024 19:37 17,6 °C 11,1 °C 57 % 93 % 1016,7 hPa 0,0 l/m² 11,9 km/h (2 Bft) N-NW 342 ° 0 min 0 W/m² 10,0 °C 7,8 °C 17,7 km/h (3 Bft)
03.10.2024 19:38 17,6 °C 11,1 °C 57 % 93 % 1016,7 hPa 0,0 l/m² 8,7 km/h (2 Bft) N-NW 341 ° 0 min 0 W/m² 10,0 °C 9,6 °C 16,1 km/h (3 Bft)
03.10.2024 19:39 17,6 °C 11,1 °C 57 % 93 % 1016,7 hPa 0,0 l/m² 8,6 km/h (2 Bft) NW 315 ° 0 min 0 W/m² 10,0 °C 9,6 °C 16,1 km/h (3 Bft)
03.10.2024 19:40 17,6 °C 11,1 °C 57 % 93 % 1016,8 hPa 0,0 l/m² 7,8 km/h (2 Bft) N-NW 333 ° 0 min 0 W/m² 10,0 °C 10,1 °C 14,5 km/h (3 Bft)
03.10.2024 19:41 17,6 °C 11,1 °C 57 % 93 % 1016,8 hPa 0,0 l/m² 11,9 km/h (2 Bft) N-NW 342 ° 0 min 0 W/m² 10,0 °C 7,8 °C 16,1 km/h (3 Bft)
03.10.2024 19:43 17,6 °C 11,1 °C 57 % 93 % 1016,8 hPa 0,0 l/m² 5,9 km/h (2 Bft) NW 313 ° 0 min 0 W/m² 10,0 °C 11,1 °C 14,5 km/h (3 Bft)
03.10.2024 19:44 17,6 °C 11,1 °C 57 % 93 % 1016,8 hPa 0,0 l/m² 8,4 km/h (2 Bft) N-NW 335 ° 0 min 0 W/m² 10,0 °C 9,8 °C 14,5 km/h (3 Bft)
03.10.2024 19:45 17,6 °C 11,1 °C 57 % 93 % 1016,8 hPa 0,0 l/m² 13,2 km/h (3 Bft) N-NW 327 ° 0 min 0 W/m² 10,0 °C 7,2 °C 19,3 km/h (3 Bft)
03.10.2024 19:46 17,6 °C 11,1 °C 57 % 93 % 1016,8 hPa 0,0 l/m² 9,7 km/h (2 Bft) NW 306 ° 0 min 0 W/m² 10,0 °C 9,0 °C 16,1 km/h (3 Bft)
03.10.2024 19:47 17,6 °C 11,1 °C 57 % 92 % 1016,8 hPa 0,0 l/m² 8,3 km/h (2 Bft) N-NW 329 ° 0 min 0 W/m² 9,8 °C 9,8 °C 17,7 km/h (3 Bft)
03.10.2024 19:48 17,6 °C 11,1 °C 57 % 92 % 1016,8 hPa 0,0 l/m² 10,7 km/h (2 Bft) NW 322 ° 0 min 0 W/m² 9,8 °C 8,4 °C 16,1 km/h (3 Bft)
03.10.2024 19:49 17,6 °C 11,1 °C 57 % 92 % 1016,9 hPa 0,0 l/m² 7,2 km/h (2 Bft) NW 313 ° 0 min 0 W/m² 9,8 °C 10,5 °C 9,7 km/h (2 Bft)
03.10.2024 19:50 17,6 °C 11,1 °C 57 % 92 % 1016,9 hPa 0,0 l/m² 5,6 km/h (2 Bft) N-NW 336 ° 0 min 0 W/m² 9,8 °C 11,1 °C 8,0 km/h (2 Bft)
03.10.2024 19:51 17,6 °C 11,1 °C 57 % 92 % 1016,9 hPa 0,0 l/m² 8,9 km/h (2 Bft) NW 321 ° 0 min 0 W/m² 9,8 °C 9,4 °C 14,5 km/h (3 Bft)
03.10.2024 19:52 17,6 °C 11,1 °C 57 % 92 % 1016,8 hPa 0,0 l/m² 6,2 km/h (2 Bft) N-NW 348 ° 0 min 0 W/m² 9,8 °C 11,1 °C 9,7 km/h (2 Bft)
03.10.2024 19:53 17,6 °C 11,1 °C 57 % 92 % 1016,9 hPa 0,0 l/m² 9,6 km/h (2 Bft) N-NW 336 ° 0 min 0 W/m² 9,8 °C 9,0 °C 16,1 km/h (3 Bft)
03.10.2024 19:54 17,6 °C 11,1 °C 57 % 92 % 1016,9 hPa 0,0 l/m² 11,1 km/h (2 Bft) NW 323 ° 0 min 0 W/m² 9,8 °C 8,2 °C 17,7 km/h (3 Bft)
03.10.2024 19:55 17,6 °C 11,1 °C 57 % 92 % 1017,0 hPa 0,0 l/m² 9,6 km/h (2 Bft) N-NW 329 ° 0 min 0 W/m² 9,8 °C 9,0 °C 16,1 km/h (3 Bft)
03.10.2024 19:56 17,6 °C 11,2 °C 57 % 92 % 1016,9 hPa 0,0 l/m² 15,3 km/h (3 Bft) N 355 ° 0 min 0 W/m² 9,9 °C 6,5 °C 19,3 km/h (3 Bft)
03.10.2024 19:57 17,6 °C 11,2 °C 57 % 92 % 1016,9 hPa 0,0 l/m² 14,1 km/h (3 Bft) N-NW 336 ° 0 min 0 W/m² 9,9 °C 7,0 °C 20,9 km/h (4 Bft)
03.10.2024 19:58 17,6 °C 11,2 °C 57 % 92 % 1016,9 hPa 0,0 l/m² 11,2 km/h (2 Bft) N-NW 345 ° 0 min 0 W/m² 9,9 °C 8,3 °C 19,3 km/h (3 Bft)
03.10.2024 19:59 17,6 °C 11,2 °C 57 % 92 % 1017,0 hPa 0,0 l/m² 14,7 km/h (3 Bft) N-NW 332 ° 0 min 0 W/m² 9,9 °C 6,7 °C 19,3 km/h (3 Bft)
03.10.2024 20:00 17,6 °C 11,2 °C 57 % 92 % 1017,0 hPa 0,0 l/m² 11,7 km/h (2 Bft) NW 311 ° 0 min 0 W/m² 9,9 °C 8,0 °C 19,3 km/h (3 Bft)
03.10.2024 20:01 17,6 °C 11,2 °C 57 % 92 % 1017,0 hPa 0,0 l/m² 13,0 km/h (3 Bft) N-NW 329 ° 0 min 0 W/m² 9,9 °C 7,4 °C 20,9 km/h (4 Bft)
03.10.2024 20:02 17,6 °C 11,2 °C 57 % 92 % 1016,9 hPa 0,0 l/m² 12,7 km/h (3 Bft) N 355 ° 0 min 0 W/m² 9,9 °C 7,6 °C 20,9 km/h (4 Bft)
03.10.2024 20:03 17,6 °C 11,2 °C 57 % 92 % 1016,9 hPa 0,0 l/m² 12,5 km/h (2 Bft) N-NW 331 ° 0 min 0 W/m² 9,9 °C 7,7 °C 17,7 km/h (3 Bft)
03.10.2024 20:04 17,6 °C 11,2 °C 57 % 92 % 1016,9 hPa 0,0 l/m² 14,6 km/h (3 Bft) N-NW 336 ° 0 min 0 W/m² 9,9 °C 6,7 °C 19,3 km/h (3 Bft)
03.10.2024 20:05 17,6 °C 11,2 °C 57 % 92 % 1017,0 hPa 0,0 l/m² 10,6 km/h (2 Bft) N-NW 329 ° 0 min 0 W/m² 9,9 °C 8,6 °C 14,5 km/h (3 Bft)
03.10.2024 20:06 17,6 °C 11,2 °C 57 % 92 % 1017,0 hPa 0,0 l/m² 8,8 km/h (2 Bft) N 5 ° 0 min 0 W/m² 9,9 °C 9,6 °C 12,9 km/h (3 Bft)
03.10.2024 20:07 17,6 °C 11,2 °C 57 % 92 % 1017,0 hPa 0,0 l/m² 8,2 km/h (2 Bft) N-NW 328 ° 0 min 0 W/m² 9,9 °C 10,0 °C 12,9 km/h (3 Bft)
03.10.2024 20:08 17,6 °C 11,2 °C 57 % 92 % 1017,0 hPa 0,0 l/m² 15,0 km/h (3 Bft) NW 321 ° 0 min 0 W/m² 9,9 °C 6,6 °C 17,7 km/h (3 Bft)
03.10.2024 20:09 17,6 °C 11,2 °C 57 % 92 % 1016,9 hPa 0,0 l/m² 9,7 km/h (2 Bft) NW 323 ° 0 min 0 W/m² 9,9 °C 9,1 °C 17,7 km/h (3 Bft)
03.10.2024 20:10 17,6 °C 11,2 °C 57 % 92 % 1017,0 hPa 0,0 l/m² 11,1 km/h (2 Bft) W-NW 300 ° 0 min 0 W/m² 9,9 °C 8,3 °C 16,1 km/h (3 Bft)
03.10.2024 20:11 17,6 °C 11,2 °C 57 % 92 % 1016,9 hPa 0,0 l/m² 10,7 km/h (2 Bft) N-NW 329 ° 0 min 0 W/m² 9,9 °C 8,5 °C 17,7 km/h (3 Bft)
03.10.2024 20:12 17,6 °C 11,2 °C 57 % 92 % 1017,0 hPa 0,0 l/m² 10,2 km/h (2 Bft) NW 317 ° 0 min 0 W/m² 9,9 °C 8,8 °C 16,1 km/h (3 Bft)
03.10.2024 20:13 17,6 °C 11,2 °C 57 % 92 % 1017,0 hPa 0,0 l/m² 7,4 km/h (2 Bft) N-NW 340 ° 0 min 0 W/m² 9,9 °C 10,5 °C 14,5 km/h (3 Bft)
03.10.2024 20:14 17,6 °C 11,2 °C 57 % 92 % 1017,0 hPa 0,0 l/m² 12,0 km/h (2 Bft) N-NW 328 ° 0 min 0 W/m² 9,9 °C 7,9 °C 17,7 km/h (3 Bft)
03.10.2024 20:15 17,6 °C 11,2 °C 57 % 92 % 1017,0 hPa 0,0 l/m² 9,9 km/h (2 Bft) NW 318 ° 0 min 0 W/m² 9,9 °C 9,0 °C 14,5 km/h (3 Bft)
03.10.2024 20:16 17,6 °C 11,2 °C 57 % 92 % 1017,0 hPa 0,0 l/m² 10,4 km/h (2 Bft) W-NW 296 ° 0 min 0 W/m² 9,9 °C 8,7 °C 17,7 km/h (3 Bft)
03.10.2024 20:17 17,6 °C 11,2 °C 57 % 92 % 1017,0 hPa 0,0 l/m² 6,4 km/h (2 Bft) N-NW 332 ° 0 min 0 W/m² 9,9 °C 11,2 °C 9,7 km/h (2 Bft)
03.10.2024 20:18 17,6 °C 11,3 °C 57 % 92 % 1017,1 hPa 0,0 l/m² 7,9 km/h (2 Bft) N 355 ° 0 min 0 W/m² 10,0 °C 10,3 °C 14,5 km/h (3 Bft)
03.10.2024 20:19 17,6 °C 11,2 °C 57 % 92 % 1017,1 hPa 0,0 l/m² 9,0 km/h (2 Bft) NW 306 ° 0 min 0 W/m² 9,9 °C 9,5 °C 17,7 km/h (3 Bft)
03.10.2024 20:20 17,6 °C 11,2 °C 57 % 92 % 1017,1 hPa 0,0 l/m² 7,0 km/h (2 Bft) N 5 ° 0 min 0 W/m² 9,9 °C 10,8 °C 9,7 km/h (2 Bft)
03.10.2024 20:21 17,6 °C 11,3 °C 57 % 92 % 1017,1 hPa 0,0 l/m² 7,1 km/h (2 Bft) N 355 ° 0 min 0 W/m² 10,0 °C 10,8 °C 12,9 km/h (3 Bft)
03.10.2024 20:22 17,6 °C 11,3 °C 57 % 92 % 1017,0 hPa 0,0 l/m² 10,1 km/h (2 Bft) N-NW 328 ° 0 min 0 W/m² 10,0 °C 9,0 °C 16,1 km/h (3 Bft)
03.10.2024 20:23 17,6 °C 11,3 °C 57 % 91 % 1017,0 hPa 0,0 l/m² 9,7 km/h (2 Bft) N-NW 339 ° 0 min 0 W/m² 9,9 °C 9,2 °C 14,5 km/h (3 Bft)
03.10.2024 20:24 17,6 °C 11,3 °C 57 % 91 % 1017,1 hPa 0,0 l/m² 9,0 km/h (2 Bft) N-NW 341 ° 0 min 0 W/m² 9,9 °C 9,6 °C 14,5 km/h (3 Bft)
03.10.2024 20:25 17,6 °C 11,3 °C 57 % 91 % 1017,1 hPa 0,0 l/m² 11,3 km/h (2 Bft) N 355 ° 0 min 0 W/m² 9,9 °C 8,4 °C 19,3 km/h (3 Bft)
03.10.2024 20:26 17,6 °C 11,3 °C 57 % 91 % 1017,1 hPa 0,0 l/m² 10,1 km/h (2 Bft) N 350 ° 0 min 0 W/m² 9,9 °C 9,0 °C 19,3 km/h (3 Bft)
03.10.2024 20:27 17,6 °C 11,2 °C 57 % 91 % 1017,1 hPa 0,0 l/m² 8,7 km/h (2 Bft) N-NW 338 ° 0 min 0 W/m² 9,8 °C 9,7 °C 16,1 km/h (3 Bft)
03.10.2024 20:28 17,6 °C 11,3 °C 57 % 91 % 1017,0 hPa 0,0 l/m² 6,6 km/h (2 Bft) N-NW 343 ° 0 min 0 W/m² 9,9 °C 11,2 °C 12,9 km/h (3 Bft)
03.10.2024 20:29 17,6 °C 11,3 °C 57 % 91 % 1017,0 hPa 0,0 l/m² 8,2 km/h (2 Bft) NW 315 ° 0 min 0 W/m² 9,9 °C 10,1 °C 14,5 km/h (3 Bft)
03.10.2024 20:30 17,6 °C 11,3 °C 57 % 91 % 1017,1 hPa 0,0 l/m² 10,0 km/h (2 Bft) W-NW 300 ° 0 min 0 W/m² 9,9 °C 9,0 °C 14,5 km/h (3 Bft)
03.10.2024 20:31 17,6 °C 11,2 °C 57 % 91 % 1017,1 hPa 0,0 l/m² 5,8 km/h (2 Bft) NW 309 ° 0 min 0 W/m² 9,8 °C 11,2 °C 9,7 km/h (2 Bft)
03.10.2024 20:32 17,6 °C 11,3 °C 57 % 91 % 1017,1 hPa 0,0 l/m² 8,9 km/h (2 Bft) N-NW 329 ° 0 min 0 W/m² 9,9 °C 9,7 °C 14,5 km/h (3 Bft)
03.10.2024 20:33 17,6 °C 11,3 °C 57 % 91 % 1017,0 hPa 0,0 l/m² 8,3 km/h (2 Bft) W-NW 298 ° 0 min 0 W/m² 9,9 °C 10,0 °C 12,9 km/h (3 Bft)
03.10.2024 20:34 17,6 °C 11,3 °C 57 % 91 % 1017,1 hPa 0,0 l/m² 11,6 km/h (2 Bft) N-NW 331 ° 0 min 0 W/m² 9,9 °C 8,2 °C 16,1 km/h (3 Bft)
03.10.2024 20:35 17,6 °C 11,3 °C 57 % 91 % 1017,1 hPa 0,0 l/m² 10,8 km/h (2 Bft) W-NW 290 ° 0 min 0 W/m² 9,9 °C 8,6 °C 17,7 km/h (3 Bft)
03.10.2024 20:36 17,6 °C 11,3 °C 57 % 91 % 1017,1 hPa 0,0 l/m² 10,3 km/h (2 Bft) NW 315 ° 0 min 0 W/m² 9,9 °C 8,9 °C 14,5 km/h (3 Bft)
03.10.2024 20:37 17,6 °C 11,3 °C 57 % 91 % 1017,1 hPa 0,0 l/m² 13,2 km/h (3 Bft) N-NW 340 ° 0 min 0 W/m² 9,9 °C 7,5 °C 17,7 km/h (3 Bft)
03.10.2024 20:38 17,6 °C 11,3 °C 57 % 91 % 1017,1 hPa 0,0 l/m² 8,1 km/h (2 Bft) NW 322 ° 0 min 0 W/m² 9,9 °C 10,2 °C 16,1 km/h (3 Bft)
03.10.2024 20:39 17,6 °C 11,3 °C 57 % 91 % 1017,1 hPa 0,0 l/m² 9,1 km/h (2 Bft) N-NW 334 ° 0 min 0 W/m² 9,9 °C 9,5 °C 14,5 km/h (3 Bft)
03.10.2024 20:40 17,6 °C 11,3 °C 57 % 91 % 1017,1 hPa 0,0 l/m² 9,0 km/h (2 Bft) W-NW 290 ° 0 min 0 W/m² 9,9 °C 9,6 °C 16,1 km/h (3 Bft)
03.10.2024 20:41 17,6 °C 11,3 °C 57 % 91 % 1017,1 hPa 0,0 l/m² 6,9 km/h (2 Bft) NW 306 ° 0 min 0 W/m² 9,9 °C 11,0 °C 12,9 km/h (3 Bft)
03.10.2024 20:42 17,6 °C 11,2 °C 57 % 91 % 1017,1 hPa 0,0 l/m² 11,6 km/h (2 Bft) N-NO 17 ° 0 min 0 W/m² 9,8 °C 8,1 °C 16,1 km/h (3 Bft)
03.10.2024 20:43 17,6 °C 11,2 °C 57 % 91 % 1017,1 hPa 0,0 l/m² 11,0 km/h (2 Bft) N 349 ° 0 min 0 W/m² 9,8 °C 8,4 °C 16,1 km/h (3 Bft)
03.10.2024 20:44 17,6 °C 11,3 °C 57 % 91 % 1017,2 hPa 0,0 l/m² 10,7 km/h (2 Bft) N-NW 331 ° 0 min 0 W/m² 9,9 °C 8,7 °C 16,1 km/h (3 Bft)
03.10.2024 20:45 17,6 °C 11,2 °C 57 % 91 % 1017,2 hPa 0,0 l/m² 9,7 km/h (2 Bft) N-NW 341 ° 0 min 0 W/m² 9,8 °C 9,1 °C 16,1 km/h (3 Bft)
03.10.2024 20:46 17,6 °C 11,2 °C 57 % 91 % 1017,1 hPa 0,0 l/m² 11,2 km/h (2 Bft) N-NW 345 ° 0 min 0 W/m² 9,8 °C 8,3 °C 16,1 km/h (3 Bft)
03.10.2024 20:47 17,6 °C 11,3 °C 57 % 91 % 1017,1 hPa 0,0 l/m² 11,9 km/h (2 Bft) N-NW 340 ° 0 min 0 W/m² 9,9 °C 8,1 °C 16,1 km/h (3 Bft)
03.10.2024 20:48 17,6 °C 11,2 °C 57 % 91 % 1017,1 hPa 0,0 l/m² 11,1 km/h (2 Bft) N 5 ° 0 min 0 W/m² 9,8 °C 8,3 °C 16,1 km/h (3 Bft)
03.10.2024 20:49 17,6 °C 11,2 °C 57 % 91 % 1017,0 hPa 0,0 l/m² 11,8 km/h (2 Bft) N-NW 336 ° 0 min 0 W/m² 9,8 °C 8,0 °C 19,3 km/h (3 Bft)
03.10.2024 20:50 17,6 °C 11,2 °C 57 % 91 % 1017,1 hPa 0,0 l/m² 11,4 km/h (2 Bft) N-NO 17 ° 0 min 0 W/m² 9,8 °C 8,2 °C 19,3 km/h (3 Bft)
03.10.2024 20:51 17,6 °C 11,3 °C 57 % 91 % 1017,1 hPa 0,0 l/m² 11,6 km/h (2 Bft) N-NW 340 ° 0 min 0 W/m² 9,9 °C 8,2 °C 17,7 km/h (3 Bft)
03.10.2024 20:52 17,6 °C 11,2 °C 57 % 91 % 1017,2 hPa 0,0 l/m² 7,6 km/h (2 Bft) N-NW 333 ° 0 min 0 W/m² 9,8 °C 10,4 °C 17,7 km/h (3 Bft)
03.10.2024 20:53 17,5 °C 11,2 °C 57 % 91 % 1017,2 hPa 0,0 l/m² 13,3 km/h (3 Bft) N-NW 346 ° 0 min 0 W/m² 9,8 °C 7,3 °C 19,3 km/h (3 Bft)
03.10.2024 20:54 17,6 °C 11,2 °C 57 % 91 % 1017,2 hPa 0,0 l/m² 10,6 km/h (2 Bft) NW 309 ° 0 min 0 W/m² 9,8 °C 8,6 °C 16,1 km/h (3 Bft)
03.10.2024 20:55 17,6 °C 11,2 °C 57 % 91 % 1017,2 hPa 0,0 l/m² 17,0 km/h (3 Bft) N 350 ° 0 min 0 W/m² 9,8 °C 5,8 °C 24,1 km/h (4 Bft)
03.10.2024 20:56 17,6 °C 11,2 °C 57 % 90 % 1017,2 hPa 0,0 l/m² 16,2 km/h (3 Bft) N-NW 344 ° 0 min 0 W/m² 9,6 °C 6,1 °C 22,5 km/h (4 Bft)
03.10.2024 20:57 17,6 °C 11,2 °C 57 % 90 % 1017,2 hPa 0,0 l/m² 10,9 km/h (2 Bft) N 355 ° 0 min 0 W/m² 9,6 °C 8,4 °C 17,7 km/h (3 Bft)
03.10.2024 20:58 17,6 °C 11,3 °C 57 % 90 % 1017,3 hPa 0,0 l/m² 10,8 km/h (2 Bft) NW 311 ° 0 min 0 W/m² 9,7 °C 8,6 °C 14,5 km/h (3 Bft)
03.10.2024 20:59 17,6 °C 11,2 °C 57 % 90 % 1017,2 hPa 0,0 l/m² 14,2 km/h (3 Bft) N-NW 335 ° 0 min 0 W/m² 9,6 °C 6,9 °C 20,9 km/h (4 Bft)
03.10.2024 21:00 17,6 °C 11,2 °C 57 % 90 % 1017,2 hPa 0,0 l/m² 13,5 km/h (3 Bft) N 355 ° 0 min 0 W/m² 9,6 °C 7,2 °C 17,7 km/h (3 Bft)
03.10.2024 21:01 17,6 °C 11,2 °C 57 % 90 % 1017,2 hPa 0,0 l/m² 10,6 km/h (2 Bft) NW 312 ° 0 min 0 W/m² 9,6 °C 8,6 °C 16,1 km/h (3 Bft)
03.10.2024 21:02 17,6 °C 11,2 °C 57 % 90 % 1017,3 hPa 0,0 l/m² 10,2 km/h (2 Bft) N-NW 348 ° 0 min 0 W/m² 9,6 °C 8,8 °C 17,7 km/h (3 Bft)
03.10.2024 21:03 17,6 °C 11,2 °C 57 % 90 % 1017,3 hPa 0,0 l/m² 11,2 km/h (2 Bft) N 355 ° 0 min 0 W/m² 9,6 °C 8,3 °C 19,3 km/h (3 Bft)
03.10.2024 21:04 17,6 °C 11,2 °C 57 % 90 % 1017,3 hPa 0,0 l/m² 9,3 km/h (2 Bft) NW 311 ° 0 min 0 W/m² 9,6 °C 9,3 °C 14,5 km/h (3 Bft)
03.10.2024 21:05 17,6 °C 11,2 °C 57 % 90 % 1017,2 hPa 0,0 l/m² 10,5 km/h (2 Bft) N-NW 335 ° 0 min 0 W/m² 9,6 °C 8,7 °C 17,7 km/h (3 Bft)
03.10.2024 21:06 17,6 °C 11,2 °C 57 % 90 % 1017,2 hPa 0,0 l/m² 11,5 km/h (2 Bft) N 355 ° 0 min 0 W/m² 9,6 °C 8,1 °C 14,5 km/h (3 Bft)
03.10.2024 21:07 17,6 °C 11,2 °C 57 % 90 % 1017,3 hPa 0,0 l/m² 11,4 km/h (2 Bft) N-NW 335 ° 0 min 0 W/m² 9,6 °C 8,2 °C 16,1 km/h (3 Bft)
03.10.2024 21:08 17,6 °C 11,2 °C 57 % 90 % 1017,2 hPa 0,0 l/m² 10,9 km/h (2 Bft) NW 325 ° 0 min 0 W/m² 9,6 °C 8,4 °C 14,5 km/h (3 Bft)
03.10.2024 21:09 17,6 °C 11,2 °C 57 % 90 % 1017,3 hPa 0,0 l/m² 10,5 km/h (2 Bft) N 5 ° 0 min 0 W/m² 9,6 °C 8,7 °C 19,3 km/h (3 Bft)
03.10.2024 21:10 17,5 °C 11,2 °C 57 % 90 % 1017,3 hPa 0,0 l/m² 6,9 km/h (2 Bft) N-NW 338 ° 0 min 0 W/m² 9,6 °C 10,9 °C 11,3 km/h (2 Bft)
03.10.2024 21:12 17,6 °C 11,2 °C 57 % 90 % 1017,3 hPa 0,0 l/m² 8,1 km/h (2 Bft) N-NO 21 ° 0 min 0 W/m² 9,6 °C 10,0 °C 16,1 km/h (3 Bft)
03.10.2024 21:13 17,6 °C 11,2 °C 57 % 90 % 1017,3 hPa 0,0 l/m² 11,3 km/h (2 Bft) N 355 ° 0 min 0 W/m² 9,6 °C 8,2 °C 16,1 km/h (3 Bft)
03.10.2024 21:14 17,6 °C 11,2 °C 57 % 90 % 1017,2 hPa 0,0 l/m² 8,8 km/h (2 Bft) NW 306 ° 0 min 0 W/m² 9,6 °C 9,6 °C 12,9 km/h (3 Bft)
03.10.2024 21:15 17,5 °C 11,2 °C 57 % 90 % 1017,3 hPa 0,0 l/m² 11,7 km/h (2 Bft) N 355 ° 0 min 0 W/m² 9,6 °C 8,0 °C 17,7 km/h (3 Bft)
03.10.2024 21:16 17,5 °C 11,2 °C 57 % 90 % 1017,3 hPa 0,0 l/m² 7,4 km/h (2 Bft) N 355 ° 0 min 0 W/m² 9,6 °C 10,5 °C 9,7 km/h (2 Bft)
03.10.2024 21:17 17,6 °C 11,2 °C 57 % 90 % 1017,3 hPa 0,0 l/m² 8,3 km/h (2 Bft) N-NW 339 ° 0 min 0 W/m² 9,6 °C 9,9 °C 14,5 km/h (3 Bft)
03.10.2024 21:18 17,6 °C 11,2 °C 57 % 90 % 1017,3 hPa 0,0 l/m² 9,4 km/h (2 Bft) N-NW 342 ° 0 min 0 W/m² 9,6 °C 9,3 °C 16,1 km/h (3 Bft)
03.10.2024 21:19 17,6 °C 11,2 °C 57 % 90 % 1017,3 hPa 0,0 l/m² 9,5 km/h (2 Bft) N 5 ° 0 min 0 W/m² 9,6 °C 9,2 °C 14,5 km/h (3 Bft)
03.10.2024 21:20 17,5 °C 11,2 °C 57 % 90 % 1017,3 hPa 0,0 l/m² 11,5 km/h (2 Bft) N-NW 341 ° 0 min 0 W/m² 9,6 °C 8,1 °C 17,7 km/h (3 Bft)
03.10.2024 21:21 17,5 °C 11,2 °C 57 % 90 % 1017,4 hPa 0,0 l/m² 11,3 km/h (2 Bft) N-NW 333 ° 0 min 0 W/m² 9,6 °C 8,2 °C 16,1 km/h (3 Bft)
03.10.2024 21:22 17,6 °C 11,2 °C 57 % 90 % 1017,3 hPa 0,0 l/m² 13,2 km/h (3 Bft) N 360 ° 0 min 0 W/m² 9,6 °C 7,3 °C 17,7 km/h (3 Bft)
03.10.2024 21:23 17,6 °C 11,2 °C 57 % 90 % 1017,4 hPa 0,0 l/m² 13,1 km/h (3 Bft) N-NW 335 ° 0 min 0 W/m² 9,6 °C 7,4 °C 19,3 km/h (3 Bft)
03.10.2024 21:24 17,6 °C 11,2 °C 57 % 90 % 1017,4 hPa 0,0 l/m² 8,0 km/h (2 Bft) NW 324 ° 0 min 0 W/m² 9,6 °C 10,1 °C 12,9 km/h (3 Bft)
03.10.2024 21:25 17,6 °C 11,2 °C 57 % 90 % 1017,4 hPa 0,0 l/m² 8,0 km/h (2 Bft) N 355 ° 0 min 0 W/m² 9,6 °C 10,1 °C 14,5 km/h (3 Bft)
03.10.2024 21:26 17,6 °C 11,2 °C 57 % 90 % 1017,4 hPa 0,0 l/m² 5,3 km/h (1 Bft) NW 314 ° 0 min 0 W/m² 9,6 °C 11,2 °C 9,7 km/h (2 Bft)
03.10.2024 21:27 17,6 °C 11,2 °C 57 % 90 % 1017,3 hPa 0,0 l/m² 10,5 km/h (2 Bft) NW 324 ° 0 min 0 W/m² 9,6 °C 8,7 °C 14,5 km/h (3 Bft)
03.10.2024 21:28 17,6 °C 11,2 °C 57 % 90 % 1017,5 hPa 0,0 l/m² 10,4 km/h (2 Bft) W-NW 300 ° 0 min 0 W/m² 9,6 °C 8,7 °C 16,1 km/h (3 Bft)
03.10.2024 21:29 17,5 °C 11,2 °C 57 % 90 % 1017,4 hPa 0,0 l/m² 8,0 km/h (2 Bft) N 349 ° 0 min 0 W/m² 9,6 °C 10,1 °C 16,1 km/h (3 Bft)
03.10.2024 21:30 17,5 °C 11,2 °C 57 % 90 % 1017,4 hPa 0,0 l/m² 13,7 km/h (3 Bft) N-NW 328 ° 0 min 0 W/m² 9,6 °C 7,1 °C 17,7 km/h (3 Bft)
03.10.2024 21:31 17,6 °C 11,2 °C 57 % 90 % 1017,4 hPa 0,0 l/m² 12,0 km/h (2 Bft) NW 307 ° 0 min 0 W/m² 9,6 °C 7,9 °C 17,7 km/h (3 Bft)
03.10.2024 21:32 17,6 °C 11,2 °C 57 % 90 % 1017,5 hPa 0,0 l/m² 11,3 km/h (2 Bft) N-NW 339 ° 0 min 0 W/m² 9,6 °C 8,2 °C 20,9 km/h (4 Bft)
03.10.2024 21:33 17,6 °C 11,2 °C 57 % 90 % 1017,4 hPa 0,0 l/m² 10,9 km/h (2 Bft) N-NW 337 ° 0 min 0 W/m² 9,6 °C 8,4 °C 17,7 km/h (3 Bft)
03.10.2024 21:34 17,5 °C 11,2 °C 57 % 90 % 1017,4 hPa 0,0 l/m² 15,4 km/h (3 Bft) N-NW 331 ° 0 min 0 W/m² 9,6 °C 6,4 °C 20,9 km/h (4 Bft)
03.10.2024 21:35 17,5 °C 11,2 °C 57 % 90 % 1017,4 hPa 0,0 l/m² 12,2 km/h (2 Bft) NW 306 ° 0 min 0 W/m² 9,6 °C 7,8 °C 17,7 km/h (3 Bft)
03.10.2024 21:36 17,6 °C 11,2 °C 57 % 90 % 1017,4 hPa 0,0 l/m² 9,3 km/h (2 Bft) NW 325 ° 0 min 0 W/m² 9,6 °C 9,3 °C 14,5 km/h (3 Bft)
03.10.2024 21:37 17,6 °C 11,2 °C 57 % 90 % 1017,4 hPa 0,0 l/m² 8,0 km/h (2 Bft) NW 307 ° 0 min 0 W/m² 9,6 °C 10,1 °C 12,9 km/h (3 Bft)
03.10.2024 21:38 17,5 °C 11,2 °C 57 % 90 % 1017,4 hPa 0,0 l/m² 7,8 km/h (2 Bft) NW 319 ° 0 min 0 W/m² 9,6 °C 10,2 °C 14,5 km/h (3 Bft)
03.10.2024 21:39 17,6 °C 11,2 °C 57 % 90 % 1017,5 hPa 0,0 l/m² 7,5 km/h (2 Bft) NW 322 ° 0 min 0 W/m² 9,6 °C 10,4 °C 12,9 km/h (3 Bft)
03.10.2024 21:40 17,5 °C 11,2 °C 57 % 90 % 1017,5 hPa 0,0 l/m² 9,5 km/h (2 Bft) N 360 ° 0 min 0 W/m² 9,6 °C 9,2 °C 16,1 km/h (3 Bft)
03.10.2024 21:41 17,6 °C 11,2 °C 57 % 90 % 1017,5 hPa 0,0 l/m² 9,9 km/h (2 Bft) N 355 ° 0 min 0 W/m² 9,6 °C 9,0 °C 17,7 km/h (3 Bft)
03.10.2024 21:42 17,6 °C 11,2 °C 57 % 90 % 1017,5 hPa 0,0 l/m² 13,2 km/h (3 Bft) NW 317 ° 0 min 0 W/m² 9,6 °C 7,3 °C 16,1 km/h (3 Bft)
03.10.2024 21:43 17,5 °C 11,2 °C 57 % 90 % 1017,4 hPa 0,0 l/m² 11,2 km/h (2 Bft) N-NW 334 ° 0 min 0 W/m² 9,6 °C 8,3 °C 17,7 km/h (3 Bft)
03.10.2024 21:44 17,6 °C 11,1 °C 57 % 90 % 1017,5 hPa 0,0 l/m² 6,9 km/h (2 Bft) NW 320 ° 0 min 0 W/m² 9,5 °C 10,8 °C 9,7 km/h (2 Bft)
03.10.2024 21:46 17,6 °C 11,1 °C 57 % 90 % 1017,4 hPa 0,0 l/m² 11,2 km/h (2 Bft) N 360 ° 0 min 0 W/m² 9,5 °C 8,2 °C 17,7 km/h (3 Bft)
03.10.2024 21:47 17,5 °C 11,1 °C 57 % 90 % 1017,4 hPa 0,0 l/m² 11,9 km/h (2 Bft) NW 305 ° 0 min 0 W/m² 9,5 °C 7,8 °C 16,1 km/h (3 Bft)
03.10.2024 21:48 17,5 °C 11,1 °C 57 % 90 % 1017,5 hPa 0,0 l/m² 7,6 km/h (2 Bft) N-NW 346 ° 0 min 0 W/m² 9,5 °C 10,3 °C 12,9 km/h (3 Bft)
03.10.2024 21:49 17,6 °C 11,2 °C 57 % 90 % 1017,6 hPa 0,0 l/m² 10,7 km/h (2 Bft) NW 324 ° 0 min 0 W/m² 9,6 °C 8,5 °C 20,9 km/h (4 Bft)
03.10.2024 21:50 17,5 °C 11,1 °C 57 % 90 % 1017,5 hPa 0,0 l/m² 10,1 km/h (2 Bft) NW 325 ° 0 min 0 W/m² 9,5 °C 8,8 °C 16,1 km/h (3 Bft)
03.10.2024 21:51 17,6 °C 11,1 °C 57 % 90 % 1017,5 hPa 0,0 l/m² 5,7 km/h (2 Bft) NW 305 ° 0 min 0 W/m² 9,5 °C 11,1 °C 8,0 km/h (2 Bft)
03.10.2024 21:52 17,5 °C 11,1 °C 57 % 90 % 1017,5 hPa 0,0 l/m² 8,9 km/h (2 Bft) NW 306 ° 0 min 0 W/m² 9,5 °C 9,4 °C 14,5 km/h (3 Bft)
03.10.2024 21:53 17,6 °C 11,1 °C 57 % 90 % 1017,5 hPa 0,0 l/m² 6,2 km/h (2 Bft) NW 314 ° 0 min 0 W/m² 9,5 °C 11,1 °C 12,9 km/h (3 Bft)
03.10.2024 21:54 17,5 °C 11,1 °C 57 % 90 % 1017,5 hPa 0,0 l/m² 9,9 km/h (2 Bft) N-NW 343 ° 0 min 0 W/m² 9,5 °C 8,9 °C 16,1 km/h (3 Bft)
03.10.2024 21:55 17,6 °C 11,1 °C 57 % 90 % 1017,5 hPa 0,0 l/m² 11,9 km/h (2 Bft) N 355 ° 0 min 0 W/m² 9,5 °C 7,8 °C 17,7 km/h (3 Bft)
03.10.2024 21:56 17,5 °C 11,1 °C 57 % 90 % 1017,6 hPa 0,0 l/m² 9,2 km/h (2 Bft) N-NW 333 ° 0 min 0 W/m² 9,5 °C 9,3 °C 14,5 km/h (3 Bft)
03.10.2024 21:57 17,5 °C 11,1 °C 57 % 90 % 1017,5 hPa 0,0 l/m² 11,8 km/h (2 Bft) N-NW 327 ° 0 min 0 W/m² 9,5 °C 7,9 °C 20,9 km/h (4 Bft)
03.10.2024 21:58 17,5 °C 11,1 °C 57 % 90 % 1017,5 hPa 0,0 l/m² 13,0 km/h (3 Bft) N-NW 336 ° 0 min 0 W/m² 9,5 °C 7,3 °C 16,1 km/h (3 Bft)
03.10.2024 21:59 17,6 °C 11,1 °C 57 % 90 % 1017,5 hPa 0,0 l/m² 10,7 km/h (2 Bft) N-NW 330 ° 0 min 0 W/m² 9,5 °C 8,4 °C 14,5 km/h (3 Bft)
03.10.2024 22:00 17,5 °C 11,1 °C 57 % 90 % 1017,5 hPa 0,0 l/m² 11,4 km/h (2 Bft) N 351 ° 0 min 0 W/m² 9,5 °C 8,1 °C 17,7 km/h (3 Bft)
03.10.2024 22:01 17,5 °C 11,1 °C 57 % 90 % 1017,5 hPa 0,0 l/m² 6,1 km/h (2 Bft) N-NW 337 ° 0 min 0 W/m² 9,5 °C 11,1 °C 8,0 km/h (2 Bft)
03.10.2024 22:02 17,6 °C 11,1 °C 57 % 90 % 1017,5 hPa 0,0 l/m² 10,6 km/h (2 Bft) N-NW 340 ° 0 min 0 W/m² 9,5 °C 8,5 °C 14,5 km/h (3 Bft)
03.10.2024 22:03 17,6 °C 11,1 °C 57 % 90 % 1017,5 hPa 0,0 l/m² 9,4 km/h (2 Bft) NW 307 ° 0 min 0 W/m² 9,5 °C 9,1 °C 12,9 km/h (3 Bft)
03.10.2024 22:04 17,5 °C 11,1 °C 57 % 90 % 1017,6 hPa 0,0 l/m² 6,1 km/h (2 Bft) NW 318 ° 0 min 0 W/m² 9,5 °C 11,1 °C 16,1 km/h (3 Bft)
03.10.2024 22:05 17,5 °C 11,1 °C 57 % 90 % 1017,5 hPa 0,0 l/m² 12,2 km/h (2 Bft) N 355 ° 0 min 0 W/m² 9,5 °C 7,7 °C 17,7 km/h (3 Bft)
03.10.2024 22:06 17,5 °C 11,1 °C 57 % 90 % 1017,6 hPa 0,0 l/m² 6,0 km/h (2 Bft) N-NW 338 ° 0 min 0 W/m² 9,5 °C 11,1 °C 9,7 km/h (2 Bft)
03.10.2024 22:07 17,5 °C 11,1 °C 57 % 90 % 1017,6 hPa 0,0 l/m² 8,6 km/h (2 Bft) NW 320 ° 0 min 0 W/m² 9,5 °C 9,6 °C 14,5 km/h (3 Bft)
03.10.2024 22:08 17,5 °C 11,1 °C 57 % 90 % 1017,6 hPa 0,0 l/m² 12,5 km/h (2 Bft) N-NW 342 ° 0 min 0 W/m² 9,5 °C 7,5 °C 16,1 km/h (3 Bft)
03.10.2024 22:09 17,5 °C 11,1 °C 57 % 90 % 1017,6 hPa 0,0 l/m² 9,5 km/h (2 Bft) N-NW 344 ° 0 min 0 W/m² 9,5 °C 9,1 °C 14,5 km/h (3 Bft)
03.10.2024 22:10 17,5 °C 11,1 °C 57 % 90 % 1017,6 hPa 0,0 l/m² 12,7 km/h (3 Bft) N-NW 333 ° 0 min 0 W/m² 9,5 °C 7,5 °C 16,1 km/h (3 Bft)
03.10.2024 22:11 17,5 °C 11,1 °C 57 % 90 % 1017,6 hPa 0,0 l/m² 7,3 km/h (2 Bft) N-NW 333 ° 0 min 0 W/m² 9,5 °C 10,5 °C 12,9 km/h (3 Bft)
03.10.2024 22:12 17,5 °C 11,1 °C 57 % 90 % 1017,6 hPa 0,0 l/m² 5,7 km/h (2 Bft) NW 317 ° 0 min 0 W/m² 9,5 °C 11,1 °C 8,0 km/h (2 Bft)
03.10.2024 22:13 17,5 °C 11,1 °C 57 % 90 % 1017,6 hPa 0,0 l/m² 6,7 km/h (2 Bft) N-NW 333 ° 0 min 0 W/m² 9,5 °C 10,9 °C 12,9 km/h (3 Bft)
03.10.2024 22:14 17,5 °C 11,1 °C 57 % 90 % 1017,5 hPa 0,0 l/m² 12,3 km/h (2 Bft) NW 317 ° 0 min 0 W/m² 9,5 °C 7,6 °C 16,1 km/h (3 Bft)
03.10.2024 22:15 17,5 °C 11,1 °C 57 % 90 % 1017,5 hPa 0,0 l/m² 12,9 km/h (3 Bft) NW 319 ° 0 min 0 W/m² 9,5 °C 7,4 °C 20,9 km/h (4 Bft)
03.10.2024 22:16 17,5 °C 11,1 °C 57 % 90 % 1017,6 hPa 0,0 l/m² 13,3 km/h (3 Bft) N-NW 346 ° 0 min 0 W/m² 9,5 °C 7,2 °C 17,7 km/h (3 Bft)
03.10.2024 22:17 17,5 °C 11,1 °C 57 % 90 % 1017,6 hPa 0,0 l/m² 11,2 km/h (2 Bft) N-NW 332 ° 0 min 0 W/m² 9,5 °C 8,2 °C 16,1 km/h (3 Bft)
03.10.2024 22:18 17,5 °C 11,1 °C 57 % 90 % 1017,6 hPa 0,0 l/m² 15,0 km/h (3 Bft) N-NW 335 ° 0 min 0 W/m² 9,5 °C 6,5 °C 20,9 km/h (4 Bft)
03.10.2024 22:19 17,5 °C 11,0 °C 57 % 90 % 1017,6 hPa 0,0 l/m² 11,7 km/h (2 Bft) N-NW 337 ° 0 min 0 W/m² 9,4 °C 7,8 °C 19,3 km/h (3 Bft)
03.10.2024 22:20 17,5 °C 11,1 °C 57 % 90 % 1017,6 hPa 0,0 l/m² 10,4 km/h (2 Bft) N-NW 327 ° 0 min 0 W/m² 9,5 °C 8,6 °C 14,5 km/h (3 Bft)
03.10.2024 22:21 17,5 °C 11,1 °C 57 % 90 % 1017,6 hPa 0,0 l/m² 13,6 km/h (3 Bft) N 355 ° 0 min 0 W/m² 9,5 °C 7,1 °C 22,5 km/h (4 Bft)
03.10.2024 22:22 17,5 °C 11,0 °C 57 % 90 % 1017,6 hPa 0,0 l/m² 9,6 km/h (2 Bft) N 351 ° 0 min 0 W/m² 9,4 °C 8,9 °C 14,5 km/h (3 Bft)
03.10.2024 22:23 17,5 °C 11,0 °C 57 % 90 % 1017,6 hPa 0,0 l/m² 12,7 km/h (3 Bft) NW 306 ° 0 min 0 W/m² 9,4 °C 7,3 °C 20,9 km/h (4 Bft)
03.10.2024 22:24 17,5 °C 11,1 °C 57 % 90 % 1017,5 hPa 0,0 l/m² 9,9 km/h (2 Bft) N-NW 333 ° 0 min 0 W/m² 9,5 °C 8,9 °C 16,1 km/h (3 Bft)
03.10.2024 22:25 17,5 °C 11,0 °C 57 % 90 % 1017,6 hPa 0,0 l/m² 9,5 km/h (2 Bft) N-NW 348 ° 0 min 0 W/m² 9,4 °C 9,0 °C 17,7 km/h (3 Bft)
03.10.2024 22:26 17,5 °C 11,1 °C 57 % 90 % 1017,6 hPa 0,0 l/m² 10,1 km/h (2 Bft) N-NW 344 ° 0 min 0 W/m² 9,5 °C 8,8 °C 16,1 km/h (3 Bft)
03.10.2024 22:27 17,5 °C 11,0 °C 57 % 90 % 1017,6 hPa 0,0 l/m² 9,0 km/h (2 Bft) N-NW 333 ° 0 min 0 W/m² 9,4 °C 9,3 °C 12,9 km/h (3 Bft)
03.10.2024 22:28 17,5 °C 11,1 °C 57 % 90 % 1017,6 hPa 0,0 l/m² 11,2 km/h (2 Bft) N 355 ° 0 min 0 W/m² 9,5 °C 8,2 °C 14,5 km/h (3 Bft)
03.10.2024 22:29 17,5 °C 11,0 °C 57 % 90 % 1017,6 hPa 0,0 l/m² 8,4 km/h (2 Bft) N-NW 339 ° 0 min 0 W/m² 9,4 °C 9,6 °C 12,9 km/h (3 Bft)
03.10.2024 22:30 17,5 °C 11,0 °C 57 % 90 % 1017,7 hPa 0,0 l/m² 9,2 km/h (2 Bft) N-NW 341 ° 0 min 0 W/m² 9,4 °C 9,2 °C 16,1 km/h (3 Bft)
03.10.2024 22:31 17,5 °C 11,1 °C 57 % 90 % 1017,6 hPa 0,0 l/m² 9,8 km/h (2 Bft) N-NW 331 ° 0 min 0 W/m² 9,5 °C 8,9 °C 14,5 km/h (3 Bft)
03.10.2024 22:32 17,5 °C 11,0 °C 57 % 90 % 1017,6 hPa 0,0 l/m² 7,1 km/h (2 Bft) N 355 ° 0 min 0 W/m² 9,4 °C 10,5 °C 8,0 km/h (2 Bft)
03.10.2024 22:33 17,5 °C 11,0 °C 57 % 90 % 1017,6 hPa 0,0 l/m² 9,1 km/h (2 Bft) NW 319 ° 0 min 0 W/m² 9,4 °C 9,2 °C 16,1 km/h (3 Bft)
03.10.2024 22:34 17,5 °C 11,0 °C 57 % 90 % 1017,6 hPa 0,0 l/m² 10,9 km/h (2 Bft) NW 318 ° 0 min 0 W/m² 9,4 °C 8,2 °C 16,1 km/h (3 Bft)
03.10.2024 22:35 17,5 °C 11,0 °C 57 % 90 % 1017,7 hPa 0,0 l/m² 12,1 km/h (2 Bft) N 355 ° 0 min 0 W/m² 9,4 °C 7,6 °C 16,1 km/h (3 Bft)
03.10.2024 22:36 17,5 °C 11,0 °C 57 % 89 % 1017,6 hPa 0,0 l/m² 11,0 km/h (2 Bft) NW 321 ° 0 min 0 W/m² 9,3 °C 8,2 °C 17,7 km/h (3 Bft)
03.10.2024 22:37 17,5 °C 11,0 °C 57 % 89 % 1017,6 hPa 0,0 l/m² 8,6 km/h (2 Bft) N 355 ° 0 min 0 W/m² 9,3 °C 9,5 °C 16,1 km/h (3 Bft)
03.10.2024 22:38 17,5 °C 11,0 °C 57 % 90 % 1017,7 hPa 0,0 l/m² 12,9 km/h (3 Bft) N-NW 343 ° 0 min 0 W/m² 9,4 °C 7,2 °C 17,7 km/h (3 Bft)
03.10.2024 22:39 17,5 °C 11,0 °C 57 % 90 % 1017,6 hPa 0,0 l/m² 9,7 km/h (2 Bft) N-NW 328 ° 0 min 0 W/m² 9,4 °C 8,9 °C 17,7 km/h (3 Bft)
03.10.2024 22:40 17,5 °C 11,0 °C 57 % 90 % 1017,6 hPa 0,0 l/m² 13,4 km/h (3 Bft) NW 325 ° 0 min 0 W/m² 9,4 °C 7,0 °C 17,7 km/h (3 Bft)
03.10.2024 22:41 17,5 °C 11,0 °C 57 % 90 % 1017,6 hPa 0,0 l/m² 13,6 km/h (3 Bft) N-NW 340 ° 0 min 0 W/m² 9,4 °C 6,9 °C 17,7 km/h (3 Bft)
03.10.2024 22:42 17,5 °C 11,0 °C 57 % 90 % 1017,7 hPa 0,0 l/m² 13,8 km/h (3 Bft) N-NW 327 ° 0 min 0 W/m² 9,4 °C 6,8 °C 20,9 km/h (4 Bft)
03.10.2024 22:43 17,5 °C 11,0 °C 57 % 90 % 1017,6 hPa 0,0 l/m² 12,1 km/h (2 Bft) N-NW 338 ° 0 min 0 W/m² 9,4 °C 7,6 °C 17,7 km/h (3 Bft)
03.10.2024 22:44 17,5 °C 11,0 °C 57 % 90 % 1017,7 hPa 0,0 l/m² 9,2 km/h (2 Bft) NW 315 ° 0 min 0 W/m² 9,4 °C 9,2 °C 12,9 km/h (3 Bft)
03.10.2024 22:45 17,5 °C 11,0 °C 57 % 90 % 1017,6 hPa 0,0 l/m² 7,4 km/h (2 Bft) N-NW 339 ° 0 min 0 W/m² 9,4 °C 10,3 °C 12,9 km/h (3 Bft)
03.10.2024 22:46 17,5 °C 11,0 °C 57 % 90 % 1017,6 hPa 0,0 l/m² 10,9 km/h (2 Bft) N 355 ° 0 min 0 W/m² 9,4 °C 8,2 °C 14,5 km/h (3 Bft)
03.10.2024 22:47 17,4 °C 10,9 °C 57 % 90 % 1017,6 hPa 0,0 l/m² 10,4 km/h (2 Bft) W-NW 300 ° 0 min 0 W/m² 9,3 °C 8,4 °C 14,5 km/h (3 Bft)
03.10.2024 22:48 17,5 °C 10,9 °C 57 % 90 % 1017,6 hPa 0,0 l/m² 6,6 km/h (2 Bft) W-SW 256 ° 0 min 0 W/m² 9,3 °C 10,8 °C 9,7 km/h (2 Bft)
03.10.2024 22:49 17,5 °C 10,9 °C 57 % 90 % 1017,6 hPa 0,0 l/m² 5,5 km/h (2 Bft) NW 323 ° 0 min 0 W/m² 9,3 °C 10,9 °C 9,7 km/h (2 Bft)
03.10.2024 22:50 17,5 °C 10,9 °C 57 % 90 % 1017,6 hPa 0,0 l/m² 10,3 km/h (2 Bft) NW 321 ° 0 min 0 W/m² 9,3 °C 8,4 °C 14,5 km/h (3 Bft)
03.10.2024 22:51 17,5 °C 10,9 °C 57 % 90 % 1017,6 hPa 0,0 l/m² 8,2 km/h (2 Bft) NW 323 ° 0 min 0 W/m² 9,3 °C 9,7 °C 16,1 km/h (3 Bft)
03.10.2024 22:52 17,5 °C 10,9 °C 57 % 90 % 1017,6 hPa 0,0 l/m² 3,5 km/h (1 Bft) N-NW 344 ° 0 min 0 W/m² 9,3 °C 10,9 °C 8,0 km/h (2 Bft)
03.10.2024 22:53 17,5 °C 10,9 °C 57 % 90 % 1017,6 hPa 0,0 l/m² 7,4 km/h (2 Bft) NW 323 ° 0 min 0 W/m² 9,3 °C 10,2 °C 14,5 km/h (3 Bft)
03.10.2024 22:54 17,5 °C 10,8 °C 57 % 90 % 1017,6 hPa 0,0 l/m² 6,3 km/h (2 Bft) NW 323 ° 0 min 0 W/m² 9,2 °C 10,8 °C 12,9 km/h (3 Bft)
03.10.2024 22:55 17,4 °C 10,8 °C 57 % 90 % 1017,7 hPa 0,0 l/m² 6,5 km/h (2 Bft) NW 309 ° 0 min 0 W/m² 9,2 °C 10,8 °C 12,9 km/h (3 Bft)
03.10.2024 22:56 17,5 °C 10,8 °C 57 % 91 % 1017,7 hPa 0,0 l/m² 6,0 km/h (2 Bft) NW 315 ° 0 min 0 W/m² 9,4 °C 10,8 °C 9,7 km/h (2 Bft)
03.10.2024 22:57 17,5 °C 10,8 °C 57 % 91 % 1017,7 hPa 0,0 l/m² 7,7 km/h (2 Bft) NW 313 ° 0 min 0 W/m² 9,4 °C 9,9 °C 12,9 km/h (3 Bft)
03.10.2024 22:58 17,5 °C 10,8 °C 57 % 91 % 1017,7 hPa 0,0 l/m² 6,4 km/h (2 Bft) N-NW 343 ° 0 min 0 W/m² 9,4 °C 10,8 °C 16,1 km/h (3 Bft)
03.10.2024 22:59 17,5 °C 10,8 °C 57 % 91 % 1017,7 hPa 0,0 l/m² 8,9 km/h (2 Bft) N-NW 339 ° 0 min 0 W/m² 9,4 °C 9,1 °C 16,1 km/h (3 Bft)
03.10.2024 23:00 17,5 °C 10,7 °C 57 % 91 % 1017,7 hPa 0,2 l/m² 6,6 km/h (2 Bft) N-NW 333 ° 0 min 0 W/m² 9,3 °C 10,6 °C 9,7 km/h (2 Bft)
03.10.2024 23:01 17,5 °C 10,7 °C 57 % 91 % 1017,7 hPa 0,0 l/m² 8,8 km/h (2 Bft) NW 306 ° 0 min 0 W/m² 9,3 °C 9,1 °C 14,5 km/h (3 Bft)
03.10.2024 23:02 17,5 °C 10,7 °C 57 % 91 % 1017,7 hPa 0,0 l/m² 6,0 km/h (2 Bft) NW 319 ° 0 min 0 W/m² 9,3 °C 10,7 °C 9,7 km/h (2 Bft)
03.10.2024 23:03 17,5 °C 10,7 °C 57 % 91 % 1017,7 hPa 0,0 l/m² 4,8 km/h (1 Bft) NW 319 ° 0 min 0 W/m² 9,3 °C 10,7 °C 11,3 km/h (2 Bft)
03.10.2024 23:04 17,5 °C 10,7 °C 57 % 91 % 1017,7 hPa 0,0 l/m² 6,2 km/h (2 Bft) NW 306 ° 0 min 0 W/m² 9,3 °C 10,7 °C 9,7 km/h (2 Bft)
03.10.2024 23:05 17,5 °C 10,7 °C 57 % 91 % 1017,7 hPa 0,0 l/m² 4,8 km/h (1 Bft) NW 305 ° 0 min 0 W/m² 9,3 °C 10,7 °C 11,3 km/h (2 Bft)
03.10.2024 23:06 17,5 °C 10,7 °C 57 % 91 % 1017,6 hPa 0,0 l/m² 5,0 km/h (1 Bft) N-NW 332 ° 0 min 0 W/m² 9,3 °C 10,7 °C 8,0 km/h (2 Bft)
03.10.2024 23:07 17,4 °C 10,6 °C 57 % 91 % 1017,7 hPa 0,0 l/m² 6,1 km/h (2 Bft) N-NW 337 ° 0 min 0 W/m² 9,2 °C 10,6 °C 12,9 km/h (3 Bft)
03.10.2024 23:08 17,5 °C 10,7 °C 57 % 91 % 1017,6 hPa 0,0 l/m² 6,0 km/h (2 Bft) NW 306 ° 0 min 0 W/m² 9,3 °C 10,7 °C 9,7 km/h (2 Bft)
03.10.2024 23:09 17,5 °C 10,7 °C 57 % 92 % 1017,6 hPa 0,0 l/m² 8,0 km/h (2 Bft) N-NW 328 ° 0 min 0 W/m² 9,5 °C 9,6 °C 16,1 km/h (3 Bft)
03.10.2024 23:10 17,5 °C 10,6 °C 57 % 92 % 1017,6 hPa 0,0 l/m² 10,4 km/h (2 Bft) NW 308 ° 0 min 0 W/m² 9,4 °C 8,0 °C 16,1 km/h (3 Bft)
03.10.2024 23:11 17,5 °C 10,6 °C 57 % 92 % 1017,6 hPa 0,0 l/m² 9,3 km/h (2 Bft) N-NW 329 ° 0 min 0 W/m² 9,4 °C 8,7 °C 14,5 km/h (3 Bft)
03.10.2024 23:12 17,5 °C 10,6 °C 57 % 92 % 1017,6 hPa 0,0 l/m² 12,7 km/h (3 Bft) N-NW 332 ° 0 min 0 W/m² 9,4 °C 6,9 °C 17,7 km/h (3 Bft)
03.10.2024 23:13 17,4 °C 10,6 °C 57 % 92 % 1017,6 hPa 0,0 l/m² 13,3 km/h (3 Bft) NW 317 ° 0 min 0 W/m² 9,4 °C 6,6 °C 19,3 km/h (3 Bft)
03.10.2024 23:14 17,5 °C 10,6 °C 57 % 92 % 1017,7 hPa 0,0 l/m² 9,9 km/h (2 Bft) N-NW 344 ° 0 min 0 W/m² 9,4 °C 8,3 °C 17,7 km/h (3 Bft)
03.10.2024 23:15 17,5 °C 10,6 °C 57 % 92 % 1017,6 hPa 0,0 l/m² 12,8 km/h (3 Bft) NW 315 ° 0 min 0 W/m² 9,4 °C 6,8 °C 17,7 km/h (3 Bft)
03.10.2024 23:16 17,5 °C 10,6 °C 57 % 92 % 1017,5 hPa 0,0 l/m² 11,3 km/h (2 Bft) N-NW 337 ° 0 min 0 W/m² 9,4 °C 7,6 °C 20,9 km/h (4 Bft)
03.10.2024 23:17 17,4 °C 10,6 °C 57 % 92 % 1017,6 hPa 0,0 l/m² 11,3 km/h (2 Bft) N-NW 337 ° 0 min 0 W/m² 9,4 °C 7,6 °C 17,7 km/h (3 Bft)
03.10.2024 23:18 17,5 °C 10,6 °C 57 % 92 % 1017,6 hPa 0,0 l/m² 12,9 km/h (3 Bft) N-NW 337 ° 0 min 0 W/m² 9,4 °C 6,8 °C 17,7 km/h (3 Bft)
03.10.2024 23:19 17,4 °C 10,6 °C 57 % 92 % 1017,6 hPa 0,0 l/m² 12,9 km/h (3 Bft) N-NW 337 ° 0 min 0 W/m² 9,4 °C 6,8 °C 16,1 km/h (3 Bft)
03.10.2024 23:20 17,5 °C 10,6 °C 57 % 92 % 1017,6 hPa 0,0 l/m² 11,3 km/h (2 Bft) N-NW 337 ° 0 min 0 W/m² 9,4 °C 7,6 °C 19,3 km/h (3 Bft)
03.10.2024 23:26 17,4 °C 10,6 °C 57 % 92 % 1017,6 hPa 0,0 l/m² 6,9 km/h (2 Bft) N-NW 327 ° 0 min 0 W/m² 9,4 °C 10,3 °C 9,7 km/h (2 Bft)
03.10.2024 23:28 17,4 °C 10,5 °C 57 % 92 % 1017,5 hPa 0,0 l/m² 5,8 km/h (2 Bft) N-NW 337 ° 0 min 0 W/m² 9,3 °C 10,5 °C 9,7 km/h (2 Bft)
03.10.2024 23:30 17,4 °C 10,5 °C 57 % 92 % 1017,5 hPa 0,0 l/m² 10,3 km/h (2 Bft) N 355 ° 0 min 0 W/m² 9,3 °C 8,0 °C 17,7 km/h (3 Bft)
03.10.2024 23:31 17,4 °C 10,5 °C 57 % 92 % 1017,6 hPa 0,0 l/m² 10,2 km/h (2 Bft) N-NW 329 ° 0 min 0 W/m² 9,3 °C 8,0 °C 14,5 km/h (3 Bft)
03.10.2024 23:32 17,4 °C 10,5 °C 57 % 92 % 1017,6 hPa 0,0 l/m² 12,0 km/h (2 Bft) NW 320 ° 0 min 0 W/m² 9,3 °C 7,1 °C 17,7 km/h (3 Bft)
03.10.2024 23:35 17,4 °C 10,5 °C 57 % 92 % 1017,5 hPa 0,0 l/m² 11,3 km/h (2 Bft) NW 317 ° 0 min 0 W/m² 9,3 °C 7,4 °C 20,9 km/h (4 Bft)
03.10.2024 23:37 17,4 °C 10,5 °C 57 % 92 % 1017,6 hPa 0,0 l/m² 11,0 km/h (2 Bft) N-NW 332 ° 0 min 0 W/m² 9,3 °C 7,6 °C 19,3 km/h (3 Bft)
03.10.2024 23:39 17,5 °C 10,5 °C 57 % 92 % 1017,6 hPa 0,0 l/m² 9,4 km/h (2 Bft) NW 317 ° 0 min 0 W/m² 9,3 °C 8,5 °C 19,3 km/h (3 Bft)
03.10.2024 23:40 17,4 °C 10,5 °C 57 % 92 % 1017,5 hPa 0,0 l/m² 11,3 km/h (2 Bft) N-NW 333 ° 0 min 0 W/m² 9,3 °C 7,4 °C 19,3 km/h (3 Bft)
03.10.2024 23:41 17,4 °C 10,5 °C 57 % 92 % 1017,6 hPa 0,0 l/m² 9,8 km/h (2 Bft) N-NW 343 ° 0 min 0 W/m² 9,3 °C 8,3 °C 16,1 km/h (3 Bft)
03.10.2024 23:42 17,4 °C 10,5 °C 57 % 92 % 1017,6 hPa 0,0 l/m² 12,1 km/h (2 Bft) N-NW 333 ° 0 min 0 W/m² 9,3 °C 7,0 °C 17,7 km/h (3 Bft)
03.10.2024 23:44 17,4 °C 10,5 °C 57 % 92 % 1017,5 hPa 0,0 l/m² 9,0 km/h (2 Bft) NW 319 ° 0 min 0 W/m² 9,3 °C 8,7 °C 17,7 km/h (3 Bft)
03.10.2024 23:45 17,4 °C 10,5 °C 57 % 92 % 1017,5 hPa 0,0 l/m² 11,1 km/h (2 Bft) NW 310 ° 0 min 0 W/m² 9,3 °C 7,5 °C 17,7 km/h (3 Bft)
03.10.2024 23:47 17,4 °C 10,4 °C 57 % 92 % 1017,5 hPa 0,0 l/m² 13,1 km/h (3 Bft) W-NW 300 ° 0 min 0 W/m² 9,2 °C 6,4 °C 22,5 km/h (4 Bft)
03.10.2024 23:49 17,4 °C 10,4 °C 57 % 92 % 1017,5 hPa 0,0 l/m² 8,2 km/h (2 Bft) N-NW 334 ° 0 min 0 W/m² 9,2 °C 9,1 °C 16,1 km/h (3 Bft)
03.10.2024 23:50 17,4 °C 10,5 °C 57 % 92 % 1017,5 hPa 0,0 l/m² 11,0 km/h (2 Bft) N-NW 331 ° 0 min 0 W/m² 9,3 °C 7,6 °C 19,3 km/h (3 Bft)
03.10.2024 23:51 17,4 °C 10,4 °C 57 % 92 % 1017,5 hPa 0,0 l/m² 13,3 km/h (3 Bft) NW 315 ° 0 min 0 W/m² 9,2 °C 6,4 °C 20,9 km/h (4 Bft)
03.10.2024 23:52 17,4 °C 10,4 °C 57 % 92 % 1017,5 hPa 0,0 l/m² 17,0 km/h (3 Bft) N-NW 338 ° 0 min 0 W/m² 9,2 °C 4,8 °C 20,9 km/h (4 Bft)
03.10.2024 23:54 17,4 °C 10,4 °C 57 % 92 % 1017,6 hPa 0,0 l/m² 13,0 km/h (3 Bft) NW 316 ° 0 min 0 W/m² 9,2 °C 6,5 °C 20,9 km/h (4 Bft)
03.10.2024 23:55 17,4 °C 10,4 °C 57 % 92 % 1017,6 hPa 0,0 l/m² 15,2 km/h (3 Bft) N-NW 348 ° 0 min 0 W/m² 9,2 °C 5,5 °C 20,9 km/h (4 Bft)
03.10.2024 23:57 17,4 °C 10,4 °C 57 % 92 % 1017,6 hPa 0,0 l/m² 12,1 km/h (2 Bft) NW 325 ° 0 min 0 W/m² 9,2 °C 6,9 °C 22,5 km/h (4 Bft)
03.10.2024 23:59 17,4 °C 10,4 °C 57 % 92 % 1017,6 hPa 0,0 l/m² 12,1 km/h (2 Bft) N-NW 329 ° 0 min 0 W/m² 9,2 °C 6,9 °C 17,7 km/h (3 Bft)
_ Min-Zeit 23:59 08:59 23:59 14:50 00:11 - 04:43 - - - - 08:59 08:27 04:43
Minimum _ 17,4 °C 9,8 °C 57 % 88 % 1013,2 hPa - 0,0 km/h (0 Bft) - - - - 8,7 °C 4,8 °C 0,0 km/h (0 Bft)
_ Max-Zeit 01:52 14:44 23:59 05:31 23:14 23:00 13:16 - - 15:45 13:10 17:15 14:44 10:04
Maximum _ 18,2 °C 11,8 °C 57 % 95 % 1017,7 hPa 0,2 l/m² 18,0 km/h
N-NW (3 Bft)
- - 2 min 236 W/m² 10,3 °C 11,8 °C 25,7 km/h
N-NW (4 Bft)
Durchschnitt _ 17,8 °C 10,6 °C 57 % 92 % 1015,5 hPa #1,2 l/m² 7,5 km/h (2 Bft) N-NW - #7:43 h 36 W/m² 9,4 °C 9,4 °C 12,8 km/h (3 Bft)
© 2009 Mathias Hoßbach